(This page will refresh every three minutes)

Citizen's Weather Reports

count Call report agetempspeedgustdirectionrain*rain 24hrain midnighthumiditybarometerQAWeb
1 DW8004 00:00:00:01 4519349000591011.2
**
 
2 EW7785 00:00:00:01 43173426000.090.0777999.1
**
 
3 CW7352 00:00:00:01 41052270.060.10.11001006.0
**
 
4 EW9030 00:00:00:01 59823249000251015.6
**
 
5 EW9523 00:00:00:01 6025320000911019.4
**
 
6 CW6570 00:00:00:01 602487000801020.0  
7 CW9784 00:00:00:01 576631600581080.5  
8 FW1085 00:00:00:01 6924279000481008.0  
9 DW0479 00:00:00:01 8171125500.010.01711010.8
**
 
10 DW1496 00:00:00:02 722733300.460.2781012.3
**
 
11 EW6222 00:00:00:02 702819000037994.2  
12 EW0259 00:00:00:02 5041220731020.2
**
 
13 CW7841 00:00:00:02 7038298000881011.8
**
 
14 EW7223 00:00:00:02 642328100.810.04881011.7
**
 
15 CW6010 00:00:00:02 538112180005812.8
**
 
16 DW0314 00:00:00:02 71131922500032998.8
**
 
17 CW9085 00:00:00:02 6901279000641012.1
**
 
18 EW8567 00:00:00:02 17000000761016.1
**
 
19 EW9092 00:00:00:02 800218000171016.5
**
 
20 EW9139 00:00:00:02 63616219000311037.1
**
 
21 EW9565 00:00:00:02 6105309000331018.2  
22 EW8175 00:00:00:02 3816360000731010.6
**
 
23 EW0975 00:00:00:02 661621179000311003.5
**
 
24 EW4311 00:00:00:02 7981527400.310691012.4
**
**
25 EW6280 00:00:00:02 3981620100.120711017.9  
26 DW2736 00:00:00:03 6300291000751019.4
**
**
27 CW8815 00:00:00:03 3821319400.080801015.3
**
**
28 CW2026 00:00:00:03 4206298000601011.9
**
 
29 EW5834 00:00:00:03 62051610.010.04361013.1
**
 
30 CW9579 00:00:00:03 73017800401014.0
**
 
31 EW2165 00:00:00:03 7426137000291007.8
**
 
32 CW0962 00:00:00:03 4949220000461013.5
**
 
33 EW5568 00:00:00:03 601330200.010.01761018.8
**
 
34 EW9790 00:00:00:03 6126205000391011.2
**
 
35 EW9853 00:00:00:03 581020219000521000.9
**
 
36 DW3298 00:00:00:03 7131780431012.1
**
 
37 DW9307 00:00:00:03 5321090791014.5
**
 
38 EW0693 00:00:00:03 45141921600084988.8
**
 
39 EW6650 00:00:00:03 4861419500.080911021.1
**
 
40 CW6301 00:00:00:03 5981133500054955.9
**
 
41 FW1262 00:00:00:03 5841617300.220.22901012.9  
42 CW7668 00:00:00:03 7238263000361015.7
**
 
43 EW8157 00:00:00:03 49362000371011.9  
44 FW1660 00:00:00:03 5400095986.0
**
 
45 EW5466 00:00:00:04 472534210000671004.9
**
 
46 DW5974 00:00:00:04 5379121000531014.2
**
 
47 CW6963 00:00:00:04 4849145000401015.9
**
 
48 CW2312 00:00:00:04 51412206000351009.7
**
 
49 EW0237 00:00:00:04 5347137000431014.9
**
 
50 DW9713 00:00:00:04 60314251000431010.7
**
 
51 EW3189 00:00:00:04 3800000211018.5
**
 
52 CW6214 00:00:00:04 5302133000341015.0
**
 
53 DW6198 00:00:00:04 3400225000971020.4
**
 
54 EW8961 00:00:00:04 501022238000491007.8
**
 
55 EW9925 00:00:00:04 61310117000241001.8
**
 
56 EW6942 00:00:00:04 6116330000421013.9
**
 
57 CW6723 00:00:00:04 6000183000961017.5
**
 
58 EW6412 00:00:00:04 7161214300037992.3
**
 
59 CW5049 00:00:00:04 4914166000691018.7
**
 
60 FW0975 00:00:00:04 001014.0
**
**
61 EW6141 00:00:00:04 7727180000441014.5
**
 
62 DW0999 00:00:00:05 4905169000811012.8
**
 
63 EW0990 00:00:00:05 6292032500053997.0
**
 
64 EW2533 00:00:00:05 55410313000501019.6
**
 
65 EW3055 00:00:00:05 8001307000301012.7
**
 
66 EW7067 00:00:00:05 5638248000541012.2
**
 
67 DW0708 00:00:00:05 6825242000421015.7
**
 
68 DW1837 00:00:00:05 583696000421013.4
**
 
69 EW5474 00:00:00:05 522531000641015.8
**
 
70 DW1967 00:00:00:05 651267000821016.9
**
**
71 EW9200 00:00:00:05 60820188000391002.0
**
 
72 ew4683 00:00:00:05 6346172000491011.7
**
 
73 DW5670 00:00:00:05 567142080.140.680.68871030.8
**
 
74 EW5034 00:00:00:05 43516148000631007.6
**
 
75 DW7412 00:00:00:05 790312600341012.2
**
 
76 FW1373 00:00:00:05 7138230000341013.3  
77 DW4725 00:00:00:05 479170000761016.1
**
 
78 DW6019 00:00:00:05 7443090301019.6
**
 
79 FW1695 00:00:00:05 6908185000241023.3  
80 CW6778 00:00:00:06 485490361013.8
**
 
81 EW4349 00:00:00:06 6021064000361014.8
**
 
82 DW9426 00:00:00:06 72511187000311012.2
**
 
83 CW3556 00:00:00:06 68817197000361004.3
**
**
84 EW3336 00:00:00:06 52310210000431013.7
**
 
85 DW6615 00:00:00:06 4838157000411015.8
**
 
86 EW9408 00:00:00:06 5925194000551014.6
**
 
87 FW0196 00:00:00:06 6813195000551018.4
**
 
88 FW0241 00:00:00:06 4948220000541007.5  
89 EW4321 00:00:00:06 5069156000571016.9
**
 
90 DW8984 00:00:00:06 520034500.220.03931021.8
**
 
91 EW7495 00:00:00:06 3801180000821017.4
**
 
92 DW3365 00:00:00:06 00006.5501002.3
**
 
93 EW9393 00:00:00:06 711917900036
**
 
94 DW1490 00:00:00:07 6400337331018.4
**
 
95 EW0050 00:00:00:07 594769000851018.2
**
**
96 CW8256 00:00:00:07 6728199000421014.9
**
 
97 DW8388 00:00:00:07 53717188000501009.3
**
 
98 EW7792 00:00:00:07 5400000035999.0
**
 
99 EW2998 00:00:00:07 5448185000241013.9
**
 
100 EW6460 00:00:00:07 71411196000321014.2
**
 
101 CW4098 00:00:00:07 8107222000141013.6
**
 
102 CW5071 00:00:00:07 704820271006.7
**
 
103 FW0401 00:00:00:07 3725230000831010.1
**
 
104 DW5696 00:00:00:07 62000000371016.3
**
 
105 FW1573 00:00:00:07 650526100301013.7
**
 
106 FW1740 00:00:00:07 501832600.150991022.2
**
 
107 EW4177 00:00:00:07 49311221000221010.8
**
 
108 EW5770 00:00:00:08 56005300.040.01871020.0
**
 
109 CW1275 00:00:00:08 7237199000351012.3
**
 
110 EW1196 00:00:00:08 54512207000441009.6
**
 
111 DW9451 00:00:00:08 7132250001015.2
**
 
112 EW6438 00:00:00:08 393142590.020.040.04681013.7
**
 
113 EW6694 00:00:00:08 42102421200082998.5
**
 
114 DW7271 00:00:00:08 63007700.820.07971012.8
**
 
115 EW4694 00:00:00:08 5531227500.010.01321015.4
**
 
116 FW0678 00:00:00:08 5449186000431009.4
**
 
117 DW8345 00:00:00:08 6436500.030.03851012.6
**
 
118 EW1496 00:00:00:08 6502306000411015.6
**
 
119 EW6792 00:00:00:08 78610154000521010.8
**
 
120 CW2125 00:00:00:09 551622219000531002.1
**
 
121 CW5834 00:00:00:09 572719900561013.0
**
 
122 DW7280 00:00:00:09 5927269000311013.4
**
 
123 EW6767 00:00:00:09 5349224000411020.3
**
 
124 EW5182 00:00:00:09 50001800.020.210.2961012.4
**
 
125 EW3093 00:00:00:09 573833000062995.4
**
 
126 DW9594 00:00:00:09 68001970411014.0
**
 
127 EW9140 00:00:00:09 530244000381015.6
**
 
128 ew4874 00:00:00:09 48152250451012.1
**
 
129 DW9643 00:00:00:10 54614171000451011.1
**
 
130 CW2049 00:00:00:10 484635800.180671020.2
**
 
131 DW9374 00:00:00:10 5992022200053999.8
**
 
132 EW0410 00:00:00:10 8239150000751011.7
**
 
133 EW6795 00:00:00:10 502915900.170751019.0
**
 
134 EW8454 00:00:00:10 52210213000251011.5
**
 
135 EW3638 00:00:00:10 521615300.070931021.9
**
**
136 CW1817 00:00:00:10 5217232000561016.8
**
**
137 DW5241 00:00:00:11 5251720441010.5
**
 
138 DW0148 00:00:00:11 5626158000561017.1
**
**
139 EW4164 00:00:00:11 523724500.030.03891011.8
**
 
140 EW7754 00:00:00:11 7137161000291008.4
**
 
141 EW5454 00:00:00:11 49002200.340.22909.8
**
 
142 CW7625 00:00:00:11 6839207000351011.6
**
 
143 DW4135 00:00:00:11 13690001015.0
**
 
144 DW7220 00:00:00:11 7041027800.010.01871011.0
**
 
145 DW4531 00:00:00:11 807133000351014.2
**
 
146 DW4230 00:00:00:11 47616245000601015.5
**
 
147 EW4941 00:00:00:11 4438184000551011.8
**
 
148 DW7920 00:00:00:11 44002970.020.360.36951013.5
**
 
149 DW7333 00:00:00:11 5503191000891014.0
**
 
150 FW0136 00:00:00:11 621014133000331015.4  
151 DW7157 00:00:00:11 761327800391013.0
**
 
152 FW0916 00:00:00:11 3929232000711010.9
**
 
153 DW8185 00:00:00:11 6726117000651014.1
**
 
154 DW8376 00:00:00:12 511112225000
**
 
155 CW2972 00:00:00:12 59412180000441013.4
**
 
156 DW6927 00:00:00:12 590570000581015.2
**
 
157 EW7045 00:00:00:12 4839173000381014.0
**
 
158 CW1708 00:00:00:12 4916298000411007.1
**
 
159 EW7238 00:00:00:12 6111721300020994.6
**
 
160 EW6584 00:00:00:12 4941118300.050.02781019.1
**
 
161 EW1136 00:00:00:12 7661130700031996.9
**
 
162 FW1300 00:00:00:12 632456000871018.9  
163 EW9720 00:00:00:12 7581073000191000.9
**
 
164 FW1534 00:00:00:12 460020200.160.13981016.0  
165 CW9962 00:00:00:12 792930600.110.01651008.8
**
 
166 DW9619 00:00:00:13 161668000881010.2
**
 
167 DW9152 00:00:00:13 49610252000391015.1
**
 
168 DW3695 00:00:00:13 470016300.01811013.9
**
 
169 EW3839 00:00:00:13 5104221000431015.3
**
 
170 CW4632 00:00:00:13 420429600.320821018.5  
171 EW4824 00:00:00:13 75615196000281011.4
**
 
172 FW1706 00:00:00:13 6001231000941016.6  
173 DW4590 00:00:00:13 00006.5501015.3
**
**
174 FW1799 00:00:00:13 45210229000561015.3
**
 
175 DW9101 00:00:00:14 6713191000401015.3
**
 
176 DW0582 00:00:00:14 600016800.10.07891023.6  
177 EW4492 00:00:00:14 48111623500.10661020.2
**
 
178 EW7129 00:00:00:14 71396600022819.7
**
 
179 DW6862 00:00:00:14 5439134000691015.6
**
 
180 EW5721 00:00:00:14 7902279000231011.6
**
 
181 DW7059 00:00:00:15 481225200.15901012.8
**
**
182 CW0539 00:00:00:15 451210200.460.46941012.1
**
 
183 EW6170 00:00:00:15 7061579000361013.6
**
 
184 cw8630 00:00:00:15 60162818900053999.8
**
 
185 EW5691 00:00:00:15 6200337000691020.3
**
 
186 DW6706 00:00:00:15 670474000461015.2  
187 EW7953 00:00:00:15 400013500.140.14911011.9
**
 
188 DW7662 00:00:00:15 662619300088
**
 
189 EW8993 00:00:00:15 6705213000481015.2
**
 
190 CW7869 00:00:00:15 7413316000341012.8
**
 
191 CW2462 00:00:00:15 8425229000251016.6
**
 
192 CW6311 00:00:00:15 60410500.070.01431010.6
**
 
193 EW9631 00:00:00:15 6025207000471009.6
**
 
194 DW2987 00:00:00:15 5014281000801018.4
**
 
195 cw4558 00:00:00:16 52614248000421007.1
**
 
196 DW8953 00:00:00:16 6205205000521014.3
**
 
197 DW8313 00:00:00:16 7513255000261016.9
**
 
198 EW7638 00:00:00:16 591495000311014.9
**
 
199 EW5436 00:00:00:16 7902313000381012.9
**
 
200 ew7998 00:00:00:16 50421207000391011.4
**
 
201 DW8734 00:00:00:16 451133300061985.3
**
 
202 DW9695 00:00:00:16 4748214000821019.9
**
 
203 DW5288 00:00:00:16 73610281000281001.8
**
 
204 EW2834 00:00:00:16 494816700.10.02931022.7
**
 
205 EW7408 00:00:00:16 4941825400.040.02271008.1
**
 
206 EW2563 00:00:00:16 4816229000441014.1
**
**
207 DW8362 00:00:00:16 53612182000451014.1
**
 
208 CW2722 00:00:00:16 6000109000571014.6
**
 
209 EW8167 00:00:00:16 7028252000711019.3
**
 
210 EW0855 00:00:00:16 36001700.010891013.0
**
 
211 EW7285 00:00:00:16 360217900.060.01931002.9
**
 
212 CW9088 00:00:00:17 5091923000.070.07381006.7
**
 
213 EW7442 00:00:00:17 362714700.110921016.7
**
 
214 EW3891 00:00:00:17 68162518000012993.7
**
 
215 DW0851 00:00:00:17 4703256000691016.0
**
 
216 EW3298 00:00:00:17 8000153000291012.1
**
 
217 EW8754 00:00:00:17 47410303000491012.4
**
 
218 EW8876 00:00:00:17 7506158000351013.5
**
 
219 DW1850 00:00:00:17 74312196000351011.2
**
 
220 FW0245 00:00:00:17 51611178000431012.2
**
 
221 EW5489 00:00:00:17 0001000.4
**
 
222 EW7213 00:00:00:17 58613205000241012.7
**
 
223 FW1630 00:00:00:17 314522500.040.04100999.7  
224 DW1028 00:00:00:17 4571432700.020541024.4
**
 
225 CW6259 00:00:00:18 49366700.14761017.8
**
 
226 EW5895 00:00:00:18 510090000871019.3
**
 
227 DW1328 00:00:00:18 71152360361002.2
**
 
228 CW5404 00:00:00:18 481617200.060.041001021.6
**
 
229 DW8530 00:00:00:18 4624208000551012.0
**
 
230 EW3028 00:00:00:18 55008500.050.04401007.5
**
 
231 EW2415 00:00:00:18 79013550171012.7
**
 
232 CW0570 00:00:00:18 49018400.450.041001022.0
**
 
233 EW4624 00:00:00:18 660377000801014.8
**
 
234 EW5445 00:00:00:18 5414258000501002.7
**
 
235 CW8490 00:00:00:18 69913214000391001.6
**
 
236 EW5429 00:00:00:18 001010.0
**
 
237 FW1860 00:00:00:18 610021100.010.01781024.4  
238 EW7209 00:00:00:19 433620300.040851032.6
**
 
239 FW0375 00:00:00:19 5701224000921015.5  
240 FW0860 00:00:00:19 783679000251013.8
**
 
241 EW5957 00:00:00:19 6816203000381015.8
**
 
242 FW1619 00:00:00:19 51712170000721014.4  
243 EW6216 00:00:00:19 5813137000461019.7
**
 
244 EW7104 00:00:00:19 71711174000331001.7
**
 
245 EW3949 00:00:00:20 500219800881019.6
**
 
246 EW7292 00:00:00:20 5528200000361013.2
**
 
247 EW3360 00:00:00:20 490065000641017.1
**
 
248 EW6567 00:00:00:20 5061316400.010841021.7
**
 
249 EW0347 00:00:00:20 42612239000641013.3
**
 
250 EW1896 00:00:00:20 6905199000601014.1
**
 
251 EW3165 00:00:00:20 660079000501018.7
**
 
252 DW8901 00:00:00:20 4912279000911027.6
**
 
253 EW2456 00:00:00:20 5616323000271014.6
**
 
254 EW8849 00:00:00:20 512724800.030.01731018.7
**
 
255 EW9304 00:00:00:20 55111267000371001.4
**
 
256 CW2303 00:00:00:20 681015174000341008.0
**
 
257 FW0441 00:00:00:20 552434000066994.3  
258 FW1079 00:00:00:20 483430300591020.1
**
 
259 DW8874 00:00:00:21 5500225000451007.4
**
 
260 EW0013 00:00:00:21 70612278000251009.9
**
 
261 EW4229 00:00:00:21 440290000611011.7
**
 
262 EW6898 00:00:00:21 7946203000311014.3
**
 
263 EW0609 00:00:00:21 7503263000231009.0
**
 
264 EW2669 00:00:00:21 49714297000721020.0
**
 
265 EW5918 00:00:00:21 8712338000221064.7
**
 
266 DW9657 00:00:00:21 48815215000701006.5  
267 CW5896 00:00:00:21 5012860411015.9
**
**
268 EW5660 00:00:00:21 54715206000481003.7
**
 
269 EW4099 00:00:00:21 512420300841021.3
**
 
270 CW0942 00:00:00:21 4837100.120551018.0
**
 
271 EW4813 00:00:00:21 42141000781007.3
**
 
272 DW7624 00:00:00:22 6701600.01871013.2
**
 
273 EW2253 00:00:00:22 59414117000531001.7
**
 
274 EW0263 00:00:00:22 6100000961011.7
**
 
275 EW2874 00:00:00:22 6952122000039998.5
**
**
276 EW6114 00:00:00:22 540018100.020951010.1
**
 
277 DW9768 00:00:00:22 4619272920.010.170.14631000.1
**
 
278 CW7114 00:00:00:22 580395000501014.1
**
 
279 DW4521 00:00:00:22 73610150000341012.4
**
 
280 EW9807 00:00:00:22 6136244000561015.0
**
 
281 EW6664 00:00:00:22 40692480.030.090.09611008.8
**
 
282 EW5575 00:00:00:23 6923202000351005.0
**
 
283 EW5801 00:00:00:23 74611178000461014.3
**
 
284 EW1393 00:00:00:23 7851132000241003.6
**
 
285 DW4604 00:00:00:23 440224600.010.01901014.4
**
 
286 EW8178 00:00:00:23 3623264000951012.6
**
 
287 EW6530 00:00:00:23 544910000371011.8
**
 
288 EW7762 00:00:00:23 6612203000421008.8
**
 
289 CW2550 00:00:00:23 59152227700054991.2
**
 
290 FW0218 00:00:00:23 4728311000421024.9
**
 
291 CW4171 00:00:00:23 671600561018.6
**
**
292 DW2789 00:00:00:23 4871221500.090591020.6
**
 
293 EW9585 00:00:00:23 672320231003.5
**
 
294 FW0583 00:00:00:23 6511000651004.4  
295 FW1751 00:00:00:23 8591144000751013.4  
296 DW7718 00:00:00:24 370330400.010.01881007.9
**
 
297 EW0335 00:00:00:24 7329212000351012.7
**
 
298 EW5390 00:00:00:24 5003306000481015.8
**
 
299 DW8913 00:00:00:24 49413148000611017.0
**
 
300 EW9958 00:00:00:24 492566000471015.9
**
 
301 FW1035 00:00:00:24 813613600023972.4  
302 FW0291 00:00:00:24 94000000501014.1  
303 DW2641 00:00:00:24 48142318000371144.9
**
 
304 EW3940 00:00:00:25 44003300.170.04981022.9
**
 
305 EW8713 00:00:00:25 5223202000431016.5
**
 
306 DW9841 00:00:00:25 54002000.0101001018.8
**
 
307 EW0119 00:00:00:25 4035000.040.03771000.3
**
 
308 EW7443 00:00:00:25 7306167000321013.6
**
 
309 DW5747 00:00:00:25 570287000561016.9
**
 
310 EW5627 00:00:00:25 5127201000361014.8
**
 
311 EW6194 00:00:00:25 401332197000861018.4
**
 
312 CW9873 00:00:00:25 4801207000461015.2
**
 
313 DW6358 00:00:00:25 6534207000851017.1
**
 
314 EW8319 00:00:00:25 5101019900.150.02801022.0
**
 
315 FW0474 00:00:00:25 60511245000351014.0
**
 
316 DW1157 00:00:00:25 8022300381011.3
**
 
317 FW1788 00:00:00:25 37313217000731011.8
**
 
318 FW1790 00:00:00:25 59521016.9
**
**
319 FW1789 00:00:00:25 64111431800.170.07871016.9  
320 DW3138 00:00:00:25 3861216500.320701024.0
**
 
321 CW7615 00:00:00:26 6100120000621017.8
**
 
322 EW1690 00:00:00:26 471424277000351006.5
**
 
323 EW0943 00:00:00:26 63192821700040996.0
**
 
324 DW6933 00:00:00:26 56718182000491002.2
**
 
325 DW6417 00:00:00:26 4000000.240.24941011.6
**
 
326 EW2470 00:00:00:26 63137800491013.2
**
 
327 EW7246 00:00:00:26 62132112000431007.9
**
 
328 CW1890 00:00:00:26 403927300081993.1
**
 
329 CW5458 00:00:00:26 570670000331010.3
**
 
330 DW0452 00:00:00:26 48916223000621007.5
**
 
331 FW0137 00:00:00:26 5913110000431016.2  
332 DW5640 00:00:00:27 6217294100045997.9
**
 
333 DW3740 00:00:00:27 413516900.010.01891019.0
**
**
334 EW5498 00:00:00:27 490227000721015.8
**
 
335 CW1558 00:00:00:27 492721200.220741019.7
**
 
336 EW6703 00:00:00:27 4924194000381014.6
**
 
337 DW3931 00:00:00:27 4801329000871018.7
**
 
338 EW6074 00:00:00:27 413721100.010.01661011.4
**
 
339 DW9584 00:00:00:27 5104141000421016.5
**
 
340 CW8307 00:00:00:27 60122525000052997.4
**
**
341 DW9440 00:00:00:27 661328221000401002.6
**
 
342 DW9214 00:00:00:27 55814202000411010.9
**
 
343 EW4008 00:00:00:27 7427218000331014.5
**
 
344 EW9626 00:00:00:27 7629251000491016.1  
345 EW6603 00:00:00:27 5425314000381015.7
**
 
346 EW7204 00:00:00:27 822411200.26029
**
 
347 EW5543 00:00:00:27 5191423300032997.7
**
 
348 EW3105 00:00:00:28 7261525600034804.4
**
 
349 DW4556 00:00:00:28 7372110331010.8
**
 
350 CW9485 00:00:00:28 5315306000431012.8
**
**
351 EW8309 00:00:00:28 70716202000341004.5
**
 
352 EW1941 00:00:00:28 4128152000691009.5
**
 
353 EW5351 00:00:00:28 5300261000401014.6
**
 
354 EW7883 00:00:00:28 49117255000521005.1
**
 
355 EW7735 00:00:00:28 72618359000311007.5
**
 
356 FW0366 00:00:00:28 7249134000351013.2
**
 
357 DW0895 00:00:00:28 6100170000501007.0
**
 
358 CW4957 00:00:00:28 4725315000501013.0
**
 
359 CW5738 00:00:00:28 640000301022.9
**
 
360 CW6038 00:00:00:28 033550001011.2
**
 
361 EW3619 00:00:00:28 8100152000301013.2
**
 
362 CW4253 00:00:00:28 54201370271010.2
**
 
363 DW7941 00:00:00:29 5557239000591001.1
**
 
364 DW7571 00:00:00:29 54611180000441006.0
**
 
365 EW2487 00:00:00:29 8414160000231015.5
**
 
366 EW0529 00:00:00:29 6326173000321018.0
**
 
367 DW1232 00:00:00:29 73090000361017.2
**
 
368 DW9819 00:00:00:29 3931016900.180.05741020.4
**
 
369 EW8724 00:00:00:29 03423300011015.0
**
 
370 DW9697 00:00:00:29 79410287000131018.1
**
 
371 EW9519 00:00:00:29 330022500901005.4
**
 
372 DW4989 00:00:00:29 611933300000461003.5
**
 
373 FW0385 00:00:00:29 51514186000401014.7  
374 EW5988 00:00:00:29 5713278000471014.0
**
 
375 DW8626 00:00:00:29 560016400.080.02741020.0
**
 
376 FW1659 00:00:00:29 7123120000611016.6  
377 EW9913 00:00:00:29 51251430481015.1
**
 
378 DW8712 00:00:00:30 5801252000861016.5
**
 
379 EW6276 00:00:00:30 5961016100026991.2
**
 
380 EW2246 00:00:00:30 5251280601008.2
**
 
381 CW5112 00:00:00:30 560310000381015.2
**
 
382 EW5307 00:00:00:30 512232325000661002.7
**
 
383 EW9367 00:00:00:30 56513177000481010.2
**
 
384 FW1442 00:00:00:30 46901022.6  
385 FW1729 00:00:00:30 5027252000431016.7
**
 
386 EW7417 00:00:00:31 5337180000371015.9  
387 EW1104 00:00:00:31 4803246000421016.6
**
 
388 EW5043 00:00:00:31 48131820471009.3
**
 
389 EW8494 00:00:00:31 4991320100.020751018.2
**
 
390 EW7350 00:00:00:31 5237232000551007.3
**
 
391 EW5294 00:00:00:31 52382230381012.1  
392 EW9204 00:00:00:31 4836324000421002.1
**
 
393 FW0976 00:00:00:31 69817174000341011.0
**
 
394 FW1088 00:00:00:31 3300285000901014.3  
395 EW1553 00:00:00:31 582521500.010.01961020.5
**
 
396 CW4224 00:00:00:32 66371100.050.04861012.1
**
 
397 EW3551 00:00:00:32 5836336000481011.0
**
 
398 DW1379 00:00:00:32 6704186000271027.1
**
 
399 EW7917 00:00:00:32 3928256000681014.6
**
 
400 EW5637 00:00:00:32 5136112000461015.8
**
 
401 EW4117 00:00:00:32 5414139000341017.2
**
 
402 EW2748 00:00:00:32 621461000521015.4
**
 
403 EW4077 00:00:00:32 700263000601013.5
**
 
404 DW8266 00:00:00:32 7136201000441014.1
**
 
405 EW8522 00:00:00:32 40007700.470.1891016.9
**
 
406 CW3778 00:00:00:32 5851121200056998.7
**
**
407 FW1585 00:00:00:32 000999.8
**
 
408 FW0167 00:00:00:32 524055290000411007.6
**
 
409 FW1667 00:00:00:32 7181230100.070831012.5
**
 
410 EW2672 00:00:00:33 7439232000351014.2
**
 
411 DW5462 00:00:00:33 48013060.020.130.13921014.5
**
 
412 DW3954 00:00:00:33 4900225000471012.5
**
 
413 DW1901 00:00:00:33 5205173000381015.0
**
 
414 CW4043 00:00:00:33 413520500.020.021001010.0
**
**
415 EW7469 00:00:00:33 7047293000841011.9
**
**
416 EW4551 00:00:00:33 5311249000531006.9
**
 
417 EW9665 00:00:00:33 450320400.310.31861011.7
**
 
418 CW7610 00:00:00:33 37210300.06931002.2
**
 
419 DW7525 00:00:00:33 6805282000231011.8
**
 
420 EW8425 00:00:00:33 5826195000381013.2  
421 CW4870 00:00:00:33 600100531014.1
**
 
422 EW4741 00:00:00:33 5069179000501002.7
**
 
423 EW5603 00:00:00:34 4524135000521014.6
**
 
424 EW0603 00:00:00:34 51514169000561005.0
**
 
425 DW1549 00:00:00:34 3882511800.010.0167987.1
**
**
426 EW7927 00:00:00:34 4972012600.150801016.2
**
 
427 DW5164 00:00:00:34 5002171000931021.4
**
 
428 DW7670 00:00:00:34 45612244000721013.1
**
 
429 CW9769 00:00:00:34 521325184000441009.1
**
 
430 EW6363 00:00:00:34 5581519400054975.3
**
 
431 EW3003 00:00:00:34 6628103000441015.5
**
 
432 CW7580 00:00:00:34 6328328000361014.6
**
 
433 DW9085 00:00:00:34 4801450321006.8  
434 EW6880 00:00:00:34 6751319800041995.6  
435 EW5405 00:00:00:34 540514200056994.9  
436 EW1919 00:00:00:34 470222400971019.9
**
 
437 FW0619 00:00:00:34 7126116000101014.4  
438 FW1453 00:00:00:34 4749220000511013.2  
439 DW1426 00:00:00:35 680327800311016.3
**
 
440 EW5286 00:00:00:35 66817211000321011.7
**
 
441 EW6975 00:00:00:35 4722180000881011.2
**
 
442 CW9205 00:00:00:35 5171124700.10551019.0
**
 
443 EW4595 00:00:00:35 5127530.060.310.28851015.0
**
 
444 EW3968 00:00:00:35 6103266000971019.0
**
 
445 EW0578 00:00:00:35 7628258000171018.3
**
 
446 EW1728 00:00:00:35 5513276000461014.6
**
 
447 DW4212 00:00:00:35 490020400.040.01801020.1
**
 
448 CW1219 00:00:00:35 37512195000611009.2
**
 
449 DW7364 00:00:00:35 503428100351015.1
**
 
450 ew9322 00:00:00:35 74614256000231012.1
**
 
451 FW0327 00:00:00:35 50000.070.150.15901010.1  
452 EW4645 00:00:00:36 3839256000881014.0
**
 
453 EW0401 00:00:00:36 6805214000441015.3
**
 
454 DW6197 00:00:00:36 530184000621014.6
**
 
455 DW3347 00:00:00:36 6615100000701018.8
**
 
456 EW3673 00:00:00:36 81492380151011.5
**
 
457 EW5139 00:00:00:36 54612144000341011.4
**
 
458 DW0331 00:00:00:36 44162418000.080761007.6
**
 
459 DW7536 00:00:00:36 411519800.010.01631013.3
**
**
460 CW4083 00:00:00:36 6731031800.280831011.1
**
**
461 FW0248 00:00:00:36 6101236000401014.5  
462 FW1441 00:00:00:36 7438227000251013.7
**
 
463 DW6957 00:00:00:37 771317298000161007.7
**
 
464 CW4869 00:00:00:37 451115201000711000.1
**
**
465 DW1958 00:00:00:37 -2000000861008.5  
466 EW5556 00:00:00:37 536151560.021.421.38501008.2
**
 
467 EW8179 00:00:00:37 46111830400.020.0287995.6  
468 EW6576 00:00:00:37 8023338000281013.0
**
 
469 EW1505 00:00:00:37 59611235000491004.6
**
 
470 EW9945 00:00:00:37 48614204000321013.6
**
 
471 FW0062 00:00:00:37 7813203000251016.0
**
 
472 EW8032 00:00:00:37 5700112000791021.7
**
 
473 EW9858 00:00:00:37 862215800291011.1
**
 
474 EW8323 00:00:00:37 490683000481014.2  
475 EW6030 00:00:00:37 62365047994.0
**
 
476 DW2923 00:00:00:38 5171219200.060711018.5
**
 
477 dw9691 00:00:00:38 57000000881020.8
**
 
478 EW5064 00:00:00:38 4252227000.11621021.2
**
 
479 EW4769 00:00:00:38 691259000671017.8  
480 CW6213 00:00:00:38 5915199000271013.2
**
 
481 EW2888 00:00:00:38 6505208000611026.2
**
 
482 DW1038 00:00:00:38 620800271014.5
**
 
483 EW4692 00:00:00:38 570445000871016.0
**
 
484 DW7721 00:00:00:38 7026301000381012.7
**
 
485 EW0679 00:00:00:38 4516217000671013.1
**
 
486 DW0868 00:00:00:38 4892340521014.8
**
 
487 EW4150 00:00:00:38 701323202000311007.9
**
 
488 DW4321 00:00:00:38 4839148000391013.4
**
 
489 CW3367 00:00:00:38 68002000.080.08861012.6
**
 
490 CW9078 00:00:00:38 0-0.1
**
 
491 EW2727 00:00:00:38 49313312000451014.7
**
 
492 FW0489 00:00:00:38 491415600.210.01931025.3
**
 
493 FW0747 00:00:00:38 8436135000501010.7
**
 
494 EW6045 00:00:00:38 6616202000501014.8
**
 
495 DW0598 00:00:00:38 410337  
496 DW4719 00:00:00:39 601250841013.1
**
 
497 CW8250 00:00:00:39 390024800.120.12931011.6
**
 
498 EW6420 00:00:00:39 47001380.010.090.01501018.3
**
 
499 DW4139 00:00:00:39 5589248441009.1
**
**
500 EW1859 00:00:00:39 7202184000441012.7
**
 
501 DW5106 00:00:00:39 5382310511008.2
**
 
502 DW8578 00:00:00:39 77412189000291013.2
**
 
503 CW1502 00:00:00:39 5641780471002.3
**
 
504 DW0304 00:00:00:39 5159141000451015.6
**
 
505 EW8870 00:00:00:39 7825298000181019.1
**
 
506 EW8981 00:00:00:39 741316225000191016.7
**
 
507 EW8936 00:00:00:39 6011315000261018.8
**
 
508 FW1448 00:00:00:39 590377000461013.5  
509 EW7603 00:00:00:39 49111990551007.2  
510 FW1774 00:00:00:39 6152227300046995.5  
511 EW0056 00:00:00:40 444912200.070431023.7
**
 
512 EW3448 00:00:00:40 620072000851021.6
**
**
513 EW2206 00:00:00:40 3704580001001016.0
**
 
514 DW7441 00:00:00:40 485125000831016.1
**
 
515 EW0169 00:00:00:40 350013800.10.02891006.7
**
 
516 CW4409 00:00:00:40 504726400.060.05501019.1
**
 
517 EW0608 00:00:00:40 5703360000301013.8
**
 
518 DW7116 00:00:00:40 682819300.020.01401006.3
**
 
519 DW3201 00:00:00:40 6041620000051997.6
**
 
520 DW9742 00:00:00:40 73310139000521011.3
**
 
521 DW0592 00:00:00:40 4101235000541007.9
**
 
522 DW6979 00:00:00:40 300616100095999.9
**
 
523 FW0040 00:00:00:40 6325226000621012.7
**
 
524 FW0765 00:00:00:40 75916218000261011.8  
525 FW0910 00:00:00:40 811367000281005.0
**
 
526 FW1396 00:00:00:40 001055.1  
527 EW7361 00:00:00:40 39172819300089981.5
**
 
528 EW7690 00:00:00:40 5135197000381014.2
**
 
529 CW4924 00:00:00:41 4737242000451013.5
**
 
530 EW7103 00:00:00:41 51817188000701019.2
**
 
531 EW3697 00:00:00:41 4251014000.010551021.7
**
 
532 EW1814 00:00:00:41 492711500.170.01991021.8
**
 
533 DW6221 00:00:00:41 5204111000391015.8
**
 
534 DW4900 00:00:00:41 6206355000921011.0
**
 
535 EW8999 00:00:00:41 710422800391010.2
**
 
536 FW0050 00:00:00:41 6227359000611008.6  
537 EW9239 00:00:00:41 4849223000391012.1
**
 
538 DW2113 00:00:00:41 761522360000321107.9
**
 
539 CW5506 00:00:00:41 5751830421000.2
**
 
540 FW0270 00:00:00:41 6561523800047996.1
**
 
541 EW4800 00:00:00:41 5226294000461014.6
**
 
542 EW4585 00:00:00:41 5429255000431007.8
**
 
543 FW0275 00:00:00:41 71202030351013.1  
544 FW1866 00:00:00:41 832489000791017.1  
545 EW8444 00:00:00:42 605523700381012.1
**
 
546 EW5214 00:00:00:42 501614500.350.16991021.8
**
 
547 DW3862 00:00:00:42 5336124000431014.7
**
 
548 DW1774 00:00:00:42 7000245000381016.1
**
 
549 CW6419 00:00:00:42 460025100.130.13631008.4
**
 
550 EW1076 00:00:00:42 442911600.180681019.5
**
 
551 DW8081 00:00:00:42 49472050471008.8
**
 
552 CW2075 00:00:00:42 5161026500.040.04801013.5
**
 
553 CW8065 00:00:00:42 6371820800051994.5
**
 
554 EW9366 00:00:00:42 701017199000221011.8
**
 
555 EW1295 00:00:00:42 5839184000381010.9
**
 
556 CW8357 00:00:00:42 69152370331005.6
**
 
557 CW5521 00:00:00:43 61820230000491001.8
**
 
558 CW3773 00:00:00:43 3625235000691009.2
**
**
559 EW5222 00:00:00:43 68715209000351008.7
**
 
560 CW7492 00:00:00:43 46214204000441010.6
**
**
561 EW6322 00:00:00:43 75920209000291003.6
**
 
562 EW1913 00:00:00:43 50517145000501008.3
**
 
563 DW5633 00:00:00:43 6105201000301017.5
**
 
564 EW8245 00:00:00:43 62003540961024.9
**
 
565 EW7481 00:00:00:43 403723100.160821021.9
**
 
566 EW4610 00:00:00:43 330018000841012.4
**
 
567 DW5146 00:00:00:43 5200264000421010.1
**
 
568 FW0310 00:00:00:43 67601130171005.6
**
 
569 FW0907 00:00:00:43 8534180000361008.4  
570 CW3863 00:00:00:43 73814135000191013.2
**
**
571 DW2871 00:00:00:43 620020600.010.01921012.9
**
 
572 FW1479 00:00:00:43 4901200931021.2  
573 EW8279 00:00:00:44 5003222000461015.5
**
 
574 DW1188 00:00:00:44 4271418600.10781022.2
**
 
575 EW1297 00:00:00:44 4901000431015.0
**
 
576 EW2974 00:00:00:44 493200000411011.1
**
 
577 EW6674 00:00:00:44 450114000881019.5
**
 
578 EW2410 00:00:00:44 5200189000451017.3
**
 
579 EW7483 00:00:00:44 4435223001001007.0
**
 
580 DW8589 00:00:00:44 4000000.010.01991017.4
**
 
581 DW4869 00:00:00:44 4702170.22781019.9
**
 
582 EW5837 00:00:00:44 472128276000741019.2
**
 
583 EW6775 00:00:00:44 5371589000531004.1
**
 
584 EW9209 00:00:00:44 8379157000271010.6
**
 
585 EW9949 00:00:00:44 513827100.01069989.0
**
 
586 CW6875 00:00:00:44 491319287000601016.9
**
**
587 EW3579 00:00:00:44 460029200.170.17941012.0
**
 
588 FW1468 00:00:00:44 484771000481014.3  
589 Dw7854 00:00:00:44 6949184000371012.0
**
 
590 EW3332 00:00:00:44 50602590381015.0
**
 
591 EW6388 00:00:00:45 37242430.010.010.01891010.4
**
 
592 DW8098 00:00:00:45 609259044992.2
**
 
593 DW5508 00:00:00:45 5801354000511017.9
**
 
594 EW7321 00:00:00:45 672531500.010.01871011.4
**
 
595 EW4276 00:00:00:45 5458161000351012.3
**
 
596 DW0486 00:00:00:45 4538109000591016.7
**
 
597 DW3588 00:00:00:45 720357000661017.2
**
 
598 ew1845 00:00:00:45 8214180000271014.6
**
 
599 DW5542 00:00:00:45 6200119000561017.5
**
 
600 EW9755 00:00:00:45 668121570411015.7
**
 
601 DW0496 00:00:00:45 4917239000561012.2
**
 
602 FW0314 00:00:00:45 4741518000.240901017.4
**
 
603 CW5776 00:00:00:45 5671126700061994.9
**
 
604 DW7213 00:00:00:45 583421000088
**
 
605 CW0965 00:00:00:45 71557331000311001.4
**
 
606 CW9699 00:00:00:45 5302284000431016.9
**
 
607 DW8369 00:00:00:46 000000011011.3
**
 
608 EW3848 00:00:00:46 4471326100.120521014.0
**
 
609 DW4909 00:00:00:46 6127332000421015.3
**
 
610 DW6569 00:00:00:46 5713246000491013.5
**
 
611 DW5671 00:00:00:46 560520400.34421015.5
**
 
612 EW3207 00:00:00:46 5402249000521012.0
**
 
613 EW0275 00:00:00:46 5271227300.010.01371011.3
**
 
614 FW0929 00:00:00:46 605238200048999.7  
615 CW2849 00:00:00:46 4262130.05681025.2
**
 
616 EW0632 00:00:00:46 6469219000441009.7
**
 
617 FW1674 00:00:00:46 72612225000191015.3  
618 EW2683 00:00:00:46 74720162000631012.7
**
 
619 CW6012 00:00:00:47 6815232000411015.3
**
 
620 EW7924 00:00:00:47 56714197000371012.7
**
 
621 EW0625 00:00:00:47 5039216000531005.8
**
 
622 CW7587 00:00:00:47 6482020500046996.3
**
 
623 CW6734 00:00:00:47 52210267000331013.1
**
 
624 EW5949 00:00:00:47 571520199000521004.6  
625 EW4291 00:00:00:47 44042100.020.060.0590991.6
**
 
626 EW8744 00:00:00:47 75715220000321010.7
**
 
627 EW8787 00:00:00:47 500621000551015.1
**
 
628 DW4544 00:00:00:47 480031500.56981010.7
**
 
629 DW6471 00:00:00:47 6713342000441014.9
**
 
630 FW0349 00:00:00:47 6303980461022.1  
631 DW9108 00:00:00:47 8503135000191013.0
**
 
632 DW8096 00:00:00:47 5911339049989.7
**
 
633 FW1405 00:00:00:47 6504142000821020.3
**
 
634 CW1141 00:00:00:47 6703305000721012.5
**
 
635 EW9434 00:00:00:47 54614180000361010.8
**
 
636 EW6588 00:00:00:48 591396000521015.2
**
 
637 EW2975 00:00:00:48 77816178000271012.1
**
 
638 CW3953 00:00:00:48 5992318700051999.3
**
 
639 EW0534 00:00:00:48 55310241000361012.5
**
 
640 EW7448 00:00:00:48 6938304000851010.2  
641 DW9169 00:00:00:48 451317500.530.52941010.8
**
 
642 CW4635 00:00:00:48 470031800.070931015.5
**
 
643 EW7969 00:00:00:48 461022205000611005.5
**
 
644 CW1324 00:00:00:48 6000158000911017.7
**
 
645 EW6229 00:00:00:48 332215700.030.03941016.6
**
 
646 DW4933 00:00:00:48 4949229000381013.9
**
 
647 EW9781 00:00:00:48 4504163000561012.8
**
 
648 EW3064 00:00:00:48 45043000.090601020.0
**
 
649 FW0301 00:00:00:48 560000060995.6
**
 
650 FW0466 00:00:00:48 6059136000361014.8  
651 EW8889 00:00:00:48 440022600.180.18941012.2  
652 EW4000 00:00:00:48 -10000000561002.8
**
**
653 FW1296 00:00:00:48 5531324800027995.8  
654 EW1730 00:00:00:48 751020302000201014.2
**
 
655 EW9985 00:00:00:48 7600165000391011.7
**
 
656 EW7146 00:00:00:49 360129200.03088933.4
**
 
657 EW5995 00:00:00:49 4858203000611015.6
**
 
658 CW3161 00:00:00:49 6615239000441017.4
**
 
659 EW1647 00:00:00:49 5061717300.010741019.8
**
 
660 DW7531 00:00:00:49 801583000281012.5
**
 
661 DW3008 00:00:00:49 4962030731015.9
**
 
662 DW7567 00:00:00:49 551626100.010.01411014.5
**
 
663 DW5078 00:00:00:49 72012840351008.2
**
 
664 EW0375 00:00:00:49 5903420651012.8
**
 
665 EW9725 00:00:00:49 5921159000471002.0
**
 
666 FW0798 00:00:00:49 6612196000411012.2  
667 EW8929 00:00:00:49 4902152000721018.2
**
 
668 FW1212 00:00:00:49 346105700.010.01861023.4  
669 DW3502 00:00:00:49 560028000971017.3
**
 
670 EW1854 00:00:00:49 8026134000171012.8
**
 
671 EW5549 00:00:00:50 421120284000561015.3
**
 
672 EW5291 00:00:00:50 4815161000391013.5
**
 
673 EW2435 00:00:00:50 6501270000421015.4
**
 
674 CW6152 00:00:00:50 5669180000511006.1
**
 
675 EW2261 00:00:00:50 6703195000651013.9
**
 
676 EW0539 00:00:00:50 741016326000151010.1
**
 
677 EW0157 00:00:00:50 5124234000401015.9
**
 
678 DW2659 00:00:00:50 6049193000521015.3
**
 
679 CW3794 00:00:00:50 780413900271015.4
**
**
680 EW0125 00:00:00:50 530487000371016.4
**
 
681 EW5820 00:00:00:50 58142029300060997.1
**
 
682 EW3562 00:00:00:50 6408267000251004.9
**
 
683 EW1417 00:00:00:50 53162412900064997.3
**
 
684 DW7647 00:00:00:50 4851522400081915.4
**
 
685 EW8768 00:00:00:50 68376000511014.1
**
 
686 CW9780 00:00:00:50 5018295000351014.3
**
 
687 EW9959 00:00:00:50 60358500058989.2
**
 
688 FW0346 00:00:00:50 423111950.040.170.15851009.8  
689 EW0214 00:00:00:50 7317132000381013.7
**
 
690 CW4290 00:00:00:50 6532230331012.2  
691 FW1139 00:00:00:50 49861015.1  
692 EW0494 00:00:00:50 5905309000531020.0
**
 
693 DW6435 00:00:00:51 5436234000431015.6
**
 
694 EW3001 00:00:00:51 812941320000191004.5
**
 
695 DW9162 00:00:00:51 6016254000581015.1
**
 
696 CW7559 00:00:00:51 5641027600061994.9
**
 
697 EW8124 00:00:00:51 50514230000501004.3
**
 
698 DW7144 00:00:00:51 3725212000851010.4
**
 
699 CW9274 00:00:00:51 385725600.050591007.6
**
**
700 DW5194 00:00:00:51 4711270000771021.0
**
 
701 EW2433 00:00:00:51 0001012.4
**
 
702 DW4332 00:00:00:51 5122240421014.8
**
 
703 DW8531 00:00:00:51 6727280000421007.4
**
 
704 EW0924 00:00:00:51 44179000571012.2
**
 
705 DW4128 00:00:00:51 4603470881018.7
**
 
706 EW9167 00:00:00:51 5324248000451014.3
**
 
707 DW5065 00:00:00:51 4506204000591012.0
**
 
708 FW0423 00:00:00:51 76410281000731011.0  
709 FW0620 00:00:00:51 6637122000171015.1  
710 DW0325 00:00:00:51 6308278000561016.4
**
 
711 DW1176 00:00:00:51 5007210000391011.7
**
 
712 DW7973 00:00:00:51 641101110891011.7  
713 FW1828 00:00:00:51 5816338000471016.5  
714 EW6358 00:00:00:52 6449186000591014.1
**
 
715 DW0611 00:00:00:52 5871584000451023.3
**
 
716 EW4729 00:00:00:52 73510201000341015.9
**
 
717 EW8528 00:00:00:52 4826319000491013.7
**
 
718 DW0358 00:00:00:52 6413600371015.4
**
 
719 DW2889 00:00:00:52 471915500.150.04971021.7
**
 
720 DW5540 00:00:00:52 6259133000781014.0
**
 
721 CW9637 00:00:00:52 52413215000431006.6
**
 
722 CW3699 00:00:00:52 5721320900056991.4
**
**
723 FW0864 00:00:00:52 6815313000751016.6
**
 
724 EW2944 00:00:00:52 53714180000321009.8
**
 
725 CW2399 00:00:00:53 5903221000381018.6
**
**
726 EW2294 00:00:00:53 7537166000291008.7
**
 
727 EW3363 00:00:00:53 532414000.010551017.6
**
 
728 CW1767 00:00:00:53 5301338000421016.5
**
 
729 CW3318 00:00:00:53 71111928700040998.3
**
 
730 EW7107 00:00:00:53 6425151000451014.7
**
 
731 EW6627 00:00:00:53 6925307000671012.3
**
 
732 EW5944 00:00:00:53 55001960001015.6
**
 
733 DW8529 00:00:00:53 4000180000951003.0
**
 
734 CW5040 00:00:00:53 641822310000251010.4
**
 
735 CW6129 00:00:00:53 650250000631018.8
**
 
736 EW6799 00:00:00:53 6702228000471017.0
**
 
737 DW5624 00:00:00:53 7103228000401015.3
**
 
738 DW7727 00:00:00:53 5901339000881011.2
**
 
739 DW8039 00:00:00:53 42003400.010.01831013.9
**
 
740 CW7674 00:00:00:53 440022800.210.21851010.6
**
 
741 DW4640 00:00:00:53 501383000611016.8
**
 
742 CW5329 00:00:00:53 448162350.040.060.06881019.5
**
 
743 EW4319 00:00:00:53 66412169000351005.7
**
 
744 CW6404 00:00:00:53 5116211000571014.9
**
 
745 EW0754 00:00:00:53 491528215000491008.1
**
 
746 DW6063 00:00:00:53 791331000191014.0  
747 FW1165 00:00:00:53 44101016.2  
748 FW1351 00:00:00:53 652630502.110.14831014.5  
749 DW0558 00:00:00:53 7700000351013.8
**
 
750 FW1423 00:00:00:53 69481011.1  
751 EW1468 00:00:00:54 7439250000311009.0
**
 
752 EW2047 00:00:00:54 62211222000311011.7
**
 
753 CW6353 00:00:00:54 6226231000621013.9
**
 
754 DW8421 00:00:00:54 5825294000491014.6
**
 
755 EW7939 00:00:00:54 71919199000351000.6
**
 
756 EW4986 00:00:00:54 6025205000371018.4
**
 
757 EW6966 00:00:00:54 71824209000311002.3  
758 DW1024 00:00:00:54 4900226000721016.0
**
 
759 EW0121 00:00:00:54 3600000.060.01941015.1
**
 
760 EW2677 00:00:00:54 55210181000411005.6
**
 
761 EW8485 00:00:00:54 7126148000351012.5
**
 
762 CW3075 00:00:00:54 0001013.0
**
 
763 CW5204 00:00:00:54 5559139000321014.4
**
**
764 CW3109 00:00:00:54 6200120000961018.1
**
**
765 EW3764 00:00:00:54 541362000421016.9
**
 
766 CW5699 00:00:00:54 6637238000331010.5
**
 
767 CW0527 00:00:00:54 530723600.430.08521014.8
**
 
768 EW6329 00:00:00:54 61151510391012.5
**
 
769 DW6448 00:00:00:54 531726199000601006.2
**
 
770 EW8087 00:00:00:54 7703264000351013.1
**
 
771 DW7259 00:00:00:54 8113214000291012.7
**
 
772 EW3244 00:00:00:54 3702136000951003.6
**
 
773 CW4177 00:00:00:54 58029300781018.2
**
**
774 EW5764 00:00:00:54 35792710.010.020.0131012.4
**
 
775 dw7888 00:00:00:54 541277000411016.5
**
 
776 CW4123 00:00:00:54 4013170.0191991.6
**
 
777 EW1744 00:00:00:54 4925245000551013.9
**
 
778 DW4559 00:00:00:54 5026237000421016.3  
779 EW6589 00:00:00:54 5147217000441011.5
**
 
780 FW1007 00:00:00:54 480150.240.320.32931013.2  
781 EW2997 00:00:00:54 57511176000231015.6
**
 
782 FW1123 00:00:00:54 6526198000261028.8
**
 
783 EW1211 00:00:00:54 76411340000311014.7
**
 
784 FW1843 00:00:00:54 4500248000421010.3  
785 DW7902 00:00:00:55 6423312000801018.4
**
 
786 CW8019 00:00:00:55 78915246000561010.7
**
**
787 EW6904 00:00:00:55 571332500.010.01481014.0
**
 
788 EW2167 00:00:00:55 54617218000411009.0
**
 
789 EW0043 00:00:00:55 71010000211013.4
**
 
790 EW0814 00:00:00:55 3836130000691012.2
**
 
791 ew4847 00:00:00:55 5951118800048998.3
**
 
792 DW8028 00:00:00:55 51513271000401010.0
**
 
793 DW1998 00:00:00:55 540026000491015.3
**
 
794 EW7118 00:00:00:55 72410173000341011.0
**
**
795 EW5858 00:00:00:55 59312234000471000.4
**
 
796 EW7133 00:00:00:55 4837245000461015.2
**
 
797 DW9239 00:00:00:55 390145000831011.3  
798 DW1449 00:00:00:55 404719500.150.12991005.8
**
**
799 CW2939 00:00:00:55 5901142000601020.7
**
**
800 DW0749 00:00:00:55 461611000.040821014.6
**
 
801 EW2334 00:00:00:55 55312196000431011.7
**
 
802 CW1456 00:00:00:55 45816500.12068952.3
**
 
803 EW4224 00:00:00:55 5971619300054999.9
**
 
804 EW2473 00:00:00:55 542818400.01010998.4
**
 
805 DW6901 00:00:00:55 7517109000501011.9
**
 
806 EW9574 00:00:00:55 620223500.010891017.3
**
 
807 EW4745 00:00:00:55 72310220000391014.8
**
 
808 EW7471 00:00:00:55 711018217000321009.8
**
 
809 FW0266 00:00:00:55 480614800.020.02321015.9  
810 CW8164 00:00:00:55 491618700.130.03931021.3
**
 
811 FW0664 00:00:00:55 6616293000101012.3
**
 
812 EW5769 00:00:00:55 671523297000251011.7
**
 
813 FW0990 00:00:00:55 56445500.130.13811018.6  
814 CW9451 00:00:00:55 50801014.5
**
 
815 FW1248 00:00:00:55 591782000241019.5  
816 FW1295 00:00:00:55 52821006.1  
817 DW1159 00:00:00:55 44000000631009.7
**
 
818 EW4324 00:00:00:55 4738186000541014.9
**
 
819 EW3754 00:00:00:55 5613118000491014.1  
820 DW0494 00:00:00:55 501243000831020.8
**
 
821 EW3429 00:00:00:55 430090000991020.6
**
 
822 EW4541 00:00:00:56 5201186000871013.9
**
 
823 EW1378 00:00:00:56 7026203000371005.0
**
 
824 EW6210 00:00:00:56 6771523600038985.4
**
 
825 EW4141 00:00:00:56 4348355000721015.1
**
 
826 EW0245 00:00:00:56 54241700.080.08851024.9
**
 
827 EW1923 00:00:00:56 51510199000451007.6
**
 
828 DW2380 00:00:00:56 424936000.060.06931003.9
**
 
829 DW9680 00:00:00:56 470367000981020.1
**
 
830 EW4128 00:00:00:56 61619137000461004.0
**
 
831 CW3319 00:00:00:56 5501312057996.0
**
 
832 CW8654 00:00:00:56 6861027400.010781012.5
**
 
833 EW5598 00:00:00:56 4212430691014.2
**
 
834 CW4199 00:00:00:56 6249197000341013.9
**
 
835 EW5048 00:00:00:56 4904250000421014.8
**
 
836 EW1272 00:00:00:56 5041020100.010421009.2
**
 
837 EW5974 00:00:00:56 310217000821006.8
**
 
838 CW9914 00:00:00:56 53001120.080.480.461001013.7
**
 
839 DW2786 00:00:00:56 5819132000261015.4
**
 
840 EW5409 00:00:00:56 6935270000421006.7
**
 
841 DW0861 00:00:00:56 715101080781015.7  
842 EW1314 00:00:00:56 57000000821023.3
**
 
843 EW3109 00:00:00:56 42920209000631014.8
**
 
844 DW0799 00:00:00:56 501018235000581006.5
**
 
845 CW8779 00:00:00:56 52818180000551005.5
**
 
846 FW0146 00:00:00:56 4136176000721029.8  
847 EW7353 00:00:00:56 580432300051983.8  
848 FW0644 00:00:00:56 29610278000921018.9
**
 
849 EW9084 00:00:00:56 52483410.060.310.28961017.4
**
**
850 FW0879 00:00:00:56 651538000591018.0  
851 CW2988 00:00:00:56 66192624100041994.0
**
 
852 CW2194 00:00:00:56 4861214500.020.02921017.0
**
 
853 EW0544 00:00:00:56 89232250131015.0
**
 
854 DW9059 00:00:00:56 4961311100.30791018.0
**
 
855 EW1924 00:00:00:56 47493800043960.0
**
 
856 FW1064 .   
857 EW4447 00:00:00:56 5224800.110.11911021.6
**
 
858 DW9796 00:00:00:57 7038239000381014.5
**
 
859 CW3077 00:00:00:57 72211199000361014.2
**
**
860 EW0892 00:00:00:57 5225186000461012.4
**
 
861 DW3512 00:00:00:57 5981821800.030.0252994.6
**
 
862 EW3047 00:00:00:57 7519317000241014.1
**
 
863 ew4347 00:00:00:57 4249239000631012.5
**
 
864 EW1802 00:00:00:57 51310232000361011.3
**
 
865 DW0677 00:00:00:57 511913600.070.01831021.4
**
 
866 CW0214 00:00:00:57 630018300.550.09761016.7
**
 
867 DW2394 00:00:00:57 3600294000931008.8
**
 
868 DW7379 00:00:00:57 4013500.020891013.0
**
**
869 DW2978 00:00:00:57 691027300.90211003.3
**
 
870 CW5324 00:00:00:57 49513190000411014.9  
871 EW0036 00:00:00:57 2914128000961024.4
**
 
872 EW5284 00:00:00:57 5902304000531014.6
**
 
873 EW3292 00:00:00:57 711765000331012.1
**
 
874 CW7104 00:00:00:57 59312218000441010.6
**
 
875 FW0298 00:00:00:57 541016213000581007.1  
876 FW0504 00:00:00:57 431410100.210.01741018.0  
877 EW8683 00:00:00:57
**
 
878 EW8558 00:00:00:57 460327500.070.07741010.8  
879 DW4924 00:00:00:57 65415195000451000.2  
880 EW6284 00:00:00:57 631321191000481000.6
**
 
881 DW8292 00:00:00:57 39121720000.080901020.5
**
 
882 FW1757 00:00:00:57 475928700.050.01901021.0  
883 CW9746 00:00:00:57 5837178000241014.0
**
 
884 EW4549 00:00:00:58 67131700.020871013.3
**
 
885 EW6751 00:00:00:58 51718201000531002.3
**
 
886 EW3727 00:00:00:58 3902203000831010.7
**
 
887 EW6328 00:00:00:58 540218100.20911021.5
**
 
888 CW3916 00:00:00:58 633614000301012.6
**
 
889 DW2819 00:00:00:58 430318800.130.13941006.0
**
 
890 DW0639 00:00:00:58 61411226000491015.2
**
 
891 CW1394 00:00:00:58 491521149000881015.9
**
**
892 DW8868 00:00:00:58 52000000441024.3
**
 
893 CW4740 00:00:00:58 7851226100.030691011.1
**
 
894 DW6554 00:00:00:58 4600000531016.5
**
 
895 EW0622 00:00:00:58 5814186000521014.9
**
 
896 EW9089 00:00:00:58 6069176000361019.1
**
 
897 EW3122 00:00:00:58 64132821200042994.0
**
 
898 EW1712 00:00:00:58 52613209000451011.8
**
 
899 EW3512 00:00:00:58 8225348000811019.2
**
 
900 EW8447 00:00:00:58 731115208000371107.1
**
 
901 FW0420 00:00:00:58 511021162000501004.1  
902 FW0861 00:00:00:58 523427900.010911022.2  
903 FW0475 00:00:00:58 5041213800069996.0  
904 EW4616 00:00:00:58 5181625900049
**
 
905 EW8968 00:00:00:58 5704131000451015.2
**
 
906 ew5948 00:00:00:58 5201114000191021.2
**
 
907 EW6002 00:00:00:58 54918145000361004.5
**
 
908 DW4678 00:00:00:59 45152280621016.5
**
 
909 EW6108 00:00:00:59 66311285000221005.9
**
 
910 CW4787 00:00:00:59 67813337000801018.4
**
 
911 CW0354 00:00:00:59 4858240000591018.1
**
**
912 CW5619 00:00:00:59 801386000181014.8
**
 
913 DW6119 00:00:00:59 470061000721020.0
**
 
914 EW3966 00:00:00:59 4251424700.020711005.3
**
 
915 EW0624 00:00:00:59 51001520.020.350.35991015.9
**
 
916 CW5091 00:00:00:59 632454000301024.7
**
**
917 DW5950 00:00:00:59 562721000.020761022.6
**
 
918 EW9080 00:00:00:59 562101000531000.2
**
 
919 DW8525 00:00:00:59 7381322211009.7
**
 
920 FW0844 00:00:00:59 5329337000411011.2  
921 DW6741 00:00:00:59 5700130000291011.1
**
 
922 DW7264 00:00:00:59 430021800.170821018.2
**
 
923 EW3067 00:00:00:59 731017191000291010.5
**
 
924 EW2169 00:00:00:60 3901780.02921014.1
**
 
925 EW5612 00:00:00:60 7227166000321014.4
**
 
926 DW8945 00:00:00:60 4827245000491013.3
**
 
927 EW5526 00:00:00:60 540035100.010751021.5
**
 
928 EW9360 00:00:00:60 462817800.030.01831017.6
**
 
929 CW0029 00:00:00:60 791116243000621010.7
**
 
930 EW0564 00:00:00:60 01014.6
**
 
931 FW0309 00:00:00:60 4702250501017.9  
932 DW6808 00:00:01:01 66000000611014.1
**
 
933 DW8295 00:00:01:01 4637178000621012.8
**
 
934 DW8722 00:00:01:01 7210111590311011.8
**
 
935 DW0200 00:00:01:01 471422216000651006.2
**
 
936 DW8671 00:00:01:01 59616190000571002.7
**
 
937 EW2230 00:00:01:01 48811217000441013.1
**
 
938 DW9994 00:00:01:01 451324700.240.24911011.1  
939 EW6686 00:00:01:01 51714194000481017.4
**
 
940 EW7984 00:00:01:01 482518700.050761018.0
**
 
941 EW8081 00:00:01:01 653830000911017.0
**
 
942 EW5493 00:00:01:01 54610148000381010.3
**
 
943 EW0986 00:00:01:01 560056000861021.4
**
 
944 FW0113 00:00:01:01 6223219000561016.3  
945 cw6735 00:00:01:01 6741228500046995.5
**
 
946 DW9446 00:00:01:01 7469218000331011.2
**
 
947 EW8459 00:00:01:02 4613213000571012.0
**
 
948 EW7199 00:00:01:02 553613900.010.01871018.8
**
 
949 CW7849 00:00:01:02 355615900.040.0191998.6
**
 
950 DW3746 00:00:01:02 46021190.010.090.07911016.7
**
 
951 DW9635 00:00:01:02 66154400.430.06631015.3
**
 
952 EW3608 00:00:01:02 691022246000211016.4
**
 
953 CW4054 00:00:01:03 5337196000381015.3
**
 
954 DW4839 00:00:01:03 4751940.08941021.6
**
 
955 DW5411 00:00:01:03 6316238000571014.3
**
 
956 CW0506 00:00:01:03 5001164000431014.5
**
 
957 DW4071 00:00:01:03 7023315000311017.0
**
**
958 EW7401 00:00:01:03 489129600.020881013.3
**
 
959 FW1272 00:00:01:03 6333147000531013.9
**
 
960 EW7923 00:00:01:03 5013257000421015.2
**
 
961 FW1482 00:00:01:03 65121828700043997.3
**
 
962 FW0960 00:00:01:03 50128000461016.6  
963 DW3636 00:00:01:03 7261233100.130.03781013.8  
964 EW5256 00:00:01:04 4516185000601013.7
**
 
965 DW6599 00:00:01:04 77510180000201010.1
**
 
966 DW5741 00:00:01:04 800175000351013.1
**
 
967 CW8688 00:00:01:04 8413243000271012.5
**
 
968 DW5544 00:00:01:04 842568000221013.9
**
 
969 EW2359 00:00:01:04 56612260000431009.2
**
 
970 EW1807 00:00:01:04 59244200.940.05581013.1
**
 
971 DW8824 00:00:01:04 772911500.060.06761016.0
**
 
972 EW3834 00:00:01:04 6702113000221010.4
**
 
973 EW6513 00:00:01:05 4827241000441013.6
**
 
974 EW0420 00:00:01:05 5423220461011.6
**
 
975 CW4038 00:00:01:05 7012146000561018.8
**
 
976 EW6553 00:00:01:05 7107199000351012.2
**
 
977 DW2935 00:00:01:05 41000591012.1
**
 
978 CW1712 00:00:01:05 5105242000401012.9
**
 
979 DW9755 00:00:01:05 480225000.040981021.9
**
 
980 FW1216 00:00:01:05 71715248000321008.6
**
 
981 FW1266 00:00:01:05 6721034800021965.9
**
 
982 dw9420 00:00:01:05 54211120201017.0
**
 
983 EW2425 00:00:01:06 399231770.110.20.287992.8
**
 
984 DW6747 00:00:01:06 5516349000391016.8
**
 
985 EW5833 00:00:01:06 5049218000551004.6
**
 
986 DW8188 00:00:01:06 46002930821015.7
**
 
987 DW3882 00:00:01:06 6014253000531014.5
**
 
988 EW0163 00:00:01:06 510517300.690.69931015.1
**
**
989 EW4609 00:00:01:06 6907221000401012.1
**
 
990 EW6618 00:00:01:06 791667000371012.7
**
 
991 DW6610 00:00:01:06 6049148000391014.0
**
 
992 DW1622 00:00:01:06 482818100.260.16931017.5
**
 
993 EW9210 00:00:01:06 723973000321012.0
**
 
994 DW0941 00:00:01:06 50410198000431012.9
**
 
995 DW0713 00:00:01:06 48142432000.040.04581010.4
**
 
996 EW4863 00:00:01:06 68123150791017.0
**
 
997 EW3500 00:00:01:06 7903314000221019.4
**
 
998 DW1387 00:00:01:06 50212518300058998.0
**
 
999 EW4775 00:00:01:06 4922010361013.1
**
 
1000 DW7184 00:00:01:07 462915900.20.01881017.4
**
 
1001 DW5707 00:00:01:07 5089210000401014.3
**
 
1002 CW6888 00:00:01:07 5024224000361014.9
**
**
1003 CW4042 00:00:01:07 7951228500.030641010.7
**
 
1004 EW8354 00:00:01:07 6300216000421018.8
**
 
1005 DW4572 00:00:01:07 320076000951012.0
**
 
1006 DW5744 00:00:01:07 6204150000401017.7
**
 
1007 EW4776 00:00:01:07 541120225000481008.2
**
 
1008 CW9953 00:00:01:07
**
 
1009 EW3000 00:00:01:07 5202259000391015.7
**
 
1010 FW1058 00:00:01:07 6314240000891019.7
**
 
1011 EW7460 00:00:01:08 5448173000431016.1
**
 
1012 DW6440 00:00:01:08 4926279000381014.7
**
 
1013 EW0765 00:00:01:08 4927160000491010.1
**
 
1014 EW0331 00:00:01:08 4000225000751009.7
**
 
1015 CW7443 00:00:01:08 52210224000331008.2
**
**
1016 EW4100 00:00:01:08 49133017800.360781020.0
**
 
1017 EW7041 00:00:01:08 6203171000931018.1
**
 
1018 DW5846 00:00:01:08 720028400035997.5
**
 
1019 DW7349 00:00:01:08 6701130361014.7
**
 
1020 EW5854 00:00:01:08 410393000691012.6
**
 
1021 FW1073 00:00:01:08 8809194000391015.7
**
 
1022 FW1084 00:00:01:08 4891370581014.8  
1023 DW5986 00:00:01:09 581251000441014.8
**
 
1024 EW5465 00:00:01:09 5026252000371014.7
**
 
1025 EW3732 00:00:01:09 402431300.460.05891020.0
**
 
1026 CW6839 00:00:01:09 51111209000391009.1
**
**
1027 DW3296 00:00:01:09 650319600.01811018.8
**
 
1028 EW7691 00:00:01:09 5938314000401015.4
**
 
1029 DW4273 00:00:01:09 5121022300421006.6
**
 
1030 CW7021 00:00:01:09 4952160.01891021.2
**
 
1031 CW2715 00:00:01:09 6500025837.1
**
 
1032 DW6512 00:00:01:09 8002940371012.9
**
 
1033 DW9627 00:00:01:09 456920000.060.01941020.8
**
 
1034 CW6769 00:00:01:09 4771416900.440811018.8  
1035 EW9741 00:00:01:09 54110217000371010.7
**
 
1036 DW4682 00:00:01:09 47773150.080.280911012.1
**
 
1037 DW5980 00:00:01:09 8426560.010.010.01781011.8
**
 
1038 EW3539 00:00:01:10 57129000.170.17871022.2  
1039 EW3303 00:00:01:10 4900000531012.4
**
 
1040 DW1980 00:00:01:10 5026265000431014.4
**
 
1041 DW8236 00:00:01:10 540434000069993.6
**
 
1042 EW5555 00:00:01:10 62141100.010.01871018.3
**
 
1043 EW9158 00:00:01:10 76613196000311003.7
**
 
1044 EW9454 00:00:01:10 45518180000621010.0
**
 
1045 FW1771 00:00:01:10 561634400.110.02971020.3  
1046 CW1136 00:00:01:10 430019300.030.03971003.2
**
**
1047 EW8144 00:00:01:11 38510920001001016.6
**
 
1048 EW1800 00:00:01:11 44000000771015.2
**
 
1049 EW4785 00:00:01:11 5714355000471015.7
**
 
1050 dw8394 00:00:01:11 3502135000901010.4
**
 
1051 EW9374 00:00:01:11 501316700.170.16471008.4
**
 
1052 EW9589 00:00:01:11 513789000351013.4
**
 
1053 EW8136 00:00:01:11 6571369000391000.1
**
 
1054 EW1852 00:00:01:11 7629207000311012.9
**
 
1055 EW3451 00:00:01:12 5418143000351012.7
**
 
1056 CW7637 00:00:01:12 4000194000651012.4
**
**
1057 DW5973 00:00:01:12 0001014.7
**
 
1058 DW8634 00:00:01:12 46172736000065932.5  
1059 CW6014 00:00:01:12 44000691013.8
**
 
1060 EW5677 00:00:01:12 4772280611015.0  
1061 EW5189 00:00:01:12 57310248000481002.7
**
 
1062 EW8213 00:00:01:12 610029900931018.9
**
 
1063 DW1734 00:00:01:12 4325180000501012.1
**
 
1064 EW4908 00:00:01:12 45162326900.010831027.3
**
 
1065 EW4778 00:00:01:12 76133800.170931008.9
**
 
1066 EW7422 00:00:01:12 5826281000391015.2
**
 
1067 CW4829 00:00:01:13 17293600.350.350.351009.8
**
 
1068 EW7349 00:00:01:13 54049200040998.6
**
 
1069 EW1044 00:00:01:13 701526220000341002.5
**
 
1070 EW1527 00:00:01:13 5001195000361017.3
**
 
1071 EW7063 00:00:01:13 53818200000421009.3
**
 
1072 EW3857 00:00:01:13 6156135000601015.5
**
 
1073 CW4218 00:00:01:13 61411178000391013.1
**
 
1074 DW6378 00:00:01:13 46410232000381013.0
**
 
1075 EW1116 00:00:01:13 681839353000321007.2
**
 
1076 CW8480 00:00:01:13 4315187000711008.1
**
 
1077 DW1029 00:00:01:13 7936330000641014.3
**
 
1078 CW0650 00:00:01:13 01001.6
**
 
1079 DW6479 00:00:01:13 6902000811014.0
**
 
1080 CW8935 00:00:01:13 650346000851015.8  
1081 CW3400 00:00:01:13 6310310381004.3
**
 
1082 EW2739 00:00:01:13 8302360000231013.0
**
 
1083 CW6770 00:00:01:13 4418250000581010.5
**
 
1084 FW1508 00:00:01:13 5051425900.030.02361009.8
**
 
1085 EW1275 00:00:01:13 6943330651014.8
**
 
1086 DW1544 00:00:01:13 7003186000441015.1
**
 
1087 CW5517 00:00:01:13 46815227000481010.1
**
 
1088 FW1003 00:00:01:13 570023000851020.9  
1089 DW0121 00:00:01:14 6326223000541016.7
**
 
1090 CW9436 00:00:01:14 4113253000801011.0
**
 
1091 CW8880 00:00:01:14 5961354000451017.7
**
 
1092 DW9404 00:00:01:14 46061580.040.20.01901017.6  
1093 DW2039 00:00:01:14 350024100.090921012.7
**
 
1094 CW8477 00:00:01:14 5122180481013.7
**
 
1095 EW1299 00:00:01:14 59020000561019.9
**
 
1096 EW6063 00:00:01:14 72610196000301008.1
**
 
1097 DW4490 00:00:01:14 510215600.070781019.2
**
 
1098 DW0383 00:00:01:14 3904241000731010.9
**
 
1099 DW7100 00:00:01:14 7200267000531013.0
**
 
1100 EW4405 00:00:01:14 7115246000361015.6
**
 
1101 dw9053 00:00:01:14 29003420881006.4
**
 
1102 EW9650 00:00:01:14 3400241000921005.6
**
 
1103 FW0941 00:00:01:14 6913205000391011.5
**
 
1104 FW0117 00:00:01:14 7914210000361013.0  
1105 DW5499 00:00:01:15 681124220000381000.9
**
 
1106 EW4758 00:00:01:15 650041000901012.5
**
 
1107 CW0799 00:00:01:15 5151014400.10901019.2
**
 
1108 EW5247 00:00:01:15 660134800.210.05691012.0
**
 
1109 EW2724 00:00:01:15 581282000491014.7
**
 
1110 CW1773 00:00:01:15 4026280000651009.9
**
**
1111 EW5822 00:00:01:15 77920252000311001.2
**
 
1112 EW6368 00:00:01:15 7905160000271012.1
**
 
1113 DW9982 00:00:01:15 70211274000341003.6
**
 
1114 EW1412 00:00:01:15 60132318900046975.1
**
 
1115 DW8397 00:00:01:15 42312203000651012.7
**
 
1116 EW9508 00:00:01:15 6291925000047997.6
**
 
1117 CW7925 00:00:01:15 71110248000301010.1
**
**
1118 FW0897 00:00:01:15 5026140000431015.1  
1119 DW7628 00:00:01:16 540019000.010.01701021.0
**
**
1120 EW7218 00:00:01:16 61311266000541013.3
**
 
1121 DW5256 00:00:01:16 8201343000261012.2
**
 
1122 DW9679 00:00:01:16 6100318000751019.1
**
 
1123 EW3374 00:00:01:16 5005160000931021.5
**
 
1124 EW0641 00:00:01:16 50517192000511006.8
**
 
1125 EW9020 00:00:01:16 5100225000421042.2
**
 
1126 EW9700 00:00:01:16 630010500.010601020.7
**
 
1127 DW7426 00:00:01:16 42132580.050.050.05841013.4  
1128 CW2664 00:00:01:16 4911020900.430.21941021.2
**
 
1129 EW4335 00:00:01:16 166135000951010.6
**
 
1130 EW1045 00:00:01:16 49613117000611016.3
**
 
1131 EW6018 00:00:01:17 53513231000371010.7
**
 
1132 EW4090 00:00:01:17 71613172000531014.7
**
 
1133 DW9306 00:00:01:17 480327100.40.03891022.5
**
 
1134 DW9542 00:00:01:17 45815213000661015.1
**
 
1135 EW1002 00:00:01:17 51112215000321009.0
**
 
1136 EW3182 00:00:01:17 7215221000341011.2
**
 
1137 EW4106 00:00:01:17 6814147000221014.4
**
 
1138 EW2851 00:00:01:17 71712313000191015.9
**
 
1139 EW3008 00:00:01:17 6881600024741.0
**
 
1140 EW9762 00:00:01:17 506935000601016.3
**
 
1141 EW3570 00:00:01:17 50000000681013.5
**
 
1142 DW9834 00:00:01:17 01013.0
**
 
1143 FW1298 00:00:01:17 62613347000451013.1
**
 
1144 FW1710 00:00:01:17 6512198000941018.2  
1145 EW6964 00:00:01:18 7122990351005.7
**
 
1146 EW3705 00:00:01:18 7551426800.10711011.5
**
 
1147 DW1894 00:00:01:18 4402850.02901021.9
**
 
1148 EW6051 00:00:01:18 373631800.010.01891011.0
**
 
1149 EW1889 00:00:01:18 6206226000301016.6
**
 
1150 CW2820 00:00:01:18 470.02811013.5
**
 
1151 CW9663 00:00:01:18 531721205000571006.4
**
**
1152 EW7132 00:00:01:18 4410195300.240531004.5
**
 
1153 EW9828 00:00:01:18 5314275000451015.9
**
 
1154 DW5632 00:00:01:18 66013260000461012.8
**
 
1155 EW7221 00:00:01:18 8441224000571004.0
**
 
1156 EW0370 00:00:01:18 78412147000291004.3
**
 
1157 FW1476 00:00:01:18 6451633000045998.1
**
 
1158 EW7824 00:00:01:18 7028152000361005.8
**
 
1159 DW2905 00:00:01:18 01021.4
**
 
1160 DW9054 00:00:01:19 4839173000361015.7
**
 
1161 EW3623 00:00:01:19 581120196000511001.2
**
 
1162 DW4064 00:00:01:19 8801217000231014.2
**
 
1163 DW8043 00:00:01:19 52101921100581005.5
**
 
1164 CW2522 00:00:01:19 4537188000501013.8
**
**
1165 CW6803 00:00:01:19 40111917900.010.0189998.1
**
 
1166 EW3797 00:00:01:19 5113212000491016.2
**
 
1167 EW8466 00:00:01:19 511791000451015.1
**
 
1168 DW8632 00:00:01:19 47182429000.030.03691002.1
**
 
1169 FW0018 00:00:01:19 414131610.060.20.263995.3  
1170 FW0287 00:00:01:19 6301320000421025.7
**
 
1171 FW0825 00:00:01:19 55132318800059998.9
**
 
1172 EW2862 00:00:01:19 69411157000371005.4
**
 
1173 EW5365 00:00:01:19 6714119000331018.7
**
 
1174 FW1130 00:00:01:19 4713620.040.710.13931016.2  
1175 EW7943 00:00:01:19 75713339000471011.7
**
 
1176 FW1703 00:00:01:19 5305159000341015.7  
1177 CW5391 00:00:01:19 4651227000491011.4
**
 
1178 CW6387 00:00:01:19 5262090491008.3
**
 
1179 EW7946 00:00:01:20 4900255000941022.0
**
 
1180 EW7656 00:00:01:20 6700232000361014.0
**
 
1181 EW7957 00:00:01:20 39035100851010.1
**
 
1182 DW3845 00:00:01:20 8203271000291012.0  
1183 EW3172 00:00:01:20 7506334000181014.2
**
 
1184 CW3884 00:00:01:20 6403200000811019.5
**
 
1185 EW9977 00:00:01:20 471429600.110.05991022.5
**
 
1186 EW9654 00:00:01:20 54917234000181009.2
**
 
1187 EW3389 00:00:01:20 7172360001006.2
**
 
1188 EW5263 00:00:01:20 33000000971003.9
**
 
1189 CW5711 00:00:01:20 530182
**
 
1190 FW1273 00:00:01:20 50718161000521006.1  
1191 CW3261 00:00:01:20 4103600.14881016.3
**
 
1192 FW1522 00:00:01:20 47710188000471024.3  
1193 DW8470 00:00:01:20 604826800035
**
**
1194 CW1177 00:00:01:20 5726345000471021.4  
1195 EW9065 00:00:01:20 4604188000571008.9
**
 
1196 EW0538 00:00:01:21 420035400.010.01701018.7
**
 
1197 EW4943 00:00:01:21 4337238000561013.3
**
 
1198 DW2537 00:00:01:21 5217206000451016.9
**
 
1199 CW7706 00:00:01:21 7648190000161020.1
**
 
1200 CW9417 00:00:01:21 400026100.090.09891011.3
**
 
1201 DW8567 00:00:01:21 52410188000511012.9  
1202 EW5754 00:00:01:21 62112624300045997.1
**
 
1203 DW3243 00:00:01:21 4851011700.140.02831015.8
**
 
1204 CW0288 00:00:01:21 4771227300088994.1
**
**
1205 CW8878 00:00:01:21 6014146000761020.4
**
 
1206 CW6451 00:00:01:21 49512179000561014.7
**
 
1207 CW2978 00:00:01:21 6501264000831018.2
**
**
1208 DW4699 00:00:01:21 5304184000431014.0
**
 
1209 EW4565 00:00:01:21 380120401.220911010.7
**
 
1210 CW8285 00:00:01:21 590025700.010.01401010.8
**
 
1211 CW6975 00:00:01:21 482415000.180.01931018.7
**
 
1212 DW8219 00:00:01:21 4948242000381013.9
**
**
1213 EW7806 00:00:01:21 410111000.070.07821011.1
**
 
1214 CW0234 00:00:01:21 6402128000791018.9
**
 
1215 EW8881 00:00:01:21 7415213000321011.0
**
 
1216 EW9978 00:00:01:21 7800033-0.1
**
 
1217 CW8420 00:00:01:21 7913111000171019.8
**
 
1218 FW0378 00:00:01:21 581019235000561003.7  
1219 EW2957 00:00:01:21 5071312600.010791017.5
**
 
1220 EW1853 00:00:01:21 3148315090982.7
**
 
1221 DW3385 00:00:01:21 5106227000341016.0
**
 
1222 EW6321 00:00:01:22 8235186000281013.5
**
 
1223 DW5010 00:00:01:22 5951822100048997.3
**
 
1224 EW1851 00:00:01:22 513619800034
**
 
1225 EW0956 00:00:01:22 6292031500055998.8
**
 
1226 CW2220 00:00:01:22 6324262000321016.0
**
 
1227 dw6469 00:00:01:22 42082570711012.6
**
 
1228 DW2453 00:00:01:22 63043400331010.5
**
 
1229 FW0267 00:00:01:22 5405152000341016.9
**
 
1230 EW9116 00:00:01:22 503723200078994.1
**
 
1231 DW6168 00:00:01:22 57217329000261016.8
**
 
1232 EW0284 00:00:01:22 56612221000391011.1
**
 
1233 EW2966 00:00:01:23 7323135000321016.4
**
 
1234 EW4574 00:00:01:23 551318800046
**
 
1235 DW5684 00:00:01:23 71817146000321006.0
**
 
1236 EW2886 00:00:01:23 5249128000411009.1
**
 
1237 CW1697 00:00:01:23 544845000551003.8
**
 
1238 DW7451 00:00:01:23 594823000050993.0
**
 
1239 EW1735 00:00:01:23 470012300.110.04921020.4
**
 
1240 EW8001 00:00:01:23 5239167000411016.2
**
 
1241 EW7586 00:00:01:23 520245000511016.9
**
 
1242 EW5071 00:00:01:23 540029900.310931013.4
**
 
1243 EW8115 00:00:01:23 7028167000631013.4
**
 
1244 DW4997 00:00:01:23 521528287000391011.5
**
 
1245 EW5808 00:00:01:23 602389000421019.6
**
 
1246 CW8209 00:00:01:23 451830139000701001.6
**
 
1247 FW1339 00:00:01:23 6113142000521005.3  
1248 FW1809 00:00:01:23 4727147000431017.9
**
 
1249 EW5463 00:00:01:24 760023200020908.0
**
 
1250 EW6810 00:00:01:24 43161750.020.120.11951014.3
**
 
1251 DW3926 00:00:01:24 7327195000341010.8
**
 
1252 EW0098 00:00:01:24 0232500.230.151012.1
**
 
1253 EW6252 00:00:01:24 7149237000371014.4
**
 
1254 EW2345 00:00:01:24 563122810.061.210.86951016.8
**
 
1255 DW7261 00:00:01:24 8024259000291013.1
**
 
1256 CW0877 00:00:01:24 550035000381014.9
**
 
1257 EW4862 00:00:01:24 5801238000361012.5
**
 
1258 EW0607 00:00:01:24 6502960381013.6
**
 
1259 DW5664 00:00:01:24 54152520000.01058995.7
**
 
1260 DW6334 00:00:01:24 6606298000571016.3
**
 
1261 DW8500 00:00:01:24 4817121000541013.8
**
 
1262 EW8703 00:00:01:24 7411172500019921.0
**
 
1263 CW0028 00:00:01:24 50510272000491015.8
**
 
1264 CW3083 00:00:01:24 4712260391015.9
**
 
1265 EW4661 00:00:01:24 53514229000441010.7
**
**
1266 EW2649 00:00:01:24 6600232000771019.3
**
 
1267 FW1370 00:00:01:24 5127255000331015.6
**
 
1268 DW8027 00:00:01:24 6201232000651014.4
**
 
1269 EW5068 00:00:01:24 37004500571027.7
**
 
1270 EW1796 00:00:01:24 5921780301007.1
**
 
1271 DW0775 00:00:01:25 55122340531001.5
**
 
1272 DW8818 00:00:01:25 49156500.480.25941021.7
**
 
1273 CW4416 00:00:01:25 68484100.040.04781012.7
**
 
1274 DW0866 00:00:01:25 550114400.310.03941020.7
**
 
1275 CW5008 00:00:01:25 551115171000561008.4
**
**
1276 DW4140 00:00:01:25 8300000241012.1
**
 
1277 EW6813 00:00:01:25 74133027800026998.9
**
 
1278 EW7265 00:00:01:25 5046104000471017.6
**
 
1279 EW4118 00:00:01:25 613920400049999.4
**
 
1280 FW0063 00:00:01:25 7923248000341015.2  
1281 FW0209 00:00:01:25 4300126000851025.9
**
 
1282 EW3639 00:00:01:25 5001222500361011.5
**
 
1283 FW0701 00:00:01:25 6800184000391014.5  
1284 DW4377 00:00:01:25 506918300043970.2
**
 
1285 EW0345 00:00:01:25 4400169000591013.0
**
 
1286 DW8593 00:00:01:25 410015800831013.7
**
 
1287 EW6950 00:00:01:26 470032000.320.17961011.1
**
 
1288 EW5369 00:00:01:26 631715000631015.2
**
 
1289 EW5308 00:00:01:26 411216000.180.18891011.5  
1290 EW5814 00:00:01:26 7713302000231017.6
**
 
1291 DW7730 00:00:01:26 5723356000581015.9
**
 
1292 DW3163 00:00:01:26 3700000881012.9
**
 
1293 DW9354 00:00:01:26 510361000501016.0
**
 
1294 DW1105 00:00:01:26 4803050411014.3
**
 
1295 EW0637 00:00:01:26 6424340000571014.5
**
 
1296 DW4221 00:00:01:26 39042730.010.090.0996992.8
**
 
1297 CW5363 00:00:01:26 5815181000421013.8
**
**
1298 DW1582 00:00:01:26 7961227800.010681010.7
**
 
1299 EW6168 .
**
 
1300 DW1862 00:00:01:26 5951024800055986.8  
1301 FW1312 00:00:01:26 70513226000331014.1  
1302 DW8201 00:00:01:27 420028700.250.25951011.5
**
 
1303 DW0392 00:00:01:27 6405156000551016.4
**
 
1304 EW5175 00:00:01:27 561521315000491005.6
**
 
1305 EW5490 00:00:01:27 66019153000571019.5
**
 
1306 EW2318 00:00:01:27 37512263000991017.9
**
 
1307 CW6342 00:00:01:27 44814230000601012.6
**
 
1308 EW2959 00:00:01:27 6913104000381015.6
**
 
1309 CW8288 00:00:01:27 6469330000411018.6
**
 
1310 DW0742 00:00:01:27 7701141000471013.7
**
 
1311 EW6624 00:00:01:27 581621193000521003.8  
1312 CW6788 00:00:01:27 6591924500044995.1
**
 
1313 EW5593 00:00:01:27 5805209000401012.9
**
 
1314 DW1918 00:00:01:27 701222282000341000.4
**
 
1315 DW9522 00:00:01:27 52162221500.10621019.7
**
 
1316 DW8116 00:00:01:27 563518600.010501001.4
**
 
1317 EW1465 00:00:01:27 4400000571013.7
**
 
1318 FW0283 00:00:01:27 62311126000451002.9  
1319 FW0454 00:00:01:27 331217800.040.01931009.6
**
 
1320 FW0709 00:00:01:27 3791420700.040.02941000.5  
1321 FW1247 00:00:01:27 422825000.050.05931008.0  
1322 EW5586 00:00:01:27 451928327000731008.3
**
 
1323 FW1481 00:00:01:27 64142130800044994.6
**
 
1324 EW0747 00:00:01:27 400011800.310.28951005.8
**
 
1325 EW4589 00:00:01:28 5903111000351016.1
**
 
1326 EW4699 00:00:01:28 321517200088999.4
**
 
1327 DW4641 00:00:01:28 4727189000531014.1
**
 
1328 DW5056 00:00:01:28 45122150.161.970.39941012.2
**
 
1329 CW8838 00:00:01:28 5158203000391015.8
**
**
1330 DW8454 00:00:01:28 53917174000421009.2
**
 
1331 DW7103 00:00:01:28 4861760771019.1
**
 
1332 DW5714 00:00:01:28 4619117000441016.6
**
 
1333 EW2835 00:00:01:28 440024400.050.05951011.7
**
 
1334 EW2932 00:00:01:28 6300169000851019.4
**
 
1335 EW3156 00:00:01:28 6300261000601014.8
**
 
1336 DW7110 00:00:01:28 5204133000461018.2
**
 
1337 EW2723 00:00:01:28 6514226000541012.8
**
 
1338 CW6682 00:00:01:28 75250231013.4
**
 
1339 DW0655 00:00:01:28 5136245000461012.8  
1340 DW4414 00:00:01:28 8426355000321013.8
**
 
1341 DW0798 00:00:01:28 51820225000561006.9
**
 
1342 EW5683 00:00:01:28 5500257000511013.7
**
 
1343 CW5449 00:00:01:28 571150271037.5
**
**
1344 FW1243 00:00:01:28 59511298000281019.5
**
 
1345 EW6393 00:00:01:28 5916328000441018.3
**
 
1346 DW1417 00:00:01:28 01014.4
**
 
1347 EW4881 00:00:00:00 5251022700.010.01351010.4
**
 
1348 CW5212 00:00:01:29 40122323900.280.27100999.4
**
 
1349 DW3384 00:00:01:29 7214287000291001.4
**
 
1350 DW6763 00:00:01:29 7137211000371014.6
**
 
1351 EW5423 00:00:01:29 8323302000141016.0
**
 
1352 CW6490 00:00:01:29 760165000241014.3
**
**
1353 CW6499 00:00:01:29 7623265000501011.2
**
 
1354 CW0052 00:00:01:29 4338188000581011.2
**
 
1355 DW9300 00:00:01:29 5751134200061995.2
**
 
1356 EW7996 00:00:01:29 530875000421011.2
**
 
1357 DW4711 00:00:01:29 650280351015.8
**
 
1358 DW5910 00:00:01:29 56590311013.8
**
 
1359 EW6701 00:00:01:29 4751215000.090.04981020.3
**
 
1360 EW1714 00:00:01:29 5037209000511013.5
**
 
1361 DW2107 00:00:01:29 562325079854.4  
1362 EW8816 00:00:01:29 4325225000591013.9  
1363 EW9060 00:00:01:29 6313170.01851018.3
**
 
1364 EW4887 00:00:01:29 70717154000331005.8  
1365 CW2099 00:00:01:29 523623200062984.9
**
 
1366 DW1574 00:00:01:29 5311203000391016.0
**
 
1367 EW9778 00:00:01:29 6925172000361015.3
**
 
1368 EW9240 00:00:01:29 522610800.170831020.4
**
 
1369 FW0322 00:00:01:29 6448273000271012.1  
1370 FW0381 00:00:01:29 841696000221015.0  
1371 FW0452 00:00:01:29 50246800011018.1  
1372 CW1428 00:00:01:29 400153055769.3
**
 
1373 DW3707 00:00:01:29 59192530321013.0
**
 
1374 EW3102 00:00:01:29 6600252000691019.3
**
**
1375 FW1451 00:00:01:29 54815236000491022.1
**
 
1376 DW6462 00:00:01:29 5847222000471011.3
**
 
1377 EW7991 00:00:01:29 582440000561014.6
**
 
1378 DW1282 00:00:01:30 39610288000691010.8
**
**
1379 DW1875 00:00:01:30 42342200891006.9
**
 
1380 EW2663 00:00:01:30 5817126000261015.9
**
 
1381 DW7199 00:00:01:30 6037177000431012.7
**
 
1382 DW6835 00:00:01:30 670018300.010.01801018.6
**
 
1383 DW0110 00:00:01:30 5218263000421009.1
**
 
1384 EW5980 00:00:01:30 620000321013.6
**
 
1385 CW7364 00:00:01:30 7706167000281010.2
**
 
1386 DW2227 00:00:01:30 6951218000041997.3
**
 
1387 DW3152 00:00:01:30 3851416000079999.0
**
 
1388 CW7701 00:00:01:30 86411118000411012.4
**
 
1389 CW9478 00:00:01:30 7261091000631015.7
**
 
1390 DW8373 00:00:01:30 76614162000301013.5
**
 
1391 DW9572 00:00:01:30 501016184000671017.7
**
 
1392 DW6810 00:00:01:30 7300111000331013.4
**
 
1393 EW9904 00:00:01:30 5114257000431016.3
**
 
1394 CW7644 00:00:01:30 330027500078999.2
**
 
1395 FW0584 00:00:01:30 55027900.010.01871017.2
**
 
1396 EW7291 00:00:01:30 6312266000861018.1
**
 
1397 DW2550 00:00:01:30 5524180000531014.3
**
 
1398 FW1831 00:00:01:30 4301261000821021.5
**
 
1399 CW4713 00:00:01:31 156860000801002.5
**
**
1400 CW6043 00:00:01:31 737817200251010.3
**
 
1401 DW8545 00:00:01:31 5400250000391020.6
**
 
1402 DW0282 00:00:01:31 5416173000441015.0
**
 
1403 CW0562 00:00:01:31 5017253000411014.0
**
 
1404 DW8656 00:00:01:31 2571436000.40971014.8
**
 
1405 DW6936 00:00:01:31 48611163000851016.5
**
 
1406 CW0493 00:00:01:31 461321300.090.02971022.1
**
 
1407 FW0717 00:00:01:31 6923236000281015.1
**
 
1408 FW0769 00:00:01:31 581522193000481012.9  
1409 EW8027 00:00:01:31 6205330000581015.3
**
 
1410 FW1506 00:00:01:31 423833700.10.186995.2
**
 
1411 FW1696 00:00:01:31 511427800.130.11781019.0  
1412 EW6263 00:00:01:31 640231500.010.01831018.6
**
 
1413 FW1207 00:00:01:31 67662430321010.5  
1414 EW5847 00:00:01:32 4729190000601012.1
**
 
1415 EW7707 00:00:01:32 74819317000341000.8
**
 
1416 DW8759 00:00:01:32 6603108000641013.1  
1417 CW7400 00:00:01:32 5908231000311016.8
**
 
1418 DW3319 00:00:01:32 6426156000381015.5
**
 
1419 EW8187 00:00:01:32 7914178000271014.9
**
 
1420 EW0908 00:00:01:32 57000000891019.6
**
**
1421 CW1987 00:00:01:32 52514249000401010.9  
1422 EW1133 00:00:01:32 491424700.050.01921021.4
**
 
1423 EW5077 00:00:01:32 5726285000561013.5
**
 
1424 EW3916 00:00:01:32 0979.8
**
 
1425 EW5024 00:00:01:32 43025000791022.9
**
 
1426 EW7414 00:00:01:32 5029278000331012.7
**
 
1427 EW5004 00:00:01:32 5111219600.440.28431009.5
**
 
1428 CW5139 00:00:01:32 5439185000351011.1
**
 
1429 EW3393 00:00:01:32 8500196000181012.7
**
 
1430 DW3403 00:00:01:32 4808268000521013.5
**
 
1431 CW0464 00:00:01:32 67718293000311028.0
**
 
1432 FW0103 00:00:01:32 550019800.080.02771018.8
**
 
1433 EW5306 00:00:01:32 5513292000521035.3
**
 
1434 FW0461 00:00:01:32 561529000381015.6  
1435 EW3786 00:00:01:32 2951213300089987.9
**
 
1436 EW2895 00:00:01:32 5426207000391007.7
**
 
1437 EW9855 00:00:01:32 49251200.90.01971021.9
**
 
1438 EW8186 00:00:01:32 69521166000331004.6
**
 
1439 CW6097 00:00:01:33 5457131000561014.1
**
 
1440 EW2309 00:00:01:33 592551000551015.4
**
 
1441 CW2717 00:00:01:33 53616291000301004.0  
1442 EW4809 00:00:01:33 55412235000351012.5
**
 
1443 EW4534 00:00:01:33 561323293000551005.6
**
 
1444 DW7588 00:00:01:33 4513347000641011.9  
1445 EW7305 00:00:01:33 4991418200.010.01431008.8
**
 
1446 EW7741 00:00:01:33 6603271000811019.1
**
 
1447 EW6602 00:00:01:33 5428360000391015.8
**
 
1448 DW0687 00:00:01:33 631628346000461000.9
**
 
1449 FW0111 00:00:01:33 521832269000391005.5
**
 
1450 FW0669 00:00:01:33 6613500.010.01911013.5
**
 
1451 DW5199 00:00:01:33 803927500.090631011.8
**
 
1452 CW0681 00:00:01:34 531522230000601002.3
**
 
1453 EW8411 00:00:01:34 69130000741013.2
**
 
1454 DW3228 00:00:01:34 6300000.210.02931012.9
**
 
1455 DW6111 00:00:01:34 3503940.070.140.13941011.7
**
 
1456 CW7445 00:00:01:34 7958103000281014.2
**
**
1457 DW5338 00:00:01:34 5313232920371013.0
**
 
1458 EW0698 00:00:01:34 6123198000441014.0
**
 
1459 EW8621 00:00:01:34 4100254000.17971009.5
**
**
1460 EW5038 00:00:01:34 6335135000861017.6
**
 
1461 DW0108 00:00:01:34 7451218200281012.5
**
 
1462 DW0723 00:00:01:34 6261120000048991.6
**
 
1463 EW4176 00:00:01:34 6251420300044998.7
**
 
1464 EW3669 00:00:01:34 4400.280.28871011.0
**
 
1465 FW1394 00:00:01:34 48159700.080751018.1  
1466 EW6093 00:00:01:34 71612221000411014.9
**
 
1467 DW4092 00:00:01:35 5341370351014.0
**
 
1468 DW5796 00:00:01:35 4600341000901011.5
**
 
1469 EW8295 00:00:01:35 4825248000531015.3
**
 
1470 CW2274 00:00:01:35 7946135000161016.3
**
 
1471 DW3929 00:00:01:35 73412337000311014.5
**
 
1472 EW7513 00:00:01:35 600134500.010.01861018.8
**
 
1473 DW1869 00:00:01:35 5602223000351018.8
**
 
1474 DW0648 00:00:01:35 42313198000591007.8
**
 
1475 DW3099 00:00:01:35 628277050994.6
**
 
1476 EW7042 00:00:01:35 6001186000341015.8
**
 
1477 EW5824 00:00:01:35 674926000201011.3
**
 
1478 EW1986 00:00:01:35 5337193000391010.6
**
 
1479 FW0262 00:00:01:35 4312324062985.2  
1480 CW7030 00:00:01:35 5138262000391016.3
**
 
1481 EW0200 00:00:01:35 6051520400051993.1
**
 
1482 FW1419 00:00:01:35 8213319000231015.2
**
 
1483 DW6248 00:00:01:35 390114800.130.13851013.9
**
 
1484 DW4891 00:00:01:36 31760.241016.0
**
 
1485 EW3241 00:00:01:36 85032740251014.5
**
 
1486 EW6868 00:00:01:36 3691424000.010.01841011.3  
1487 DW7732 00:00:01:36 7137219000311004.3
**
 
1488 EW0802 00:00:01:36 7129144000351010.4
**
 
1489 FW0247 00:00:01:36 651313800.010.01841020.6  
1490 EW3796 00:00:01:36 485927000791018.2
**
 
1491 FW0600 00:00:01:36 6400226000891015.6  
1492 DW2938 00:00:01:36 530616000.040.03311014.1
**
 
1493 DW7346 00:00:01:36 7417127000331010.9
**
 
1494 CW9798 00:00:01:36 60000000421005.4
**
 
1495 EW8280 00:00:01:36 55718169000491002.4
**
 
1496 FW1416 00:00:01:36 4814900.010461011.9
**
 
1497 FW1234 00:00:01:36 58415113000501000.6
**
 
1498 FW1647 00:00:01:36 39810267000571004.4
**
 
1499 EW4529 00:00:01:36 5218123000371017.5
**
 
1500 CW9120 00:00:01:36 700000046997.6
**
 
1501 CW3179 00:00:01:36 4052430261003.2
**
 
1502 DW3801 00:00:01:37 761970471013.0
**
 
1503 DW4466 00:00:01:37 5551850331014.8
**
**
1504 EW2960 00:00:01:37 52311202000381011.2
**
 
1505 EW4983 00:00:01:37 711424216000351005.6
**
 
1506 CW0060 00:00:01:37 53813200000851011.1
**
**
1507 CW8466 00:00:01:37 7531910351006.8
**
 
1508 EW5925 00:00:01:37 6404200000921014.8
**
 
1509 DW0860 00:00:01:37 0001013.7
**
 
1510 DW9809 00:00:01:37 52716255000531007.0
**
 
1511 EW8393 00:00:01:37 671229200.020.02891011.2  
1512 CW1828 00:00:01:37 7713332000201017.8
**
 
1513 CW7662 00:00:01:37 691619500046999.0
**
 
1514 DW6575 00:00:01:37 6702240000771018.0
**
 
1515 EW7356 00:00:01:37 4013291000641014.8
**
 
1516 DW4611 00:00:01:37 4600148000851019.8
**
 
1517 EW3598 00:00:01:37 55010222000401011.9
**
 
1518 EW0269 00:00:01:37 5821217700052996.8
**
 
1519 EW5716 00:00:01:37 44414209000611010.7
**
 
1520 EW5928 00:00:01:37 51714190000551005.4
**
 
1521 FW0127 00:00:01:37 542757000421016.9  
1522 EW9919 00:00:01:37 8756180000331008.5
**
 
1523 EW5287 00:00:01:37 45002460.010.140.14911013.2
**
 
1524 DW1811 00:00:01:37 46002280001001020.6
**
 
1525 CW2463 00:00:01:37 6602079000201010.6
**
 
1526 CW8103 00:00:01:37 643697000761014.0
**
 
1527 ew8298 00:00:01:37 8303198000221016.6
**
 
1528 EW0298 00:00:01:37 490000.140.06961012.3
**
 
1529 DW5329 00:00:01:37 751119270000111020.1  
1530 DW4859 00:00:01:38 4782250761018.6
**
 
1531 DW6857 00:00:01:38 520022000831014.7
**
 
1532 EW4921 00:00:01:38 77019000371013.5
**
 
1533 EW7505 00:00:01:38 6806228000451010.4
**
 
1534 DW1684 00:00:01:38 511117184000521006.2
**
 
1535 EW2590 00:00:01:38 4931118300040
**
 
1536 EW5397 00:00:01:38 4513316000571011.7
**
 
1537 EW4784 00:00:01:38 5258238000511005.3
**
 
1538 EW4411 00:00:01:38 6626255000841012.1
**
 
1539 EW4312 00:00:01:38 433922100.150801018.6
**
 
1540 CW9005 00:00:01:38 8400000691011.5
**
 
1541 EW4251 00:00:01:38 622335200.010.01941019.3
**
 
1542 EW0421 00:00:01:38 571953000341014.2
**
 
1543 EW8913 00:00:01:38 504722500.110.02711016.6
**
 
1544 DW4694 00:00:01:38 5602630.04501022.7
**
 
1545 FW0422 00:00:01:38 62132630000051997.1
**
 
1546 DW8209 00:00:01:38 4801190000921021.2
**
 
1547 EW3286 00:00:01:38 60213524400055997.5
**
 
1548 EW2235 00:00:01:38 5261012900.070.01821023.7
**
 
1549 FW1292 00:00:01:38 6026242000401018.7  
1550 FW1289 00:00:01:38 57310142000501007.7
**
 
1551 FW1432 00:00:01:38 390025000.080.08911011.7
**
 
1552 EW6548 00:00:01:38 473596000601016.4
**
 
1553 FW1714 00:00:01:38 70513331000211024.3  
1554 FW0815 00:00:01:38 7721042000381016.2
**
 
1555 FW1744 00:00:01:38 557111600.130481013.7
**
 
1556 EW8564 00:00:01:39 4392020800.310551016.6
**
 
1557 DW7918 00:00:01:39 521120213000571004.2
**
 
1558 DW6494 00:00:01:39 611724315000381017.3
**
 
1559 DW7650 00:00:01:39 44101623100.240501004.9
**
 
1560 EW2099 00:00:01:39 440016000.120.1921012.0
**
 
1561 DW8353 00:00:01:39 4536227000511015.4
**
 
1562 DW8297 00:00:01:39 4925315000371021.9
**
 
1563 EW8810 00:00:01:39 48611000.010451016.6
**
 
1564 EW1694 00:00:01:39 58411191000381015.8
**
 
1565 DW8223 00:00:01:39 520020400.350.04961019.6
**
 
1566 CW9111 00:00:01:39 481419000.010831017.5
**
 
1567 DW1045 00:00:01:40 5532030600.010.0153978.0
**
 
1568 DW1231 00:00:01:40 69815144000341013.8
**
 
1569 EW7798 00:00:01:40 7713182000251015.0
**
**
1570 EW4786 00:00:01:40 4981621600071967.5
**
 
1571 CW4672 00:00:01:40 4771219000.120.01941019.3
**
 
1572 EW2937 00:00:01:40 772328000281014.0
**
 
1573 EW6661 00:00:01:40 454927400.040.04771012.0
**
 
1574 DW8340 00:00:01:40 4702238000431014.1
**
 
1575 EW6952 00:00:01:40 632439000311015.1
**
 
1576 EW0871 00:00:01:40 5602266000481013.1
**
 
1577 EW8426 00:00:01:40 4942460321010.6
**
 
1578 EW4052 00:00:01:40 5651128100064961.4
**
 
1579 EW9662 00:00:01:40 4825311000481014.9
**
 
1580 EW9998 00:00:01:40 48510242000421013.3
**
 
1581 EW9591 00:00:01:40 4411153240.010.130.0689993.2
**
 
1582 DW1937 00:00:01:40 7571132800.140831012.0  
1583 FW1669 00:00:01:40 65162725200050996.0
**
 
1584 EW0820 00:00:01:40 8323113000181016.3
**
 
1585 EW4235 00:00:01:41 5202331000461015.3
**
 
1586 EW7666 00:00:01:41 6615175000571015.9
**
 
1587 CW7408 00:00:01:41 7101119600091023.1
**
 
1588 DW6746 00:00:01:41 4700338000861019.9
**
 
1589 CW6122 00:00:01:41 191112700040999.9
**
 
1590 DW5167 00:00:01:41 63158000901013.2
**
 
1591 EW9249 00:00:01:41 5349205000461009.9
**
 
1592 EW9392 00:00:01:41 6271826300.520.02921011.5
**
 
1593 EW9411 00:00:01:41 51511195000371014.4
**
 
1594 EW1633 00:00:01:41 4181225400.020.02961021.1
**
 
1595 DW5546 00:00:01:41 4402121000671018.2
**
 
1596 FW0527 00:00:01:41 79310319000221013.5  
1597 FW0596 00:00:01:41 5201170611014.9
**
 
1598 FW0690 00:00:01:41 421001023.8  
1599 DW3918 00:00:01:41 73820249000271008.5
**
 
1600 CW3306 00:00:01:41 6017227000441013.3
**
 
1601 DW7894 00:00:01:41 6504239000701016.6
**
 
1602 EW6549 00:00:01:41 620310800.450.02971015.0
**
 
1603 EW7324 00:00:01:41 552415800045996.7
**
 
1604 DW3625 00:00:01:41 49132419400.050.01811015.9
**
 
1605 EW5151 00:00:01:41 581439000511021.5
**
 
1606 CW6556 00:00:01:41 4972518100.890791017.1
**
 
1607 EW9777 00:00:01:41 7814131000251013.0
**
 
1608 EW7710 00:00:01:42 66264400.010.01831013.0
**
 
1609 EW0865 00:00:01:42 6424297000631017.9  
1610 EW7427 00:00:01:42 48311258000361013.9
**
 
1611 CW6004 00:00:01:42 6751417000381002.0
**
 
1612 EW2353 00:00:01:42 531014191000471009.0
**
 
1613 EW6490 00:00:01:42 6702214000521019.6
**
 
1614 EW6629 00:00:01:42 3500000.010.01801015.3
**
 
1615 EW0898 00:00:01:42 390023200.130.13931011.3
**
 
1616 DW9260 00:00:01:42 26001600034996.6
**
 
1617 DW7765 00:00:01:42 681018199040996.9
**
 
1618 FW0613 00:00:01:42 71712225000341016.1
**
 
1619 FW0763 00:00:01:42 8135135000251011.5
**
 
1620 DW7784 00:00:01:42 1324100.210.081014.0
**
 
1621 FW0726 00:00:01:42 6316259000351014.7
**
 
1622 CW0311 00:00:01:42 01011.4
**
 
1623 FW1841 00:00:01:42 83914165000751013.5  
1624 CW1509 00:00:01:43 5441510471000.3
**
 
1625 DW2034 00:00:01:43 4914113000301015.4
**
 
1626 EW3976 00:00:01:43 6312112000891018.5
**
 
1627 CW3821 00:00:01:43 686890000191008.4
**
 
1628 EW1362 00:00:01:43 561119179000451008.9
**
 
1629 DW8414 00:00:01:43 71511234000391004.5
**
 
1630 DW4075 00:00:01:43 594767000321019.0
**
 
1631 DW3060 00:00:01:43 53210188000421010.7
**
 
1632 EW4622 00:00:01:43 520094000911021.8
**
 
1633 CW2796 00:00:01:43 7202850271011.4
**
 
1634 EW4104 00:00:01:43 45113380.020.320.32911011.8
**
 
1635 EW4026 00:00:01:43 640410000871026.5
**
 
1636 CW9346 00:00:01:43 5214142000431013.0
**
 
1637 EW5344 00:00:01:43 5902113000251014.2
**
 
1638 EW9135 00:00:01:43 7105255000571023.5
**
 
1639 EW7955 00:00:01:43 480052000891020.0
**
 
1640 DW2431 00:00:01:43 291932360000771025.8
**
 
1641 DW1073 00:00:01:43 662731601.420.01901012.9  
1642 EW8535 00:00:01:43 4948133000331010.5
**
 
1643 EW9338 00:00:01:43 480694000411015.3
**
 
1644 CW6083 00:00:01:44 7700500.080481010.6  
1645 EW5122 00:00:01:44 54031750471015.3
**
 
1646 CW5498 00:00:01:44 5328215000441013.9
**
 
1647 EW1915 00:00:01:44 480118700.310811019.4
**
 
1648 EW5676 00:00:01:44 4857300000541016.4  
1649 DW7774 00:00:01:44 500010500.170.03941012.4
**
 
1650 EW5776 00:00:01:44 4969202000361013.3
**
 
1651 EW1500 00:00:01:44 6916284000381014.9
**
 
1652 EW3273 00:00:01:44 541335500.020511024.8
**
 
1653 EW7421 00:00:01:44 9128243000561007.9
**
 
1654 DW8099 00:00:01:44 491427238000461008.2
**
 
1655 EW8515 00:00:01:45 642731500271020.2
**
 
1656 DW9178 00:00:01:45 4900259000921021.9
**
 
1657 DW0398 00:00:01:45 5369211000431008.7
**
 
1658 EW4027 00:00:01:45 550127800.030.02921018.9
**
 
1659 EW2837 00:00:01:45 495718300.130.01911020.7
**
 
1660 EW4271 00:00:01:45 6114165000301020.1
**
 
1661 EW0490 00:00:01:45 4700000.170.02971014.2
**
 
1662 EW1248 00:00:01:45 4702200000571012.8
**
 
1663 CW9669 00:00:01:45 490220700.110.01951022.0
**
 
1664 DW6188 00:00:01:45 4662130881016.5
**
 
1665 EW0391 00:00:01:45 522957000321014.7
**
 
1666 EW1555 00:00:01:45 4824225000481014.3
**
 
1667 EW1809 00:00:01:45 46101827400.06451004.0
**
 
1668 FW0135 00:00:01:45 430016100046998.2  
1669 DW2487 00:00:01:45 510261075993.1
**
 
1670 EW3858 00:00:01:45 6726196000361014.4
**
 
1671 FW0598 00:00:01:45 46004000.080921007.0  
1672 DW7143 00:00:01:45 6805227000401005.8
**
 
1673 DW5468 00:00:01:45 8161522300.020621008.9
**
 
1674 EW6407 00:00:01:45 663562000801018.4
**
 
1675 EW4883 00:00:01:45 492519000.30.01721020.7
**
 
1676 EW6433 00:00:01:45 67517139000371012.2  
1677 CW8217 00:00:01:46 5523233000461014.2
**
**
1678 EW1109 00:00:01:46 5121220900074993.8
**
 
1679 CW4778 00:00:01:46 6101182000961025.8
**
 
1680 EW8045 00:00:01:46 531218198000401007.7
**
 
1681 EW5041 00:00:01:46 54620198000481007.5
**
 
1682 FW0007 00:00:01:46 4636209000481013.5
**
 
1683 FW0271 00:00:01:46 65614151000441005.1  
1684 DW9545 00:00:01:46 4749248000501010.7
**
 
1685 FW1203 00:00:01:46 5939217000461002.0
**
 
1686 CW3718 00:00:01:46 5925267000461012.5  
1687 CW7488 00:00:01:46 3600293000921013.2
**
 
1688 EW8321 00:00:01:46 600147000331014.0
**
 
1689 FW1687 00:00:01:46 678120000731020.4
**
 
1690 DW6863 00:00:01:46 00.0301016.9
**
 
1691 EW8003 00:00:01:47 50121917100.050701018.1
**
 
1692 DW6022 00:00:01:47 4800302000861020.7
**
 
1693 EW2498 00:00:01:47 821620134000821010.3
**
 
1694 CW3799 00:00:01:47 8101840221012.4
**
 
1695 EW5297 00:00:01:47 570127200.040971015.9
**
 
1696 EW4564 00:00:01:47 394921600.110.06911007.5
**
 
1697 EW3257 00:00:01:47 513716000.070.01881022.1
**
 
1698 EW1701 00:00:01:47 3800212000871009.0
**
 
1699 CW5174 00:00:01:47 4602110951016.9
**
**
1700 EW1972 00:00:01:47 46011390.010.380.01981019.2
**
 
1701 EW2255 00:00:01:47 49121424700077988.9
**
 
1702 DW1389 00:00:01:47 6100220000321015.7
**
 
1703 CW5316 00:00:01:48 460233400.390.06821018.3
**
**
1704 DW3787 00:00:01:48 5003290.02921014.3
**
 
1705 CW3879 00:00:01:48 64
**
 
1706 DW1143 00:00:01:48 3900234000871013.1
**
**
1707 CW9348 00:00:01:48 640021000421017.7
**
 
1708 CW0572 00:00:01:48 6441529200.020.01911012.1
**
**
1709 EW9634 00:00:01:48 69713217000361002.2
**
 
1710 EW1168 00:00:01:48 47135200.160.16781011.4
**
 
1711 DW0361 00:00:01:48 7611730311007.9
**
 
1712 FW1375 00:00:01:48 54101331500070993.8  
1713 EW3117 00:00:01:49 690880731015.6
**
 
1714 EW4788 00:00:01:49 48169000055995.1
**
 
1715 EW6232 00:00:01:49 5111950421012.9
**
 
1716 EW8616 00:00:01:49 50381590.010.070.02751019.6
**
 
1717 EW7034 00:00:01:49 3602329000871012.6
**
 
1718 EW8965 .   
1719 EW4377 00:00:01:49 6621096000231014.1
**
 
1720 FW0114 00:00:01:49 44122023800068994.9  
1721 DW3665 00:00:01:49 01014.0
**
 
1722 EW6267 00:00:01:49 601490000411020.0
**
 
1723 FW1650 00:00:01:49 4271022700.040.04581014.9
**
 
1724 EW6055 00:00:01:50 492918200.340.1941021.0
**
 
1725 DW2741 00:00:01:50 6227196000571014.7
**
 
1726 DW3478 00:00:01:50 65112011300.020941011.5
**
 
1727 DW3888 00:00:01:50 5726200000371016.9
**
 
1728 DW3948 00:00:01:50 4202148000581012.0
**
 
1729 EW4288 00:00:01:50 422517100.060821017.7
**
 
1730 DW6340 00:00:01:50 4318287000461006.3
**
 
1731 DW5201 00:00:01:50 3602200921016.6
**
 
1732 EW9979 00:00:01:50 88814308000131014.9
**
 
1733 CW9366 00:00:01:50 70721208000311004.7
**
 
1734 DW1087 00:00:01:50 47233034300.030.03471007.3
**
 
1735 DW5678 00:00:01:51 5300355000841022.5
**
 
1736 DW9948 00:00:01:51 70814196000361007.0
**
 
1737 CW5652 00:00:01:51 5712262000441021.7  
1738 EW3437 00:00:01:51 5302240.010.1971020.4
**
 
1739 DW2690 00:00:01:51 492518300.30831017.0
**
 
1740 DW2494 00:00:01:51 701117191000351006.2
**
 
1741 CW8328 00:00:01:51 6116269000331019.2
**
 
1742 EW1390 00:00:01:51 6503182000661011.7
**
 
1743 EW0784 00:00:01:51 5621026000057995.8
**
 
1744 EW7698 00:00:01:51 59395600.190541012.0
**
 
1745 EW9456 00:00:01:51 8225215000151015.9
**
 
1746 DW3733 00:00:01:51 5012171000871024.1
**
 
1747 CW3714 00:00:01:51 63210288000261011.9  
1748 CW9683 00:00:01:51 4717173000551010.7
**
 
1749 EW8363 00:00:01:52 803690000231013.5
**
 
1750 CW7558 00:00:01:52 3751520600.120.0489997.0
**
 
1751 CW9968 00:00:01:52 5331016200.110.03571006.6
**
 
1752 EW2905 00:00:01:52 460090000911022.9
**
 
1753 EW5495 00:00:01:52 65000000941013.5
**
**
1754 DW6888 00:00:01:52 6435357000321016.0
**
 
1755 DW5600 00:00:01:52 6939117000521012.3  
1756 DW8985 00:00:01:52 6835180000411009.1
**
 
1757 FW0579 00:00:01:52 6503260000821017.9  
1758 CW8053 00:00:01:52 57137200.010.01841020.5
**
 
1759 EW1478 00:00:01:53 330123000.010.01891011.9
**
 
1760 EW7525 00:00:01:53 6024321000971018.4
**
 
1761 DW5574 00:00:01:53 411312100.080.06861010.1
**
 
1762 CW1038 00:00:01:53 4038500.10.01651040.3
**
 
1763 DW7368 00:00:01:53 6304199000421016.5
**
 
1764 EW2496 00:00:01:53 6300310000331014.0
**
 
1765 CW3403 00:00:01:53 55312193000281010.7
**
**
1766 EW1971 00:00:01:53 5146142000471014.3
**
 
1767 EW2919 00:00:01:53 5802060491016.6
**
 
1768 CW1341 00:00:01:53 5115340000371015.8
**
**
1769 EW3060 00:00:01:53 802510000191019.1
**
 
1770 DW1453 00:00:01:53 00274000851009.4
**
 
1771 EW9963 00:00:01:53 590011000401012.9
**
 
1772 CW8847 00:00:01:53 541217308000601029.3
**
 
1773 DW1871 00:00:01:53 7603600191010.1
**
 
1774 CW7368 00:00:01:53 5616257000871028.0
**
 
1775 EW9575 00:00:01:53 765933800.670.67651011.2  
1776 EW4493 00:00:01:53 4108152000631008.4
**
 
1777 EW4363 00:00:01:54 6301350000451016.6
**
 
1778 CW9718 00:00:01:54 7441114400031988.0
**
 
1779 EW7377 00:00:01:54 493937000541020.9
**
 
1780 EW7942 00:00:01:54 8013203000341011.5
**
 
1781 CW9887 00:00:01:54 4002370691011.7
**
 
1782 CW3873 00:00:01:54 6137181000291018.3
**
 
1783 DW8463 00:00:01:54 6051227400056993.2
**
 
1784 DW8548 00:00:01:54 65510225000791009.6
**
 
1785 DW5798 00:00:01:54 561527800057994.6
**
 
1786 EW7823 00:00:01:54 5059181000461013.8
**
 
1787 CW3993 00:00:01:54 54516203000241018.0
**
 
1788 EW6608 00:00:01:54 601121220000461008.6
**
 
1789 CW4408 00:00:01:54 7413197000331015.5
**
 
1790 EW9093 00:00:01:54 3100267000921011.5
**
 
1791 EW3343 00:00:01:54 71512221000321012.1
**
 
1792 EW8508 00:00:01:54 7200135000241002.5
**
 
1793 FW0145 00:00:01:54 7624321000331013.9
**
 
1794 EW8278 00:00:01:54 74414172000321008.4
**
 
1795 FW0668 00:00:01:54 561629186000451006.1
**
 
1796 EW9803 00:00:01:54 590018900.020801019.8
**
 
1797 FW1188 00:00:01:54 3400315000811012.4  
1798 FW1179 00:00:01:54 69000000851013.9  
1799 FW1648 00:00:01:54 50914222000551006.6
**
 
1800 ew6884 00:00:01:55 65463500041013.9  
1801 EW2118 00:00:01:55 502032326000391009.4
**
 
1802 CW8859 00:00:01:55 72721242000311001.2
**
 
1803 EW6572 00:00:01:55 582669000531015.2
**
 
1804 EW8598 00:00:01:55 531418203000551090.0
**
 
1805 EW1198 00:00:01:55 52516182000381011.2
**
 
1806 DW1373 00:00:01:55 4813116000841017.8
**
**
1807 CW0198 00:00:01:55 5325105000401016.0
**
 
1808 EW7898 00:00:01:55 6246100000401007.8
**
 
1809 CW4113 00:00:01:55 5016153000351015.8
**
 
1810 EW1922 00:00:01:55 610260000361011.1
**
 
1811 EW1902 00:00:01:55 6300103000751018.6
**
 
1812 EW1118 00:00:01:55 705812900034980.7
**
 
1813 EW7038 00:00:01:55 4791526600.440.05801020.9
**
 
1814 EW4138 00:00:01:55 49233090.040.040.04931010.6  
1815 CW9133 00:00:01:55 60716198000481002.2
**
**
1816 CW7628 00:00:01:55 68710237000361005.4
**
 
1817 FW1333 00:00:01:55 6759900041974.0  
1818 CW5468 00:00:01:55 420369000951020.3
**
 
1819 DW7177 00:00:01:55 3802250000831008.0
**
 
1820 DW6139 00:00:01:56 3802242000901011.2
**
**
1821 DW4029 00:00:01:56 6614181000791017.3
**
 
1822 DW8088 00:00:01:56 57418183000571003.1
**
 
1823 EW5393 00:00:01:56 4746195000401004.9
**
 
1824 EW6496 00:00:01:56 7247158000151010.8
**
 
1825 DW6803 00:00:01:56 50358900.170.08771021.1
**
 
1826 DW3994 00:00:01:56 0001006.7
**
 
1827 DW6383 00:00:01:56 510613600921019.8
**
 
1828 EW4160 00:00:01:56 460312800.080.02961018.2
**
 
1829 DW7574 00:00:01:56 600411300.040.04301014.1
**
 
1830 EW8931 00:00:01:56 550523000441016.2
**
 
1831 EW9034 00:00:01:56 423823500.110.02721007.2
**
 
1832 DW6162 00:00:01:56 44410218000481014.6
**
 
1833 EW9533 00:00:01:56 61142824000045996.9
**
 
1834 CW0803 00:00:01:56 5661233200.010421013.2
**
**
1835 FW0155 00:00:01:56 3802180000991003.6
**
 
1836 FW0258 00:00:01:56 66010000811015.3
**
 
1837 FW1278 00:00:01:56 49710265000681016.3  
1838 EW8289 00:00:01:56 49132110.020.350.31931012.7
**
 
1839 DW5753 00:00:01:56 500000.230.230.23921014.5
**
 
1840 EW3293 00:00:01:57 5381220700059989.2
**
 
1841 DW9421 00:00:01:57 5207162000431015.8
**
**
1842 cw9134 00:00:01:57 57515200000451002.0
**
 
1843 DW1735 00:00:01:57 50111918500.010771018.8
**
 
1844 CW1248 00:00:01:57 5731528300060995.9
**
 
1845 EW2468 00:00:01:57 77612124000301012.8
**
 
1846 EW9227 00:00:01:57 63240000881019.8
**
 
1847 EW1049 00:00:01:57 7225184000371012.7
**
 
1848 EW6174 00:00:01:57 532744000881018.7
**
 
1849 EW9666 00:00:01:57 67210144000311015.0
**
 
1850 FW0286 00:00:01:57 590236000421015.2
**
 
1851 EW0161 00:00:01:57 58010000451013.1
**
 
1852 EW8770 00:00:01:57 810116600029963.9
**
 
1853 FW1613 00:00:01:57 605634000551020.4  
1854 EW4793 00:00:01:58 7159261000321012.5
**
 
1855 cw5761 00:00:01:58 50003550391014.4
**
 
1856 EW5703 00:00:01:58 6546180000461015.9
**
 
1857 EW6938 00:00:01:58 70618241000311006.0
**
 
1858 DW0490 00:00:01:58 760840401012.4
**
 
1859 EW8973 00:00:01:58 7602103000231013.9
**
 
1860 FW0971 00:00:01:58 664631100011013.2  
1861 EW8137 00:00:01:58 820385000711009.0
**
 
1862 EW2492 00:00:01:59 6081529700281013.1
**
 
1863 EW6243 00:00:01:59 411420247000681012.0
**
 
1864 CW3783 00:00:01:59 5269191000411015.1
**
**
1865 EW7550 00:00:01:59 8041135000.250.01731011.7
**
 
1866 EW4277 00:00:01:59 5528240000371018.8
**
 
1867 EW4652 00:00:01:59 59152125200061996.3
**
 
1868 DW0427 00:00:01:59 3581326900.770.77911013.2
**
 
1869 DW3664 00:00:01:59 49251350841021.1
**
 
1870 DW6574 00:00:01:59 4836149000501013.9
**
 
1871 CW3950 00:00:01:59 634768000581013.0
**
 
1872 DW0793 00:00:01:59 4815160000461014.9
**
**
1873 EW6933 00:00:02:00 5112180000801019.2
**
 
1874 CW8284 00:00:02:00 8100225261012.6
**
 
1875 DW4088 00:00:02:00 701016170000351012.0
**
 
1876 CW2293 00:00:02:00 4849146000581014.3
**
 
1877 CW0863 00:00:02:00 4271434000087
**
 
1878 EW3333 00:00:02:00 8501240241008.9
**
 
1879 DW8760 00:00:02:00 1127161280001001005.7
**
 
1880 EW7084 00:00:02:00 50617194000381014.4
**
 
1881 EW3330 00:00:02:00 4903175000421014.1
**
 
1882 EW9438 00:00:02:00 71915158000321008.3
**
 
1883 FW0980 00:00:02:00 652534300.280481012.8  
1884 EW3948 00:00:02:00 60511229000291015.3  
1885 EW7881 00:00:02:01 67110123000411014.6
**
 
1886 EW6606 00:00:02:01 632545000581014.4
**
 
1887 CW9711 00:00:02:01 7725183000201016.0
**
 
1888 CW5201 00:00:02:01 4982020.02811013.9
**
 
1889 EW1931 00:00:02:01 442025263000621008.0
**
 
1890 EW2653 00:00:02:01 4602139000681015.0
**
 
1891 EW3980 00:00:02:01 60510255000571013.4
**
 
1892 DW5582 00:00:02:01 340026700.090891012.6
**
**
1893 DW5021 00:00:02:01 6538360000281012.7  
1894 CW7253 00:00:02:01 5116234000391014.1
**
 
1895 CW4746 00:00:02:01 741330032999.7
**
 
1896 FW1159 00:00:02:01 782515200062929.7  
1897 CW2750 00:00:02:02 620111000831017.4
**
 
1898 DW3979 00:00:02:02 7016102000221013.4
**
 
1899 EW7906 00:00:02:02 7561150000391013.0
**
 
1900 DW8270 00:00:02:02 67112422500039996.2
**
 
1901 EW6940 00:00:02:02 470275000521014.8
**
 
1902 EW5345 00:00:02:02 5800190000891019.6
**
 
1903 EW6370 00:00:02:02 5301303000661017.6
**
 
1904 DW2428 00:00:02:02 4838181000521014.9
**
 
1905 DW4700 00:00:02:02 5215301000421014.5
**
 
1906 EW5713 00:00:02:02 5923306000451013.9
**
 
1907 DW6606 00:00:02:02 52515204000561008.1
**
 
1908 CW2467 00:00:02:02 406933500050929.0
**
**
1909 DW8502 00:00:02:02 47032210.070.20.16581012.9
**
 
1910 EW1036 00:00:02:02 4715301000491014.0
**
 
1911 DW7554 00:00:02:03 370065000811013.1
**
 
1912 EW2769 00:00:02:03 3436270000841010.8
**
 
1913 EW8004 00:00:02:03 5736181000571015.7
**
 
1914 EW4915 00:00:02:03 51350541016.8
**
 
1915 FW0962 00:00:02:03 62815180000481000.1  
1916 EW9402 00:00:02:03 810791000221016.9
**
 
1917 CW9444 00:00:02:03 6602920441013.6
**
 
1918 CW9127 00:00:02:04 603725600491013.3
**
 
1919 EW8374 00:00:02:04 534923600032972.6  
1920 EW8877 00:00:02:04 4751221300.690.06911019.5
**
 
1921 EW9138 00:00:02:04 422340000821021.5
**
 
1922 EW2096 00:00:02:04 5314262000361012.7
**
 
1923 FW0344 00:00:02:04 3800000.010.01911012.8  
1924 FW0606 00:00:02:04 7636135000291010.8
**
 
1925 DW9622 00:00:02:05 4881518500.410771017.6
**
 
1926 EW6339 00:00:02:05 670729300.040.02861011.9
**
 
1927 DW0076 00:00:11:09 6009328000601016.9
**
 
1928 CW4498 00:00:02:05 651220238000211010.1
**
 
1929 EW8495 00:00:02:05 55511175000461009.4
**
 
1930 DW6626 00:00:02:05 48003000.220.07851020.4
**
 
1931 EW6058 00:00:02:05 48601014.5
**
 
1932 EW6946 00:00:02:05 47111840611007.1
**
 
1933 EW5299 00:00:02:05 5358161000431015.4
**
 
1934 CW6245 00:00:02:05 63372280016733.5
**
 
1935 CW8897 00:00:02:05 462928000.020541010.3
**
 
1936 EW1088 00:00:02:06 21112398000371000.8
**
 
1937 EW8978 00:00:02:06 47915254000481013.6
**
 
1938 DW7980 00:00:02:06 481517300.460.09901020.9
**
 
1939 EW8391 00:00:02:06 0
**
 
1940 FW1225 00:00:02:06 61481960451014.7  
1941 FW1492 00:00:02:06 4625304000391016.4  
1942 EW8646 00:00:02:07 70714265000341004.8
**
 
1943 EW0207 00:00:02:07 397156400.010.01731010.3
**
 
1944 FW1365 00:00:02:07 5231024700059997.0
**
 
1945 EW4301 00:00:02:08 4845163000391015.0
**
 
1946 EW1411 00:00:02:08 8201355000161013.2
**
 
1947 DW5422 00:00:02:08 580134700881021.5
**
 
1948 CW4893 00:00:02:08 640010000511011.1
**
 
1949 EW4131 00:00:02:08 55244631200.010.01341014.6
**
 
1950 DW4435 00:00:02:08 591487000501015.5
**
 
1951 CW2998 00:00:02:08 5639236000201023.5
**
 
1952 EW4916 00:00:02:08 697168400.170251017.3
**
 
1953 EW8716 00:00:02:08 3426227000891006.5
**
 
1954 FW0001 00:00:02:08 7714260000221013.7
**
 
1955 FW0777 00:00:02:08 470235900.120.01961018.6  
1956 EW5231 00:00:02:08 38415207000701019.4
**
 
1957 EW5252 00:00:02:09 76612212000301005.0
**
 
1958 cw4517 00:00:02:09 56321197000581000.4
**
 
1959 CW5283 00:00:02:09 800021000231011.0
**
 
1960 EW7744 00:00:02:09 471624000.060.06721007.8
**
 
1961 DW2738 00:00:02:09 5014180000571014.0
**
 
1962 EW8804 00:00:02:09 6100255000351018.8
**
 
1963 CW4874 00:00:02:09 51719200000541005.7
**
 
1964 DW8008 00:00:02:09 63151010961018.1
**
 
1965 EW9447 00:00:02:09 5872226800058995.8
**
 
1966 EW8139 00:00:02:09 4711010400051968.5  
1967 FW1403 00:00:02:09 5131255000421010.5  
1968 EW8184 00:00:02:09 5700165000751018.5  
1969 DW1382 00:00:02:10 500330600391005.3
**
**
1970 DW5051 00:00:02:10 47613210000571014.9
**
 
1971 EW9717 00:00:02:10 74712276000221004.5
**
 
1972 CW9682 00:00:02:10 4968161000841015.2
**
 
1973 EW6304 00:00:02:11 4714115000531013.1
**
 
1974 DW6892 00:00:02:11 430421900.020.0279990.6  
1975 DW3949 00:00:02:11 5305128000401016.3
**
 
1976 dw2000 00:00:02:11 580749000541019.6
**
 
1977 EW8387 00:00:02:11 5400203000411010.4
**
 
1978 EW0491 00:00:02:11 59110274053975.1
**
 
1979 CW8660 00:00:02:11 540990491016.8  
1980 FW0354 00:00:02:11 80001940361010.4  
1981 FW0945 00:00:02:11 6415800681014.4  
1982 CW5928 00:00:02:11 6936188000381010.4  
1983 EW0957 00:00:02:11 501224293000421003.9
**
 
1984 EW7139 00:00:02:12 561322167000591003.6
**
 
1985 EW5758 00:00:02:12 51131880.01821016.0
**
 
1986 ew6034 00:00:02:12 7107216000331014.3
**
 
1987 DW8205 00:00:02:12 6705351000791018.5
**
 
1988 FW0380 00:00:02:12 4838205000481015.7
**
 
1989 DW9433 00:00:02:12 6117155000371013.4
**
 
1990 DW6237 00:00:02:12 4436195000601019.1
**
 
1991 FW1173 00:00:02:12 711317261000241015.4
**
 
1992 EW9416 00:00:02:12 643629500.040.01881013.0
**
 
1993 EW8380 00:00:02:13 4941121200.110761021.0
**
 
1994 CW5078 00:00:02:13 68210248000361013.4
**
**
1995 DW7394 00:00:02:13 50719186000451011.1
**
 
1996 EW6078 00:00:02:13 382614600.360781019.7
**
 
1997 EW4133 00:00:02:13 5625105000471014.1
**
 
1998 EW5213 00:00:02:13 500069000501015.9
**
 
1999 DW3123 00:00:02:13 36022880.010.240.24951006.0
**
 
2000 DW4892 00:00:02:14 642528000251013.6
**
 
2001 DW1641 00:00:02:14 5836174000441011.8
**
 
2002 EW0587 00:00:02:14 564318058993.5
**
 
2003 CW5752 00:00:02:14 62111418400431009.2
**
 
2004 EW8824 00:00:02:14 56717212000291009.9
**
**
2005 FW0252 00:00:02:14 74054200.220.02721010.7  
2006 CW2957 00:00:02:14 52010124000661015.4  
2007 EW0407 00:00:02:14 5500000831020.3
**
 
2008 EW4968 00:00:02:15 01012.4
**
 
2009 EW8244 00:00:02:15 6292019600034991.5
**
 
2010 FW0333 00:00:02:15 6011217000921019.8
**
 
2011 EW5440 00:00:02:15 670027000.010781020.3
**
 
2012 FW1567 00:00:02:15 7636101000271014.8
**
 
2013 EW3861 00:00:02:16 493921900.080471013.4
**
 
2014 DW6059 00:00:02:16 5503287000401015.7  
2015 EW1325 00:00:02:16 4915238000451014.3
**
 
2016 FW0634 00:00:02:16 1426344000641003.2
**
 
2017 DW4145 00:00:02:16 61914235000321014.8
**
 
2018 CW6120 00:00:02:16 572636000481020.0
**
 
2019 EW7965 00:00:02:17 59242940441016.1  
2020 CW3668 00:00:02:17 62310336000251016.7
**
 
2021 DW5627 00:00:02:17 672230100.070.07881011.8
**
 
2022 DW1138 00:00:02:17 252480001013.4
**
 
2023 DW8044 00:00:02:17 41213283000771012.8
**
 
2024 EW3653 00:00:02:17 4946220000371013.6
**
 
2025 EW6696 00:00:02:17 7801139000241011.4
**
 
2026 DW7013 00:00:02:17 473121170.090.130.13931015.2
**
 
2027 FW0569 00:00:02:17 5626122000371014.2
**
 
2028 EW7897 00:00:02:18 5205166000491013.5
**
 
2029 EW4483 00:00:02:19 4224351000751022.6
**
 
2030 DW7550 00:00:02:19 7662000311001.4
**
 
2031 EW2348 00:00:02:19 5631178000291011.0
**
 
2032 DW6999 00:00:02:19 7322202000271013.5
**
 
2033 CW4674 00:00:02:19 3847216000871003.5
**
 
2034 EW7290 00:00:02:19 592234302000471001.4
**
 
2035 DW8847 00:00:02:19 41006900.020.01811020.6  
2036 DW3640 00:00:02:19 80002460311013.0
**
 
2037 FW0010 00:00:02:19 62139000.070851014.5
**
 
2038 EW9112 00:00:02:19 562830700321006.4
**
 
2039 EW7840 00:00:02:20 5528193000411015.6
**
 
2040 EW4867 00:00:02:20 49411235000481014.3
**
 
2041 DW5856 00:00:02:20 6116147000341004.7
**
 
2042 CW5218 00:00:02:20 450330600.160.01991018.3
**
 
2043 DW5432 00:00:02:20 62613900.010.010.01891017.2
**
 
2044 DW5259 00:00:02:20 67253000.010.01901012.2
**
 
2045 DW4923 00:00:02:20 5215238000471016.1
**
 
2046 EW9991 00:00:02:20 4922225000481012.3
**
 
2047 FW1125 00:00:02:20 593727500031789.7  
2048 FW1526 00:00:02:20 442413800.090641019.7  
2049 DW8293 00:00:02:21 352613900.070.0499998.9
**
 
2050 DW1971 00:00:02:21 5138137000541013.0
**
 
2051 EW3291 00:00:02:21 55915158000401011.9
**
 
2052 CW3375 00:00:02:21 48102815300741016.1
**
 
2053 DW4005 00:00:02:21 0001014.9
**
 
2054 EW3567 00:00:02:21 510010200.010.01901019.7
**
 
2055 DW7734 00:00:02:21 36512263000611005.2
**
 
2056 EW1660 00:00:02:22 3951215402.170.2495999.6
**
**
2057 EW7685 00:00:02:22 634735100.530.06891013.1
**
 
2058 EW4336 00:00:02:22 5124198000401012.2
**
 
2059 DW9080 00:00:02:22 6606296000281023.1
**
 
2060 FW0251 00:00:02:22 5349291000441016.1
**
 
2061 EW0842 00:00:02:22 430015800.23991000.1
**
 
2062 EW7059 00:00:02:23 54180000511005.4
**
 
2063 EW6619 00:00:02:23 521017225000711020.1
**
 
2064 EW7855 00:00:02:23 5437181000851011.3
**
 
2065 EW5302 00:00:02:23 68261300.050.04861012.5
**
 
2066 EW2605 00:00:02:23 692627800.070811011.2
**
 
2067 DW7538 00:00:02:23 330110800.130971019.5
**
 
2068 DW1103 00:00:02:23 623532000331015.9
**
 
2069 EW9887 00:00:02:23 67001700221015.3
**
 
2070 FW0641 00:00:02:23 662322000781017.8
**
 
2071 CW7975 00:00:02:23 5457159000441014.6
**
 
2072 EW5514 00:00:02:23 790031100.40.01681011.2
**
 
2073 FW1517 00:00:02:23 534590481004.1  
2074 CW5505 00:00:02:24 5446192000551017.6
**
**
2075 DW4170 00:00:02:24 5022100431016.5  
2076 EW4346 00:00:02:24 37270000701010.1
**
 
2077 FW1504 00:00:02:24 7458175000311008.6
**
 
2078 EW2545 00:00:02:24 50004500082974.1
**
 
2079 CW2074 00:00:02:25 580260000561015.3
**
 
2080 DW5072 00:00:02:25 51001640.040.040.04891015.4
**
 
2081 DW2028 00:00:02:25 6306291000351014.9
**
 
2082 DW4887 00:00:02:25 7714220000301011.2
**
 
2083 DW6987 00:00:02:25 513928400.020.02651021.0
**
 
2084 ew0590 00:00:02:25 695161250371006.7
**
 
2085 DW1564 00:00:02:25 573169000281002.3
**
 
2086 DW6438 00:00:02:25 559213600.10.430.43871012.8
**
 
2087 CW1562 00:00:02:26 50011670.030.230.23961015.2
**
**
2088 DW9408 00:00:02:26 572716200051971.5
**
 
2089 DW4691 00:00:02:26 6702510421016.7
**
 
2090 EW7771 00:00:02:26 440318300.580.04981019.2
**
 
2091 EW3302 00:00:02:26 3691225600.0787999.4
**
 
2092 DW0807 00:00:02:26 47111525600.04661005.5
**
 
2093 DW3389 00:00:02:26 54112040541001.6  
2094 DW1323 00:00:02:26 490023000741019.3
**
 
2095 EW7309 00:00:02:26 561331238000251017.5
**
 
2096 CW1780 00:00:02:26 560284000401014.4
**
**
2097 DW3822 00:00:02:26 6200143000941018.3
**
 
2098 EW9154 00:00:02:26 572730000057994.9
**
 
2099 CW8944 00:00:02:27 453926200601014.1
**
 
2100 DW5339 00:00:02:27 470192000861022.0
**
**
2101 DW7957 00:00:02:27 603831000052995.5
**
 
2102 EW1433 00:00:02:27 660041000821018.5
**
 
2103 DW9320 00:00:02:27 5729126000491001.2
**
 
2104 DW5765 00:00:02:27 151122600063
**
 
2105 CW9067 00:00:02:27 721486000271012.2
**
 
2106 EW5689 00:00:02:27 6415000841015.5
**
 
2107 DW8849 00:00:02:27 1586161960001015.3
**
 
2108 EW5998 00:00:02:27 46714163000701008.0
**
 
2109 ew9847 00:00:02:27 64351950601015.3
**
 
2110 EW4453 00:00:02:27 910331900.050.05511012.4
**
 
2111 DW1384 00:00:02:27 01011.7
**
 
2112 DW3068 00:00:02:28 4000338000751021.0
**
 
2113 EW1060 00:00:02:28 4613186000891017.2
**
 
2114 EW3170 00:00:02:28 7503292000361013.4
**
 
2115 EW9053 00:00:02:28
**
 
2116 EW9944 00:00:02:28 66165000801005.3
**
 
2117 FW0236 00:00:02:28 5039262000501006.1  
2118 FW1219 00:00:02:28 7061130371008.5  
2119 DW4959 00:00:02:29 8127147000171014.7
**
 
2120 DW2017 00:00:02:29 2904347000831010.3
**
**
2121 DW2868 00:00:02:29 8401123000251012.1
**
 
2122 EW7548 00:00:02:29 6031031100055994.4
**
 
2123 DW4888 00:00:02:29 7671226200.020741012.3
**
 
2124 CW4185 00:00:02:29 614915000361015.7
**
 
2125 CW2450 00:00:02:29 5328318000571015.2
**
**
2126 EW9931 00:00:02:29 6302700101010.6
**
 
2127 CW3845 00:00:02:29 38713224000831013.5  
2128 CW6462 00:00:02:29 53110220000561009.2
**
 
2129 FW0859 00:00:02:29 65412158000351011.8
**
 
2130 EW2848 00:00:02:29 7201306000351075.7
**
 
2131 DW2426 00:00:02:29 4001820.04971005.3  
2132 FW1563 00:00:02:29 7137149000361016.2
**
 
2133 EW8180 00:00:02:29 66143900.240.15711011.1
**
 
2134 EW5939 00:00:02:29 4861321000.010401011.7
**
 
2135 DW1785 00:00:02:30 550223100.02801021.3
**
 
2136 EW8510 00:00:02:30 46015100.140981022.0
**
 
2137 EW8383 00:00:02:30 7143370251004.9
**
 
2138 CW5542 00:00:02:30 5312172480.010.120.05451005.0
**
 
2139 EW9598 00:00:02:30 714875000231007.0
**
 
2140 EW2108 00:00:02:30 640252000951017.0
**
 
2141 EW4767 00:00:02:31 4838163000551011.3
**
 
2142 EW4649 00:00:02:31 5716124000491014.9
**
 
2143 EW3125 00:00:02:31 7416250000351012.2
**
 
2144 EW6162 00:00:02:31 5714180000551012.2
**
 
2145 EW8822 00:00:02:31 6049195000211010.9
**
 
2146 DW6996 00:00:02:31 7637157000231014.3
**
 
2147 EW2342 00:00:02:31 551221346000521004.7
**
 
2148 DW7237 00:00:02:31 524919800.080471018.9
**
 
2149 EW5246 00:00:02:32 49514146000451009.1
**
 
2150 EW7130 00:00:02:32 622313500038
**
 
2151 EW7794 00:00:02:32 52511236000411009.0
**
 
2152 DW4669 00:00:02:32 5117148000441014.2
**
 
2153 EW5582 00:00:02:32 800093000151005.9
**
 
2154 DW5435 00:00:02:32 580488000551015.4
**
 
2155 DW6755 00:00:02:32 3600231000951026.6
**
 
2156 EW6424 00:00:02:32 6912250000681015.5  
2157 EW2072 00:00:02:32 503827400.040461018.0
**
 
2158 FW1175 00:00:02:32 63715238000451033.0  
2159 FW1460 00:00:02:32 4729213000471015.7  
2160 FW1701 00:00:02:32 496132480.010.070.04401011.5  
2161 EW8011 00:00:02:33 7714197000221014.1
**
 
2162 CW5307 00:00:02:33 535616800331013.1
**
**
2163 CW9832 00:00:02:33 621782000451014.6
**
 
2164 EW1330 00:00:02:33 3761527300.010.01871012.0
**
 
2165 EW1217 00:00:02:33 5400244000821021.5
**
 
2166 EW6984 00:00:02:33 232519600.010.01911014.3
**
 
2167 CW9038 00:00:02:33 320023000.010941012.7
**
 
2168 DW6314 00:00:02:33 51310357000331013.3
**
 
2169 EW5313 00:00:02:33 7324219000191014.7
**
 
2170 EW9109 00:00:02:33 451630700.950.16891021.8
**
 
2171 CW1075 00:00:02:33 52612242000641020.4
**
 
2172 cw0364 00:00:02:33 6536158000401011.2
**
 
2173 DW7745 00:00:02:33 7139194000371014.5
**
 
2174 EW2801 00:00:02:33 19184050999.1
**
 
2175 DW7000 00:00:02:33 5625131000481013.7
**
 
2176 EW4112 00:00:02:33 69914123000381012.1
**
 
2177 EW2628 00:00:02:34 6001155000411007.9
**
 
2178 EW6430 00:00:02:34 4537221000871013.9
**
 
2179 EW2537 00:00:02:34 531314600891020.0
**
 
2180 EW4560 00:00:02:34 6715152000241011.7
**
 
2181 CW4403 00:00:02:34 5029182000371016.8
**
 
2182 EW1703 00:00:02:34 5802315000351018.3
**
 
2183 DW2458 00:00:02:34 6200327000861017.9
**
 
2184 CW0641 00:00:02:34 5224317000761021.6
**
 
2185 DW9685 00:00:02:34 47610220000831018.2
**
 
2186 EW7831 00:00:02:34 26213124300074992.6
**
 
2187 DW9672 00:00:02:34 63620194000491001.7
**
 
2188 DW2393 00:00:02:34 8100150000511012.4
**
 
2189 EW8349 00:00:02:35 6891615500038998.3
**
 
2190 EW0299 00:00:02:35 3100298000881012.6
**
 
2191 DW4762 00:00:02:35 6051018400361012.6
**
 
2192 CW0212 00:00:02:35 6003217000551014.7
**
 
2193 EW0390 00:00:02:35 6604186000611014.6
**
 
2194 EW4228 00:00:02:35 7428157000331011.1
**
 
2195 DW6873 00:00:02:35 4771729200.050.05761002.8
**
 
2196 EW8097 00:00:02:35 634533800.010821012.8
**
 
2197 DW9668 00:00:02:35 5907171000581004.0
**
 
2198 DW5079 00:00:02:35 8202311000341010.7
**
 
2199 FW0904 00:00:02:35 39001500.040.03881014.7  
2200 FW1193 00:00:02:35 6214304000251014.8
**
 
2201 FW1440 00:00:02:35 49131400.050861015.9  
2202 CW9567 00:00:02:35 54411107000611014.3
**
 
2203 CW1227 00:00:02:35 455813200.020581010.0
**
 
2204 DW6650 00:00:02:36 612378000501015.2
**
 
2205 EW5157 00:00:02:36 57417143000251010.3
**
 
2206 CW5851 00:00:02:36 4729280000571011.7
**
 
2207 DW9035 00:00:02:36 620421100042779.9
**
 
2208 EW8541 00:00:02:36 7638238000481012.9
**
 
2209 EW2612 00:00:02:36 7452100291010.5
**
 
2210 CW6601 00:00:02:36 580096000631020.8
**
 
2211 FW0483 00:00:02:36 5025313000511013.5  
2212 CW8983 00:00:02:36 670018600.010.01721018.2
**
 
2213 DW9989 00:00:02:36 667121000.040.03861012.0
**
 
2214 EW8653 00:00:02:37 6535224000291006.8
**
 
2215 cw3007 00:00:02:37 714151940361013.3
**
 
2216 EW7007 00:00:02:37 76615312000301000.3
**
 
2217 EW6926 00:00:02:37 5118203000351016.0
**
 
2218 CW6171 00:00:02:37 6015235000361010.8
**
 
2219 DW3148 00:00:02:37 5102222000481015.0
**
 
2220 CW6847 00:00:02:37 7461590371004.0
**
 
2221 EW8975 00:00:02:37 5115159000701017.3
**
 
2222 EW5793 00:00:02:37 575110000291011.2
**
 
2223 EW9827 00:00:02:37 44314142000421015.4
**
 
2224 CW1395 00:00:02:37 5061423400.190531020.9
**
 
2225 EW6362 00:00:02:37 62255000301016.2
**
 
2226 DW3308 00:00:02:37 4603224000501016.6
**
 
2227 EW1042 00:00:02:37 44001900.030.110.11541015.7
**
 
2228 EW7404 00:00:02:38 3800064865.8  
2229 EW2717 00:00:02:38 6813147000841009.9
**
 
2230 DW4847 00:00:02:38 4614238000451012.1
**
 
2231 CW4358 00:00:02:38 5727118000361013.7
**
**
2232 CW2888 00:00:02:38 3900259000791013.9
**
**
2233 DW7984 00:00:02:38 6104299000531017.9
**
 
2234 DW0912 00:00:02:38 7502940401013.6
**
 
2235 EW2065 00:00:02:38 43401571000101011.2
**
 
2236 CW1729 00:00:02:38 520086000581013.1
**
 
2237 EW8942 00:00:02:38 492315800.080.08931014.0
**
 
2238 EW7817 00:00:02:39 7147180000461014.8
**
 
2239 EW6465 00:00:02:39 5904296000551015.1
**
 
2240 CW3619 00:00:02:39 4800231000811015.2
**
 
2241 CW3786 00:00:02:39 740363000421009.2
**
 
2242 CW5494 00:00:02:39 490298451009.0
**
**
2243 EW9578 00:00:02:39 4800000561012.5
**
 
2244 DW2994 00:00:02:39 8425213000241013.7
**
 
2245 EW3904 00:00:02:39 6125250000521014.3
**
**
2246 DW8973 00:00:02:39 5061718000.110.01781018.6  
2247 CW8728 00:00:02:40 7018219000301003.9
**
 
2248 DW1234 00:00:02:40 70122430500043998.0
**
 
2249 CW3996 00:00:02:40 6445225000271018.7
**
**
2250 EW6245 00:00:02:40 55512282000371011.7
**
 
2251 EW5058 00:00:02:40 592418000.010.01411015.5
**
 
2252 EW7972 00:00:02:40 4747217000391015.9
**
 
2253 EW2018 00:00:02:40 41512140000691011.1
**
 
2254 DW3121 00:00:02:40 4000000701011.1  
2255 EW9437 00:00:02:40 8122830.01241012.2
**
 
2256 DW0112 00:00:02:40 6651013500.020.02851013.2
**
 
2257 EW8160 00:00:02:40 4251720400.20541019.2
**
 
2258 EW1326 00:00:02:41 7914271000181016.3
**
 
2259 DW1142 00:00:02:41 600614800341016.0
**
 
2260 EW5638 00:00:02:41 3002272000861011.3
**
 
2261 DW1174 00:00:02:41 5081710481009.2
**
 
2262 CW1704 .
**
 
2263 cw3292 00:00:02:41 3900000.310721017.5
**
 
2264 EW8570 00:00:02:42 5714102000291013.1
**
 
2265 EW7514 00:00:02:42 6626319000531018.7
**
 
2266 DW4127 00:00:02:42 6901314300401010.8
**
 
2267 DW6169 00:00:02:42 12900.011011.3
**
 
2268 EW3560 00:00:02:42 3712181000551020.1
**
 
2269 DW8406 00:00:02:42 5215169000501016.6  
2270 FW0683 00:00:02:42 510340000371015.5  
2271 FW0972 00:00:02:42 8135135000191013.0
**
 
2272 DW0217 00:00:02:42 4072720.01711008.0
**
 
2273 CW9060 00:00:02:42 536917702.870.73961014.4
**
 
2274 EW5224 00:00:02:43 5227135000371008.7
**
 
2275 EW5900 00:00:02:43 617729300.150.05861012.5
**
 
2276 DW7772 00:00:02:43 671326333000211013.0
**
 
2277 DW8108 00:00:02:43 571026188000561003.6
**
 
2278 CW5768 00:00:02:43 7401233000261009.9
**
 
2279 EW3517 00:00:02:43 771022221000271005.6
**
 
2280 DW9800 00:00:02:43 43121730600.130.01771021.1
**
 
2281 EW3139 00:00:02:44 3951317500.060.05931000.7
**
 
2282 DW4798 00:00:02:44 8400000221010.1
**
 
2283 EW7454 00:00:02:44 651627000014985.4
**
 
2284 EW1872 00:00:02:44 3241928700.0401998.6
**
 
2285 EW7560 00:00:02:44 51917353000681000.1
**
 
2286 DW5145 00:00:02:44 7647277000271013.2
**
 
2287 EW1917 00:00:02:44 50007800911020.1
**
 
2288 CW7724 00:00:02:44 60414234000311012.7
**
 
2289 EW2699 00:00:02:44 3500000901012.2
**
 
2290 FW0240 00:00:02:44 48556800871018.2
**
 
2291 FW0351 00:00:02:44 623327000511011.2
**
 
2292 DW8324 00:00:02:44 4813172800.010.050.05501008.6
**
 
2293 DW1133 00:00:02:44 4904167000531012.4
**
 
2294 EW9295 00:00:02:44 47678000621015.5
**
 
2295 FW0987 00:00:02:44 8235225000211012.9
**
 
2296 FW1059 00:00:02:44 6357270000161029.7  
2297 FW0745 00:00:02:44 8212202000331008.2
**
 
2298 CW6155 00:00:02:44 74813221000371015.2
**
 
2299 EW4552 00:00:02:45 45310298000591012.7
**
 
2300 EW8094 00:00:02:45 6703319000691018.6
**
 
2301 EW5272 00:00:02:45 58314265000291011.2
**
 
2302 CW9072 00:00:02:45 76210177000231016.4
**
 
2303 DW5852 00:00:02:45 580135500331019.4
**
**
2304 EW8477 00:00:02:45 502322500441018.0
**
 
2305 EW4196 00:00:02:45 7418221000271007.7
**
 
2306 EW8738 00:00:02:45 6726131000571014.5
**
 
2307 EW9605 00:00:02:45 680000.050.05871013.6
**
 
2308 FW0419 00:00:02:45 5015167000451016.9
**
 
2309 FW1194 00:00:02:45 5871520700045997.5  
2310 EW5204 00:00:02:45 6623180301023.4
**
 
2311 FW1685 00:00:02:45 6958315000401017.6  
2312 EW4060 00:00:02:46 42012640.020.050.0578993.8
**
 
2313 EW8095 00:00:02:46 5113171000411016.5
**
 
2314 EW5710 00:00:02:46 302435900082998.7
**
 
2315 DW3101 00:00:02:46 7723232000331012.4
**
 
2316 EW3197 00:00:02:46 4836187000441013.3
**
 
2317 CW1707 00:00:02:46 68720192000411000.8
**
**
2318 EW7717 00:00:02:46 662630000.020191012.3
**
 
2319 CW6277 00:00:02:46 49005000431014.7
**
 
2320 EW4771 00:00:02:46 54131400.020.02921020.9  
2321 DW9923 00:00:02:46 7900288000301059.3
**
 
2322 EW7376 00:00:02:46 75514115000271009.5
**
 
2323 DW0224 00:00:02:46 530024200.020.01751011.8
**
 
2324 EW9917 00:00:02:46 221360  
2325 EW5179 00:00:02:46 54612136000561024.4
**
 
2326 FW1094 00:00:02:46 561118225000371027.1
**
 
2327 EW2066 00:00:02:46 5013201001001018.3
**
 
2328 FW1633 00:00:02:46 5146260000381016.2
**
 
2329 CW0677 00:00:02:46 57002700.020.02941020.5
**
**
2330 DW5779 00:00:02:47 73513213000341014.0
**
**
2331 EW6657 00:00:02:47 700035800.10.03671012.3
**
 
2332 DW2633 00:00:02:47 47112220611011.7
**
 
2333 EW4727 00:00:02:47 593920000.010.011001016.5
**
 
2334 DW2629 00:00:02:47 494121090.010.230.01631017.1
**
 
2335 DW6778 00:00:02:47 75712200000271011.1
**
 
2336 DW1450 00:00:02:47 5705341000551014.5
**
 
2337 EW7456 00:00:02:47 45152422000.020681002.9  
2338 FW0414 00:00:02:47 59203250471019.7  
2339 EW7389 00:00:02:48 7412225000231016.9
**
 
2340 CW1792 00:00:02:48 610241000951018.9
**
**
2341 CW2157 00:00:02:48 5361017900.010.01541016.0
**
 
2342 DW5822 00:00:02:48 580031900.010.01781017.4
**
 
2343 EW1454 00:00:02:48 5248218000361013.2
**
 
2344 CW8876 00:00:02:48 470312600.360.03931019.7
**
 
2345 EW5331 00:00:02:48 5829210000331012.2
**
 
2346 EW8711 00:00:02:48 4914315000531017.1
**
 
2347 DW5360 00:00:02:48 47001400581014.7
**
 
2348 DW0328 00:00:02:48 8113114000321013.1
**
 
2349 EW2591 00:00:02:48 4851321600043
**
 
2350 EW2518 00:00:02:48 66162050.010.010.01571012.3  
2351 FW1513 00:00:02:48 6625120000541012.9  
2352 EW0351 00:00:02:48 75621261030999.4
**
 
2353 EW1161 00:00:02:49 572716000561015.9
**
**
2354 DW7027 00:00:02:49 4238225000931017.0
**
 
2355 DW3982 00:00:02:49 5146263000391014.2
**
 
2356 FW0121 00:00:02:49 6217233000231011.3
**
 
2357 EW9507 00:00:02:49 46162433100036844.2
**
 
2358 EW3852 00:00:02:49 5551322300060997.6
**
 
2359 EW8385 00:00:02:49 51612237000451007.1
**
 
2360 EW9753 00:00:02:49 563720700030969.9
**
 
2361 EW8559 00:00:02:49 4818196000441015.6  
2362 CW7546 00:00:02:50 481426800.170.16931012.2
**
 
2363 CW6867 00:00:02:50 3100210000891007.4
**
 
2364 CW0467 00:00:02:50 4718231000581014.6
**
 
2365 EW7003 00:00:02:50 69713314000221008.3
**
 
2366 DW8965 00:00:02:50 4700000.160.14931011.2
**
 
2367 DW8828 00:00:02:50 71511162000311010.9
**
 
2368 DW4408 00:00:02:50 610315000601014.6
**
 
2369 EW9025 00:00:02:50 51920200000371007.7
**
 
2370 EW7054 00:00:02:50 5336270000721015.6
**
 
2371 CW8854 00:00:02:50 401320100.180821018.1
**
 
2372 DW4421 00:00:02:51 75000361011.6
**
 
2373 DW9073 00:00:02:51 7106122000531015.1
**
 
2374 DW5936 00:00:02:51 441313500.210.13831012.1
**
 
2375 EW6044 00:00:02:51 51617296000331019.3
**
 
2376 DW7627 00:00:02:51 50284500.070.0174
**
 
2377 DW0727 00:00:02:51 451429200.120.12741007.5
**
 
2378 DW7767 00:00:02:51 4814158000501010.5
**
 
2379 DW9727 00:00:02:51 672437318000461000.0
**
 
2380 DW0207 00:00:02:51 5802298000301022.6
**
 
2381 DW9528 00:00:02:51 56003300.020.02901019.0
**
 
2382 EW2687 00:00:02:51 441520349000781014.6
**
 
2383 EW2320 00:00:02:51 5439270000311023.8
**
 
2384 EW8487 00:00:02:51 550017100030
**
 
2385 EW9696 00:00:02:51 573551000851020.8
**
 
2386 EW9792 00:00:02:51 7913265000581010.6
**
 
2387 FW1017 00:00:02:51 52771012.6  
2388 DW8359 00:00:02:51 6261716000.030.0147997.5
**
 
2389 CW9533 00:00:02:51 61009000771041.8
**
 
2390 DW9628 00:00:02:51 37102370761003.4
**
 
2391 DW9717 00:00:02:51 5035231000361003.2
**
 
2392 CW2693 00:00:02:51 690035000851011.8
**
 
2393 EW3096 00:00:02:52 7516278000331009.8
**
 
2394 EW6587 00:00:02:52 5937258000551010.7  
2395 DW1247 00:00:02:52 6731031800.060821010.7
**
 
2396 EW2286 00:00:02:52 451120139000681005.7
**
 
2397 EW6228 00:00:02:52 70814229000331015.5
**
 
2398 EW8645 00:00:02:52 5600224000901014.1
**
 
2399 EW1397 00:00:02:52 28412275000571007.6
**
 
2400 EW2652 00:00:02:52 7813261000331014.6
**
 
2401 CW4407 00:00:02:52 6426165000381011.1
**
 
2402 CW1292 00:00:02:52 50014400.020.02871011.5
**
 
2403 EW3941 00:00:02:52 653815700.440.04881018.5
**
 
2404 CW2927 00:00:02:52 39512210000811009.1
**
 
2405 DW7850 00:00:02:52 6800350000331003.8
**
 
2406 DW0618 00:00:02:52 6100326000831018.4
**
 
2407 EW3827 00:00:02:52 5029286000381014.9
**
 
2408 EW9526 00:00:02:52 810611200049998.0  
2409 EW3283 00:00:02:53 611603220481000.4
**
 
2410 EW2522 00:00:02:53 380400.010.330.33981005.0
**
**
2411 DW6632 00:00:02:53 6612213000391019.0  
2412 CW4047 00:00:02:53 5325190000431015.3
**
 
2413 EW6625 00:00:02:53 44010134000461016.6
**
 
2414 DW3724 00:00:02:53 4402248000821018.3
**
 
2415 CW3882 00:00:02:53 59202920700054993.5
**
**
2416 DW3332 00:00:02:53 4411112000951019.1
**
 
2417 EW4185 00:00:02:53 52121524400.050611019.7
**
 
2418 DW8741 00:00:02:53 6181622300049974.0
**
 
2419 DW3377 00:00:02:53 7225205000361015.1
**
 
2420 EW3526 00:00:02:53 4931410000.060781018.2
**
 
2421 EW8019 00:00:02:53 44143120.050.350.35951010.6
**
 
2422 EW6797 00:00:02:53 593716900049980.3
**
 
2423 FW0917 00:00:02:53 49510211000431013.7  
2424 FW1404 00:00:02:53 53916215000721010.7
**
 
2425 EW4491 00:00:02:53 434620500.20781020.1
**
 
2426 DW8962 00:00:02:53 14000000791002.1
**
 
2427 EW4490 00:00:02:54 571528223000291013.3
**
 
2428 CW5260 00:00:02:54 5000211000381015.2
**
**
2429 DW9718 00:00:02:54 8303159000251013.3
**
 
2430 DW2908 00:00:02:54 41121900001001010.5
**
 
2431 CW5439 00:00:02:54 3391724100.030.03971005.0
**
 
2432 DW1274 00:00:02:54 671101700.140.01731008.8
**
 
2433 EW5030 00:00:02:54 42027900.50.48941010.5  
2434 EW1953 00:00:02:54 4501672931010.8
**
 
2435 DW9580 00:00:02:54 431422600.640.64941010.5
**
 
2436 EW3830 00:00:02:54 430023600.30.3941011.6
**
 
2437 CW5022 00:00:02:54 493716200.290751019.6
**
 
2438 CW7457 00:00:02:54 411227300.180.18861011.9
**
 
2439 EW8311 00:00:02:54 7701328000191010.5
**
 
2440 CW4647 00:00:02:54 816102000.12821005.1
**
 
2441 EW7258 00:00:02:54 4442980611008.8
**
 
2442 EW5835 00:00:02:54 5025254000441014.4
**
 
2443 EW8329 00:00:02:54 733632400.10.01751008.1
**
 
2444 CW1855 00:00:02:54 64611254341020.4
**
**
2445 CW8767 00:00:02:54 5501227000451015.8
**
 
2446 EW9107 00:00:02:54 36132760.090.120.09931009.9  
2447 EW9212 00:00:02:54 421227100.380.38971012.5  
2448 CW5847 00:00:02:54 4819195000411012.7  
2449 EW2529 00:00:02:54 4900225000951021.4
**
 
2450 EW7269 00:00:02:54 5500315000401018.6
**
 
2451 cw9147 00:00:02:54 3300123000961010.4  
2452 FW0546 00:00:02:54 64247700.210.2941010.6
**
 
2453 CW9995 00:00:02:54 664238038997.8
**
 
2454 FW0824 00:00:02:54 573734300058994.1  
2455 DW2185 00:00:02:54 721225199000261011.0
**
 
2456 EW6212 00:00:02:54 6669286000911006.3
**
**
2457 FW1178 00:00:02:54 54023150.030.110.11781012.6  
2458 DW9932 00:00:02:54 44031120001001022.3
**
 
2459 DW1006 00:00:02:54 450214400.620.62941012.4  
2460 DW1842 00:00:02:54 416821600.060.06951006.8  
2461 EW7982 00:00:02:55 5346172000331012.8
**
 
2462 EW1657 00:00:02:55 5467260000281008.5
**
 
2463 EW3565 00:00:02:55 47261000501014.1
**
 
2464 DW2845 00:00:02:55 70711100000171011.6
**
 
2465 DW9872 00:00:02:55 4949169000401014.6
**
 
2466 DW3230 00:00:02:55 761420304181010.1
**
 
2467 DW3439 00:00:02:55 8102175000291013.2
**
 
2468 EW2330 00:00:02:55 53515165000451013.8
**
 
2469 EW4897 00:00:02:55 58923299000441014.8
**
 
2470 CW9585 00:00:02:55 68010000751014.6
**
 
2471 EW5207 00:00:02:55 4925227000401014.6
**
 
2472 EW6598 00:00:02:55 802918000.050.0528953.6
**
 
2473 DW5453 00:00:02:55 4515000.570.57961011.5
**
 
2474 EW6298 00:00:02:55 3761116100.060911002.4
**
 
2475 DW2817 00:00:02:55 3700352000791007.4
**
 
2476 EW3886 00:00:02:55 52482100.040.140.14911012.2
**
 
2477 DW0835 00:00:02:55 6211311000042997.8
**
 
2478 CW7747 00:00:02:55 411320200.040.04901003.3
**
 
2479 EW2295 00:00:02:55 430224400.450.45961011.7
**
 
2480 DW9407 00:00:02:55 58482450501018.3
**
 
2481 DW0243 00:00:02:55 420015200.480.17961011.1
**
 
2482 DW1512 00:00:02:55 3500180000961011.9
**
 
2483 EW5407 00:00:02:55 75714190000601017.5
**
 
2484 EW1154 00:00:02:55 532327200.010.01831010.6
**
 
2485 EW0213 00:00:02:55 511309000921020.5
**
 
2486 EW9457 00:00:02:55 60716208000521000.9
**
 
2487 FW0067 00:00:02:55 5500323000871018.5
**
 
2488 DW9132 00:00:02:55 624614800.650.021001007.5  
2489 EW8437 00:00:02:55 34910105691017.7
**
 
2490 FW1047 00:00:02:55 5214143000411013.6  
2491 DW5247 00:00:02:55 35460000941005.1
**
 
2492 CW0707 00:00:02:55 4871722800.060501020.4
**
 
2493 FW1155 00:00:02:55 71713278000361014.5  
2494 FW1417 00:00:02:55 4826185000451015.9
**
 
2495 DW6007 00:00:02:55 430327400.090.09831011.4
**
 
2496 DW2795 00:00:02:55 510025200.210861015.2
**
 
2497 EW8592 00:00:02:55 442231500.620841010.6
**
 
2498 DW1177 00:00:02:55 4942790.030.01781010.0
**
 
2499 EW9432 00:00:02:55 4922206000421017.0
**
 
2500 CW9381 00:00:02:55 4541127700.020.0287994.0
**
 
2501 DW2887 00:00:02:55 5533100.060461022.4
**
 
2502 CW7840 00:00:02:56 5304135000511012.7
**
 
2503 EW7355 00:00:02:56 5226149000471014.8
**
 
2504 EW5956 00:00:02:56 5400277000961022.0
**
 
2505 EW3497 00:00:02:56 49232900.010761020.7
**
 
2506 DW6947 00:00:02:56 5691230200061995.4
**
 
2507 CW0297 00:00:02:56 5258167000371017.0
**
**
2508 EW5187 00:00:02:56 556828000781008.2
**
 
2509 EW1773 00:00:02:56 48071700.010911017.7
**
 
2510 DW5182 00:00:02:56 5013127000411016.0
**
 
2511 EW4337 00:00:02:56 410021400.050.05951011.7
**
 
2512 CW6398 00:00:02:56 480012000811013.6
**
 
2513 EW1488 00:00:02:56 681123285000231009.9
**
 
2514 DW2411 00:00:02:56 3700314000841011.2
**
**
2515 ew3379 00:00:02:56 48410137000441015.2
**
 
2516 EW8917 00:00:02:56 7647245000231009.9
**
 
2517 DW9097 00:00:02:56 4900338000821018.5
**
 
2518 DW8882 00:00:02:56 673830000.60.01861011.3
**
 
2519 CW2377 00:00:02:56 59416172000401000.2
**
 
2520 DW0777 00:00:02:55 611324000321014.5
**
 
2521 DW8679 00:00:02:56 6536128000751014.0
**
 
2522 EW4187 00:00:02:56 554720300035
**
 
2523 EW9957 00:00:02:56 8102101000281015.0
**
 
2524 DW7572 00:00:02:56 61243033400057996.8
**
**
2525 FW1042 00:00:02:56 7449168000341009.5  
2526 EW6052 00:00:02:56 493515600.130.01901019.7
**
 
2527 DW3607 00:00:02:56 511020196000471039.9
**
 
2528 CW8212 00:00:02:56 520184000401015.2
**
 
2529 FW1131 00:00:02:56 5003260000771018.4  
2530 DW6643 00:00:02:56 4011221000.020.02601010.4
**
 
2531 DW8690 00:00:02:57 68410359000261017.3
**
 
2532 EW8125 00:00:02:57 35000000791019.9
**
 
2533 DW3886 00:00:02:57 654162210049994.9
**
 
2534 EW4096 00:00:02:57 5300132000441013.7
**
 
2535 DW6994 00:00:02:57 491416600.270791016.8
**
 
2536 DW9527 00:00:02:57 71612258000341005.7
**
 
2537 EW6187 00:00:02:57 5047199000441012.1
**
 
2538 CW3017 00:00:02:57 12918170001000.9
**
 
2539 EW4547 00:00:02:57 5535300000521016.7
**
 
2540 EW0906 00:00:02:57 6614186000681014.9
**
 
2541 DW4047 00:00:02:57 5436181000381015.1
**
 
2542 CW8192 00:00:02:57 47713190000501013.2
**
 
2543 DW5082 00:00:02:57 4826238000431016.3
**
**
2544 EW3462 00:00:02:57 48810217000471013.9
**
 
2545 EW3326 00:00:02:57 4925218000461012.9
**
 
2546 CW5277 00:00:02:57 7729600.110721012.3
**
 
2547 EW8827 00:00:02:57 415122580.010.310.1977994.9
**
 
2548 EW5238 00:00:02:57 7149262000371013.7
**
 
2549 EW7715 00:00:02:57 702435000027997.6
**
 
2550 EW0311 00:00:02:57 6041312800022982.8
**
**
2551 FW0417 00:00:02:57 6600340000331004.7
**
 
2552 DW0367 00:00:02:57 6923226000351006.6
**
 
2553 EW4760 00:00:02:58 73101924400035998.6
**
 
2554 DW6201 00:00:02:58 59772650057995.7
**
 
2555 EW0362 00:00:02:58 4723219000581013.4
**
 
2556 DW5467 00:00:02:58 6613273000411015.9
**
 
2557 EW0997 00:00:02:58 430122700.140.14911012.1
**
 
2558 EW7082 00:00:02:58 45008300.020971017.6
**
 
2559 DW2182 00:00:02:58 62122232100055996.4
**
**
2560 FW0299 00:00:02:58 4435000.030.02941021.2  
2561 EW9727 00:00:02:58 611133600.010.01481015.2
**
 
2562 EW7211 00:00:02:58 8026288000721010.2
**
 
2563 FW1792 00:00:02:58 4601115000881022.1  
2564 DW8468 00:00:02:59 5227222000421014.8
**
 
2565 DW3024 00:00:02:59 5551316100.030.0258994.9
**
 
2566 EW6136 00:00:02:59 4003245000881005.3
**
 
2567 DW3807 00:00:02:59 58913171000451000.0
**
 
2568 CW0637 00:00:02:59 603835500.010351013.5
**
 
2569 DW3297 00:00:02:59 673554000271012.1
**
 
2570 CW5897 00:00:02:59 4639235000481013.9
**
 
2571 DW6832 00:00:02:59 572530700060993.6  
2572 DW8131 00:00:02:59 4182430831005.0
**
 
2573 EW2493 00:00:02:59 52212731800065994.9
**
 
2574 DW9882 00:00:02:59 672686000241012.3
**
 
2575 CW5612 00:00:02:59 5513298000401016.1
**
 
2576 EW8324 00:00:02:59 6715161000391012.0
**
 
2577 EW6531 00:00:02:59 7859307000351015.2
**
 
2578 EW7037 00:00:02:59 5269225000481008.7
**
 
2579 EW9681 00:00:02:59 5159155000391009.8
**
 
2580 CW2392 00:00:02:59 50000000511012.1
**
 
2581 EW1869 00:00:02:59 600167000511017.1
**
 
2582 DW7365 00:00:02:59 340019400.010861013.2
**
 
2583 DW5628 00:00:03:00 681523226000381000.3
**
 
2584 CW9321 00:00:03:00 491428267000401009.4
**
 
2585 DW3765 00:00:03:00 701015196000381014.1
**
 
2586 CW7174 00:00:03:00 5102225000411013.9  
2587 EW1392 00:00:03:00 3800670.010.280.06991019.1
**
 
2588 EW0072 00:00:03:00 67144700026996.0
**
 
2589 EW0690 00:00:03:00 510120300.010.01881021.5
**
 
2590 EW5301 00:00:03:00 6028173000281013.7
**
 
2591 EW5352 00:00:03:00 70814217000371001.9
**
 
2592 CW0597 00:00:03:00 502826000.240.2531019.8
**
 
2593 FW0671 00:00:03:00 5371512200.060.05931013.6  
2594 EW4162 00:00:03:00 5138182000401005.6
**
 
2595 CW5255 00:00:03:00 54210164000331015.7
**
 
2596 EW4074 00:00:03:00 5303109000451025.0
**
 
2597 EW3662 00:00:03:00 5938154000471010.1
**
 
2598 CW8866 00:00:03:01 041570001015.6
**
**
2599 DW4166 00:00:03:01 6408360000431011.1
**
 
2600 DW7002 00:00:03:01 560180000421014.7
**
 
2601 EW0090 00:00:03:01 6159169000391017.1
**
 
2602 CW9809 00:00:03:01 4818206000411015.3
**
 
2603 DW2753 00:00:03:01 470370000901015.6
**
 
2604 EW2864 00:00:03:01 79020000221014.1
**
 
2605 FW1733 00:00:03:01 52121611000781015.0  
2606 EW5931 00:00:03:02 50221100.03941022.4  
2607 EW2883 00:00:03:02 715110000351008.7
**
 
2608 EW4963 00:00:03:02 74615179000321007.9
**
 
2609 CW7496 00:00:03:02 75261300441012.4
**
**
2610 CW2692 00:00:03:02 400325700.150.1192993.6
**
**
2611 CW7882 00:00:03:02 480015000.10251016.3
**
 
2612 EW4927 00:00:03:03 311329000.010.01921011.3
**
 
2613 DW8947 00:00:03:03 481520500.280.01911017.1
**
 
2614 DW8199 00:00:03:03 52511228000381011.8
**
 
2615 EW8220 00:00:03:03 501824400.170761019.9
**
 
2616 EW8998 00:00:03:03 7200200000411015.0
**
 
2617 FW0478 00:00:03:03 571693000341003.2
**
 
2618 EW8143 00:00:03:03 3671220200.050.04881000.0
**
 
2619 EW5134 00:00:03:04 49616217000451011.2
**
 
2620 CW8826 00:00:03:04 57295000461014.2
**
 
2621 EW5780 00:00:03:04 5834000.010.01911019.3
**
 
2622 EW5865 00:00:03:04 5402135000321013.5
**
 
2623 EW5112 00:00:03:04 470112700.190.02921020.9
**
 
2624 EW6527 00:00:03:04 441227400.010.01921015.0
**
 
2625 EW9452 00:00:03:04 69045100.420.18821012.3
**
 
2626 DW4390 00:00:03:04 78101410271013.2
**
 
2627 EW0065 00:00:03:04 6714203000751017.3
**
 
2628 DW8418 00:00:03:04 420022100.120.12921011.7
**
 
2629 EW4743 00:00:03:04 82151130181011.5
**
**
2630 FW1562 00:00:03:04 70713156000361014.9
**
 
2631 FW1867 00:00:03:04 8157112000821014.2  
2632 EW2516 00:00:03:05 431016248000511004.9
**
 
2633 CW4114 00:00:03:05 56152223700055993.9
**
 
2634 DW2944 00:00:03:05 421220100.020.02691010.2
**
 
2635 EW6865 00:00:03:05 233566000421000.0
**
 
2636 CW7241 00:00:03:05 5101115900351010.0
**
**
2637 EW1786 00:00:03:05 50002300891020.3
**
 
2638 EW5444 00:00:03:05 53001190.01931020.5
**
 
2639 DW5921 00:00:03:05 6501115000321016.3
**
 
2640 DW5754 00:00:03:05 6536111000341016.8
**
**
2641 DW5933 00:00:03:05 3349360000941009.7
**
 
2642 CW5863 00:00:03:05 764102370.08711012.2
**
 
2643 FW0022 00:00:03:05 4131924800.140.0196993.4
**
 
2644 FW0465 00:00:03:05 6725305000681018.7  
2645 FW0628 00:00:03:05 62410237000411015.1  
2646 FW0468 00:00:03:05 6349199000601014.4
**
 
2647 CW3782 00:00:03:05 563315000311014.5
**
 
2648 DW9125 00:00:03:06 41111736000.050.05751009.2
**
 
2649 DW5963 00:00:03:06 47142910.04691006.0
**
 
2650 EW8337 00:00:03:06 65717284000221013.0
**
 
2651 DW9509 00:00:03:06 65132321900043994.7
**
 
2652 DW8013 00:00:03:06 44002940.090.440.44881012.8
**
 
2653 EW9192 00:00:03:06 46213221000591007.3
**
 
2654 EW9580 00:00:03:06 493817100.010.01401015.8
**
 
2655 FW1160 00:00:03:06 48132013800.120.01821016.9  
2656 CW7375 00:00:03:06 5537257000441014.6
**
 
2657 EW5029 00:00:03:07 430226700.120.12811012.5
**
 
2658 EW3763 00:00:03:07 6612257000421016.9
**
 
2659 EW6190 00:00:03:07 4737282000411016.1
**
 
2660 DW3442 00:00:03:07 6491540181004.4
**
 
2661 EW9648 00:00:03:07 5627261000351015.2
**
 
2662 CW9638 00:00:03:07 72142527500035996.2
**
 
2663 FW1331 00:00:03:07 7605184000201013.3
**
 
2664 CW9319 00:00:03:07 60192523400048997.4
**
 
2665 DW7035 00:00:03:08 5601222000481020.0
**
 
2666 DW3235 00:00:03:08 5111119500.040.0464992.8
**
 
2667 EW1026 00:00:03:08 49311329000721013.1
**
 
2668 DW3049 00:00:03:08 481711300.010831012.7  
2669 EW9688 00:00:03:08 681419315000201011.8
**
 
2670 CW4232 00:00:03:08 7991549000191018.2
**
**
2671 EW3994 00:00:03:09 6436340000811010.7
**
 
2672 DW8490 00:00:03:09 68814231000301006.8
**
 
2673 EW6856 00:00:03:09 63510147000321014.0
**
 
2674 DW0596 00:00:03:09 330033300911011.9
**
 
2675 cw9326 00:00:03:09 680727000281178.2  
2676 EW7423 00:00:03:09 722327000.050.01631012.0
**
 
2677 DW4161 00:00:03:09 56921311000261015.6
**
 
2678 EW6993 00:00:03:09 8700113000321011.2
**
 
2679 EW4556 00:00:03:09 4704111000481013.2
**
 
2680 DW6924 00:00:03:09 5106155000381016.7
**
 
2681 EW9739 00:00:03:09 6702600.010.190.05871011.8
**
 
2682 DW7575 00:00:03:09 7051328000038999.4
**
 
2683 FW0434 00:00:03:09 4821736000.030.0386997.2
**
 
2684 EW3383 00:00:03:09 503544000471014.1
**
 
2685 FW0837 00:00:03:09 46410211000551014.9
**
 
2686 FW1825 00:00:03:09 47917200000431009.6
**
 
2687 EW5825 00:00:03:10 643771000351015.7
**
 
2688 EW6129 00:00:03:10 383421200.040.04901010.0
**
 
2689 CW8069 00:00:03:10 60823225000501001.7
**
 
2690 DW5495 00:00:03:10 3681929000.360591006.0
**
 
2691 EW5093 00:00:03:10 7302155000341014.8
**
 
2692 EW1487 00:00:03:11 60121718600029989.3
**
 
2693 DW1463 00:00:03:11 4402860.2811011.7
**
 
2694 CW1913 00:00:03:11 631436000.950.04901014.7
**
 
2695 EW9805 00:00:03:11 5026227000401014.7
**
 
2696 CW9396 00:00:03:11 7902196000261013.4
**
 
2697 EW7802 00:00:03:11 65412182000381025.6
**
 
2698 EW2041 00:00:03:11 784431500981007.2
**
 
2699 DW5721 00:00:03:11 4428296000641018.5
**
 
2700 FW1688 00:00:03:11 804930800.70641010.6  
2701 EW7528 00:00:03:12 450021300.160.16931010.7
**
 
2702 EW6944 00:00:03:12 5525194000281012.6
**
 
2703 CW9901 00:00:03:12 61819175000481002.0
**
**
2704 EW6012 00:00:03:12 551218180000381004.4
**
 
2705 EW2458 00:00:03:12 -41612257000261018.2
**
 
2706 EW9709 00:00:03:12 56009200.060951016.4
**
 
2707 EW9733 00:00:03:12 5015263000471015.5
**
 
2708 EW9345 00:00:03:12 5117222000341014.5
**
 
2709 FW0384 00:00:03:12 530228400.050.05871016.0  
2710 CW8539 00:00:03:12 6500201000811017.2
**
 
2711 FW0496 00:00:03:12 7161178000791010.1
**
 
2712 DW2882 00:00:03:12 5201760471009.9
**
 
2713 DW6357 00:00:03:12 67413200000381005.4
**
 
2714 EW8424 00:00:03:13 7800180000351014.4
**
 
2715 CW8190 00:00:03:13 550327000371015.8
**
 
2716 EW2486 00:00:03:13 5328231000421011.1
**
 
2717 EW3511 00:00:03:13 4800000691015.7
**
 
2718 CW7566 00:00:03:13 55000541013.2
**
**
2719 EW6024 00:00:03:14 5303190421015.8
**
 
2720 DW0950 00:00:03:14 5400178000831020.9  
2721 EW0051 00:00:03:14 420121700.050.04921009.4
**
 
2722 FW0191 00:00:03:14 59915352000411025.1  
2723 DW3537 00:00:03:14 71414225000171011.1  
2724 DW1541 00:00:03:15 480024900.370881019.6
**
 
2725 EW5802 00:00:03:15 5368205000331015.2
**
 
2726 DW4937 00:00:03:15 54515185000421007.6
**
 
2727 CW4797 00:00:03:15 4315280000641012.1
**
 
2728 DW3111 00:00:03:15 5916211000561016.9
**
 
2729 CW4176 00:00:03:15 48418000811020.6
**
 
2730 EW8183 00:00:03:15 52411252000431008.5  
2731 FW1015 00:00:03:15 606615800521000.0  
2732 EW5756 00:00:03:16 605931500.060.3931011.5
**
 
2733 EW3012 00:00:03:16 370068000941024.4
**
 
2734 DW2973 00:00:03:16 3942230.03911006.4
**
 
2735 FW0956 00:00:03:16 46311246000321011.9  
2736 EW6134 00:00:03:16 47111718000.040711023.5
**
 
2737 EW4223 00:00:03:16 4224228000581009.8
**
 
2738 DW9869 00:00:03:17 420027100.210631021.0
**
 
2739 EW1517 00:00:03:17 7121458000821015.8
**
 
2740 CW6407 00:00:03:17 494101790.010.010.01871014.5
**
 
2741 EW6959 00:00:03:17 480629900.030771019.1
**
 
2742 EW5141 00:00:03:17 49713150000431011.8
**
 
2743 EW6417 00:00:03:17 69410174000361007.3
**
 
2744 EW0417 00:00:03:17 534126200054925.0
**
 
2745 DW4129 00:00:03:17 5414163000371016.4
**
 
2746 DW2851 00:00:03:17 4071725900.010.01801009.7
**
 
2747 DW6095 00:00:03:17 396122990.010.230.19801001.4
**
 
2748 EW9039 00:00:03:17 642993000721018.8
**
 
2749 EW9054 00:00:03:17 5714261000481022.4
**
 
2750 EW9765 00:00:03:17 5251217200055976.3
**
 
2751 FW0313 00:00:03:17 62132220900051997.8
**
 
2752 FW1500 00:00:03:17 6259262000461014.0
**
 
2753 EW4633 00:00:03:18 5328205000421010.7
**
 
2754 CW6761 00:00:03:18 5523510.43751021.8
**
 
2755 DW6579 00:00:03:18 68821311000201010.6
**
 
2756 EW6764 00:00:03:18 420326900.080581021.5
**
 
2757 EW5836 00:00:03:18 4700135000851018.4
**
 
2758 EW5374 00:00:03:18 49715200000491010.5
**
 
2759 EW7226 00:00:03:18 790369000181011.1
**
 
2760 EW3540 00:00:03:18 4838225000211011.6
**
 
2761 EW8756 00:00:03:18 4851013500.120771020.3
**
 
2762 FW0436 00:00:03:18 6636355000251017.0  
2763 EW2140 00:00:03:18 6838163000581017.5
**
 
2764 CW4771 00:00:03:18 3800150000791010.4  
2765 EW7368 00:00:03:19 512759000501015.8
**
 
2766 EW2824 00:00:03:19 4502500.390.08941017.3
**
 
2767 CW3468 00:00:03:19 7437252000351015.7
**
**
2768 DW3267 00:00:03:19 5759202000431016.3
**
 
2769 DW3592 00:00:03:19 4902480441015.8
**
 
2770 DW1254 00:00:03:19 7712221000181024.7
**
 
2771 DW7371 00:00:03:19 4812231510861016.5
**
 
2772 CW1662 00:00:03:19 5369200000391013.5
**
 
2773 DW6071 00:00:03:19 6514122000321012.6
**
 
2774 EW0601 00:00:03:19 71011286000111009.8
**
 
2775 EW4304 00:00:03:19 53411200000381011.3
**
 
2776 EW3910 00:00:03:19 4931418300.090.01871016.4
**
 
2777 FW0594 00:00:03:19 411211000841012.0  
2778 EW6715 00:00:03:19 511424000451013.3
**
 
2779 CW4650 00:00:03:19 512820800.090551019.6
**
 
2780 EW5657 00:00:03:20 681316200.020861012.9
**
 
2781 EW5723 00:00:03:20 71292700331011.9
**
 
2782 EW3344 00:00:03:20 62618198000431006.9
**
 
2783 CW6382 00:00:03:20 66414315000191023.6
**
 
2784 EW5304 00:00:03:20 5116216000391012.8
**
 
2785 DW6392 00:00:03:20 6434144000321018.6
**
 
2786 CW1837 00:00:03:20 49618252000631006.4
**
 
2787 FW0688 00:00:03:20 6624219000741023.6
**
**
2788 EW9174 00:00:03:20 6901277000251003.7
**
 
2789 DW9249 00:00:03:21 5100211000421006.7
**
 
2790 EW4245 00:00:03:21 7102225000381013.6
**
 
2791 EW4792 00:00:03:21 68812186000471014.3
**
 
2792 EW5901 00:00:03:21 7702190000221015.7  
2793 EW6439 00:00:03:21 5401000381011.8
**
 
2794 EW4279 00:00:03:21 4449193000621012.6
**
 
2795 EW8828 00:00:03:21 710289000741015.2
**
 
2796 DW2019 00:00:03:22 62102419400048998.0
**
**
2797 DW3766 00:00:03:22 71816195000291014.1
**
 
2798 CW8193 00:00:03:22 7002193000351014.3
**
 
2799 DW5776 00:00:03:22 5421710411016.2
**
 
2800 DW5481 00:00:03:22 712239314000341004.3
**
 
2801 EW0105 00:00:03:22 54919180000581008.6
**
 
2802 EW3736 00:00:03:22 49152680361015.8  
2803 EW3297 00:00:03:22 45133320.060.520.52931011.5
**
 
2804 DW5497 00:00:03:22 60122622400049999.1
**
 
2805 CW8287 00:00:03:22 590021200.030.03871038.1
**
 
2806 DW2822 00:00:03:22 4913297000621012.2
**
 
2807 DW9476 00:00:03:22 7502167000391013.3
**
 
2808 FW0379 00:00:03:22 502463000.01651015.3  
2809 CW2046 00:00:03:22 550412700031636.6
**
 
2810 DW3494 00:00:03:23 442800541008.8
**
 
2811 DW8823 00:00:03:23 6581820400046994.9
**
 
2812 EW4329 00:00:03:23 3591729800.210671012.6
**
 
2813 DW8661 00:00:03:23 5602120.02711018.9
**
 
2814 EW7947 00:00:03:23 686284024832.7  
2815 DW6208 00:00:03:23 56202622400057995.4
**
 
2816 EW6448 00:00:03:23 5728294000531014.0
**
 
2817 FW0675 00:00:03:23 450011000.0301001021.3
**
 
2818 EW4266 00:00:03:23 4110191730.020.060.06651010.6
**
 
2819 EW7739 00:00:03:24 601223201000491001.6
**
 
2820 CW1604 00:00:03:24 431218243000751012.6
**
 
2821 CW9687 00:00:03:24 8051430000451013.5
**
 
2822 DW4721 00:00:03:24 422627100.090.09891008.0
**
 
2823 DW6295 00:00:03:24 800618000511013.2
**
 
2824 EW8944 00:00:03:24 74412179000331014.7
**
 
2825 DW7524 00:00:03:24 -35820101003.3
**
 
2826 EW5678 00:00:03:25 46477200055999.2  
2827 EW7544 00:00:03:25 742565000291012.5
**
 
2828 CW8690 00:00:03:25 7737161000431014.8
**
 
2829 EW5617 00:00:03:25 630244000871013.5
**
 
2830 DW9231 00:00:03:25 621419400033811.6
**
 
2831 EW4723 00:00:03:26 462515300.020971016.7
**
 
2832 EW4676 00:00:03:26 72613161000311011.5
**
 
2833 DW1377 00:00:03:26 560360581013.4
**
 
2834 EW6287 00:00:03:26 4241230600.080.0393993.9
**
 
2835 EW7549 00:00:03:26 6124117000811017.3
**
 
2836 EW9540 00:00:03:26 7307206000131014.9
**
 
2837 FW1643 00:00:03:26 24511304000861003.9  
2838 DW4698 00:00:03:27 5321117300.020641020.0
**
 
2839 EW5921 00:00:03:27 41411187000891017.9
**
 
2840 CW5786 00:00:03:27 560229000.011001019.0
**
 
2841 DW4366 00:00:03:27 53923259000391013.4
**
 
2842 EW7911 00:00:03:27 5971124500.070.0752995.3
**
 
2843 EW9211 00:00:03:27 72210173000311011.5
**
 
2844 DW5197 00:00:03:27 73102029500036999.8
**
 
2845 CW9838 00:00:03:27 4900154000801013.3  
2846 CW2997 00:00:03:27 5726278000601012.6
**
 
2847 FW1863 00:00:03:27 6713317000721019.6  
2848 CW8427 00:00:03:28 59510211000551017.2
**
 
2849 CW3627 00:00:03:28 5601155000981018.3
**
**
2850 Dw8565 00:00:03:28 4926219000531015.8
**
 
2851 EW7381 00:00:03:28 68212733200024867.2
**
 
2852 DW9614 00:00:03:28 561019178000531006.3
**
 
2853 EW6915 00:00:03:28 500320900.010.01431009.8
**
 
2854 FW0930 00:00:03:28 6127241000271012.3
**
 
2855 CW9154 00:00:03:28 741112188000311011.6
**
 
2856 FW1101 00:00:03:28 71101330300035985.3
**
 
2857 EW0176 00:00:03:28 6000163000981006.3
**
 
2858 EW8360 00:00:03:29 7802220000271015.0
**
 
2859 DW7061 00:00:03:29 431619400551057.4
**
 
2860 EW4925 00:00:03:29 6236234000451013.5
**
 
2861 CW9999 00:00:03:29 5225194000771020.9
**
 
2862 EW5766 00:00:03:29 6826138000621016.8
**
 
2863 EW5309 00:00:03:29 5400226000401015.0
**
 
2864 EW1158 00:00:03:29 5039315000711006.2
**
 
2865 EW2430 00:00:03:29 406153480.010.020.0289997.0  
2866 CW5102 00:00:03:29 550034300044995.5
**
 
2867 CW3609 00:00:03:29 7391431500.150.01741011.2
**
**
2868 FW0320 00:00:03:29 4715277000511014.8
**
 
2869 FW0525 00:00:03:29 672735200.520881008.8
**
 
2870 CW7054 00:00:03:29 4706173000591014.6
**
 
2871 EW6390 00:00:03:30 5915217000471013.9
**
 
2872 CW9012 00:00:03:30 8246235000251010.9
**
 
2873 DW7032 00:00:03:30 54511197000491008.2  
2874 EW6941 00:00:03:30 552485000301015.0
**
 
2875 EW7512 00:00:03:30 510084000861022.7
**
 
2876 EW8696 00:00:03:30 6649190000551019.3
**
 
2877 CW6488 00:00:03:30 6410135000321015.1
**
 
2878 EW9334 00:00:03:30 5103115000391015.4
**
 
2879 EW3272 00:00:03:30 4918105000431011.9
**
 
2880 EW1672 00:00:03:30 6215209000541014.5
**
 
2881 CW7748 00:00:03:31 703107300.030701012.8
**
 
2882 EW6396 00:00:03:31 681428000521016.4
**
 
2883 CW2659 00:00:03:31 46132221400.040811018.1
**
 
2884 DW6193 00:00:03:31 54251100001022.9
**
 
2885 CW0439 00:00:03:31 5548206000521017.9
**
**
2886 EW4389 00:00:03:31 47102220800.070.07511007.8
**
 
2887 EW7519 00:00:03:31 38710218000941014.7
**
 
2888 EW8146 00:00:03:31 6805333000231015.9
**
 
2889 EW8274 00:00:03:31 7800203000301084.4
**
 
2890 EW5050 00:00:03:31 650000.960821012.3
**
 
2891 FW0532 00:00:03:31 53519222000521008.8  
2892 DW5349 00:00:03:31 6148319000341015.8
**
 
2893 EW5709 00:00:03:32 6400303000261020.1
**
 
2894 EW7732 00:00:03:32 7679180000301040.7
**
 
2895 FW1350 00:00:03:32 5627174000331013.7  
2896 EW4085 00:00:03:33 5629267000531013.4
**
 
2897 DW6184 00:00:03:33 6500136000721019.9
**
 
2898 DW5465 00:00:03:33 4305221000731011.8
**
 
2899 EW5123 00:00:03:33 6500182000251009.8
**
 
2900 EW6293 00:00:03:33 5336108000491016.5
**
 
2901 EW5478 00:00:03:33 7100140000901029.8
**
 
2902 DW4057 00:00:03:33 661933100.070921010.9
**
 
2903 EW9788 00:00:03:33 6643460.03861013.0
**
 
2904 EW1195 00:00:03:33 54311203000381005.8
**
 
2905 FW0577 00:00:03:33 87035000151015.3
**
 
2906 DW7696 00:00:03:33 4491122500.65063500.1
**
 
2907 FW1600 00:00:03:33 48912162000551016.4  
2908 EW1626 00:00:03:34 712490000351016.6
**
 
2909 EW1752 00:00:03:34 51005900.280.031001021.5
**
 
2910 EW4536 00:00:03:34 66002000.030651012.4
**
 
2911 EW6709 00:00:03:34 560377000381016.2
**
 
2912 CW1035 00:00:03:34 4741116300.10871016.5
**
 
2913 DW4679 00:00:03:34 8326337000291013.9
**
 
2914 EW1015 00:00:03:34 531553000691013.5
**
 
2915 DW8964 00:00:03:34 51082550.061.231.22461014.1
**
 
2916 FW0979 00:00:03:34 771015257000191008.6
**
 
2917 CW8596 00:00:03:34 670032500.110891012.1
**
 
2918 EW4942 00:00:03:35 4200750.010.020.011001016.0
**
 
2919 DW9945 00:00:03:35 542386000951018.7
**
 
2920 EW7836 00:00:03:35 72132423900037998.1
**
 
2921 CW9723 00:00:03:35 50616188000481008.1
**
 
2922 DW2020 00:00:03:35 56618203000561000.2
**
 
2923 EW2280 00:00:03:35 6027287000541016.2
**
 
2924 EW6851 00:00:03:35 554810900751022.8
**
 
2925 EW8415 00:00:03:36 6359169000391010.8
**
 
2926 EW5391 00:00:03:36 5035157000541015.0
**
 
2927 EW9740 00:00:03:36 5216286000331015.6
**
 
2928 EW8138 00:00:03:36 511520260000491010.5
**
 
2929 DW9525 00:00:03:37 8302830271020.8
**
 
2930 EW3427 00:00:03:37 59162222400053993.9
**
 
2931 EW8148 00:00:03:37 492831900.020.01791018.7
**
 
2932 EW2720 00:00:03:37 5822900.931.580891008.4
**
 
2933 EW0786 00:00:03:37 5471523400.310871018.4  
2934 EW4088 00:00:03:37 520027600.01068992.2
**
 
2935 DW0156 00:00:03:37 65009500.10771012.1
**
 
2936 EW3076 00:00:03:37 451018233000701007.2
**
 
2937 CW6020 00:00:03:37 6200000581017.3
**
 
2938 DW0946 00:00:03:37 8503240000241024.5  
2939 DW3590 00:00:03:37 7836249000271013.6
**
 
2940 EW4049 00:00:03:37 59214286000291016.0
**
 
2941 FW0506 00:00:03:37 690000713.0  
2942 FW1564 00:00:03:37 6351218000.130.08981014.8  
2943 EW4634 00:00:03:38 5314259000441012.0
**
 
2944 CW8916 00:00:03:38 5210183600.010631014.1
**
 
2945 DW9332 00:00:03:38 462519000611015.8
**
 
2946 CW9770 00:00:03:38 70203018000054
**
 
2947 FW0059 00:00:03:38 612582000591013.9  
2948 FW0169 00:00:03:38 52721340000411007.6
**
 
2949 FW0700 00:00:03:38 5108176000401012.1
**
 
2950 FW0858 00:00:03:38 47510225000571015.7
**
 
2951 CW4299 00:00:03:38 6603342000861013.6
**
 
2952 DW8761 00:00:03:38 5021116500.110.04991022.0
**
 
2953 DW4184 00:00:03:38 590121400.010.01531013.9
**
 
2954 DW9565 00:00:03:38 400360064999.0
**
 
2955 DW0323 00:00:03:39 611411000491014.7
**
**
2956 DW6273 00:00:03:39 46033200.050.02831018.3
**
 
2957 CW1111 00:00:03:39 5231117200.010.01471009.6
**
 
2958 DW0350 00:00:03:39 45382460.080.590.52851012.8  
2959 DW5195 00:00:03:39 6723110911012.6
**
 
2960 DW8241 00:00:03:39 4381530900.030.0382997.6
**
 
2961 EW7704 00:00:03:39 68615117000241004.2
**
 
2962 EW8758 00:00:03:39 420024400.080.08901011.3
**
 
2963 DW6341 00:00:03:39 0001010.9
**
 
2964 EW2049 00:00:03:39 7318166000351012.0
**
 
2965 FW0409 00:00:03:39 553921100.130.03811020.7
**
 
2966 DW3809 00:00:03:39 661021252000211013.0
**
 
2967 FW1171 00:00:03:39 653329500.040.04811012.0  
2968 EW8847 00:00:03:39 681527100.280.16801012.6
**
 
2969 Fw0501 00:00:03:39 711341000231018.1
**
 
2970 EW4380 00:00:03:40 71310151000341015.2
**
 
2971 CW2101 00:00:03:40 581223196000491006.0
**
 
2972 CW5425 00:00:03:40 4803196000431015.2
**
 
2973 EW5625 00:00:03:40 5001141000461017.6
**
 
2974 DW9682 00:00:03:40 473141580541012.5
**
 
2975 CW5624 00:00:03:40 48023330521014.4  
2976 FW0324 00:00:03:40 6404333000371016.3  
2977 FW0800 00:00:03:40 5731024000061996.2  
2978 EW4259 00:00:03:40 4800132000501015.6
**
 
2979 CW8428 00:00:03:41 561116293000471017.8
**
 
2980 EW7749 00:00:03:41 72264000341015.4
**
 
2981 EW1607 00:00:03:41 49612207000551005.7
**
 
2982 CW3157 00:00:03:41 4905171000321014.5
**
 
2983 EW3978 00:00:03:41 572510000781022.4
**
 
2984 EW8291 00:00:03:42 40812158000731021.0
**
 
2985 EW0295 00:00:03:42 371322900.040861007.0
**
 
2986 CW6391 00:00:03:42 541234500741011.8
**
 
2987 EW7256 00:00:03:42 502324800.02761007.5
**
 
2988 CW9767 00:00:03:42 511117212000551006.8
**
 
2989 CW8846 00:00:03:42 4971631200.020611019.5
**
 
2990 EW3027 00:00:03:42 460100.260.01991021.0
**
 
2991 DW1121 00:00:03:42 601237000491014.9
**
 
2992 FW0727 00:00:03:42 46381024.4  
2993 FW0862 00:00:03:42 660111300.110881016.0  
2994 EW0888 00:00:03:42 791328400.020701006.7
**
 
2995 EW4951 00:00:03:42 5251146000401011.9
**
 
2996 DW5560 00:00:03:43 5735259000841021.4
**
 
2997 CW2995 00:00:03:43 7737111000461011.2
**
 
2998 EW8174 00:00:03:43 3100214000941013.1
**
 
2999 EW7224 00:00:03:43 684855000201010.3
**
 
3000 EW6663 00:00:03:43 4361419400.10591019.8
**
 
3001 CW0406 00:00:03:43 501621300.380.3701012.7
**
 
3002 EW5042 00:00:03:43 52009800.020.01901020.1
**
 
3003 EW5990 00:00:03:43 6311220300045995.7
**
 
3004 EW2417 00:00:03:43 462136267000631000.8
**
 
3005 EW9715 00:00:03:43 69310216000711018.4
**
 
3006 EW6013 00:00:03:43 4812211000531010.6
**
 
3007 FW0119 00:00:03:43 771118278000211018.7
**
 
3008 DW9787 00:00:03:44 20142121397
**
 
3009 EW1483 00:00:03:44 8312202000251013.0
**
 
3010 EW4340 00:00:03:44 720023000381010.1
**
 
3011 DW6254 00:00:03:44 45122123700.040701020.5
**
 
3012 EW4071 00:00:03:44 76611174000311004.5
**
 
3013 CW9294 00:00:03:44 48166900.220851017.1  
3014 DW0809 00:00:03:44 71131929200039998.9
**
 
3015 FW0955 00:00:03:44 8124135000211010.9
**
 
3016 EW3194 00:00:03:44 5500354000441014.2
**
 
3017 EW4989 00:00:03:45 711117182000321008.6
**
 
3018 CW0927 00:00:03:45 642832200.280.03741012.8
**
 
3019 DW4461 00:00:03:45 380033800791010.8
**
 
3020 EW3902 00:00:03:45 69915210000481013.9
**
 
3021 EW1948 00:00:03:45 67621143000381007.7
**
 
3022 EW1087 00:00:03:45 4900196000431015.5
**
 
3023 DW8522 00:00:03:45 6516360000891026.2
**
 
3024 EW9947 00:00:03:45 600213800.010671019.5
**
 
3025 CW8946 00:00:03:45 5738240000531016.6
**
 
3026 FW1002 00:00:03:45 4937276000361012.2
**
 
3027 DW7474 00:00:03:45 45335436000.010.0169997.9
**
 
3028 FW1326 00:00:03:45 7801153000201015.2  
3029 DW7928 00:00:03:45 8402188000311013.9
**
 
3030 EW2260 00:00:03:46 743974000571017.4
**
 
3031 CW7520 00:00:03:46 6400000.290861014.0
**
 
3032 DW6356 00:00:03:46 360212500.020.01971018.3
**
 
3033 DW1372 00:00:03:46 7200273000321012.0
**
 
3034 EW8836 00:00:03:46 51012020.020.230.23611013.4
**
 
3035 CW5885 00:00:03:46 5215360000271013.5
**
 
3036 FW1480 00:00:03:46 4826205000431015.4  
3037 CW0706 00:00:03:46 4791527900.230561018.8
**
 
3038 EW3547 00:00:03:47 3402331000831019.0
**
 
3039 EW3409 00:00:03:47 5409198000371012.4
**
 
3040 EW3932 00:00:03:47 48032330.020.350.3961012.9
**
 
3041 DW4381 00:00:03:47 529171000291015.1
**
**
3042 EW7064 00:00:03:47 5700000701021.1
**
 
3043 FW1662 00:00:03:47 4804307000521016.2  
3044 EW3782 00:00:03:47 6302000921010.6
**
 
3045 CW1484 00:00:03:48 7212160000521012.1
**
**
3046 EW8356 00:00:03:48 52004800881020.7
**
 
3047 DW4718 00:00:03:48 01016.9
**
 
3048 EW3833 00:00:03:48 6414300000361014.7
**
 
3049 CW8429 00:00:03:48 5114316000481022.9
**
 
3050 EW4385 00:00:03:48 5300720001011.9
**
 
3051 EW6023 00:00:03:48 540616300.030.01461015.6
**
 
3052 EW9969 00:00:03:48 5602346000961017.5
**
 
3053 FW0064 00:00:03:48 5628325000331016.9  
3054 CW0101 00:00:03:48 59132327600055992.9
**
**
3055 DW1194 00:00:03:48 46257800.110.05431020.1
**
 
3056 EW8576 00:00:03:48 4951328100461001.3
**
 
3057 EW2588 00:00:03:48 46111924800047
**
 
3058 FW1622 00:00:03:48 631530000341015.9
**
 
3059 FW0109 00:00:03:48 79915161000321005.5
**
 
3060 FW1782 00:00:03:48 6471814000042997.0  
3061 DW8015 00:00:03:48 6602200000501015.7
**
 
3062 EW0383 00:00:03:49 72000000311014.9
**
 
3063 CW8845 00:00:03:49 48455900.030781030.5
**
 
3064 EW3456 00:00:03:49 59011120451013.3
**
 
3065 EW4076 00:00:03:49 663579000781018.9
**
 
3066 DW2849 00:00:03:49 6100158000921018.0
**
 
3067 DW8519 00:00:03:49 7202338000301014.9
**
 
3068 EW4994 00:00:03:49 591220245000451011.6
**
 
3069 DW6597 00:00:03:49 3900171000831010.9
**
 
3070 DW8325 00:00:03:49 741120219000201010.9
**
 
3071 EW8926 00:00:03:49 47002600.010.01961021.0
**
 
3072 CW0136 00:00:03:49 6500312000751019.2
**
 
3073 FW0058 00:00:03:49 8102225000321012.9  
3074 CW2086 00:00:03:49 6151720700052994.6
**
 
3075 EW0762 00:00:03:50 5971318800047999.6
**
 
3076 CW2340 00:00:03:50 472513600049989.0  
3077 EW7551 00:00:03:50 74610158000321059.5
**
 
3078 EW4388 00:00:03:50 5014213000921022.8
**
 
3079 DW6598 00:00:03:50 5126208000401013.9
**
 
3080 EW9327 00:00:03:50 7914235000321012.3
**
 
3081 EW9838 00:00:03:50 6617331000521020.4
**
 
3082 EW5580 00:00:03:50 4938319000451012.5
**
 
3083 EW5908 00:00:03:50 5661329900060994.6
**
 
3084 EW4995 00:00:03:51 563637000321009.6
**
 
3085 EW5635 00:00:03:51 5222000.04911016.9
**
 
3086 EW0532 00:00:03:51 50482480401016.6
**
 
3087 DW9046 00:00:03:51 4500000.450.45901012.0
**
 
3088 DW8026 00:00:03:51 721416600039999.2
**
 
3089 CW1434 00:00:03:51 56033150.240.940.19881022.5
**
 
3090 CW0386 00:00:03:51 791024268000171012.0
**
**
3091 EW3209 00:00:03:51 550227300.010.01991018.3
**
 
3092 EW0426 00:00:03:51 62008100871019.2
**
 
3093 FW1568 00:00:03:51 4017300000691010.9
**
 
3094 DW6150 00:00:03:52 4628215000461012.3
**
 
3095 EW8346 00:00:03:52 1538355000701002.0
**
 
3096 DW4121 00:00:03:52 400227000.170.03461001.8
**
 
3097 DW2755 00:00:03:52 67514282000261004.1
**
 
3098 CW8947 00:00:03:52 57610304000511017.3
**
 
3099 CW7529 00:00:03:52 6991324800039999.3
**
 
3100 EW8253 00:00:03:52 410027800.090.09871010.9
**
 
3101 EW9952 00:00:03:52 6061719700048998.7
**
 
3102 FW0091 00:00:03:52 4831098000771011.7
**
 
3103 DW6906 00:00:03:52 56272000271015.7
**
 
3104 CW0796 00:00:03:52 566101300059966.3
**
 
3105 EW9706 00:00:03:52 7604174000721012.2
**
 
3106 CW3766 00:00:03:53 5137124000461016.8
**
 
3107 EW0496 00:00:03:53 5002147000441016.6
**
 
3108 CW4621 00:00:03:53 5113262000451015.5
**
 
3109 CW3340 00:00:03:53 4958293000421016.0
**
**
3110 DW3846 00:00:03:53 6936224000511014.8
**
 
3111 DW3216 00:00:03:53 511531000391015.8
**
 
3112 CW8926 00:00:03:53 6800000016991.9
**
 
3113 EW4036 00:00:03:53 333516700.030951003.2
**
 
3114 EW5681 00:00:03:53 5315297000401014.5
**
 
3115 DW5621 00:00:03:53 4022352000791011.5
**
 
3116 EW5624 00:00:03:53 5641226400059992.6
**
 
3117 CW9836 00:00:03:53 475843000901018.7  
3118 EW6026 00:00:03:53 1628670661002.0
**
 
3119 CW9516 00:00:03:53 671877000271011.0
**
 
3120 DW4171 00:00:03:53 670260000551018.6  
3121 EW8051 00:00:03:53 2626180000651005.5  
3122 FW0706 00:00:03:53 814826000.480591009.7  
3123 EW5049 00:00:03:53 5035294000521015.4
**
 
3124 EW5606 00:00:03:53 44101620300.040801005.4
**
 
3125 EW8534 00:00:03:53 75613228000321012.9
**
 
3126 EW3382 00:00:03:54 3912141000891018.2
**
 
3127 DW8791 00:00:03:54 4137241000801009.5
**
 
3128 DW2066 00:00:03:54 24142616000551003.7
**
 
3129 EW4307 00:00:03:54 590694000341014.6
**
 
3130 EW0631 00:00:03:54 61512207000441013.8
**
 
3131 EW0393 00:00:03:54 37000000891011.1
**
 
3132 CW3325 00:00:03:54 6112140561012.3
**
 
3133 DW1938 00:00:03:54 5906190000471000.3
**
 
3134 DW2463 00:00:03:54 5636296000441016.3
**
 
3135 DW9681 00:00:03:54 7561029400.20.01741012.7
**
 
3136 DW2316 00:00:03:54 380026100.040821002.0  
3137 CW1196 00:00:03:54 6200210000921017.0
**
 
3138 EW9265 00:00:03:54 3100215000931011.4
**
 
3139 EW5016 00:00:03:54 4200270000.18991010.4
**
 
3140 FW0334 00:00:03:54 6001261000551016.0  
3141 FW0374 00:00:03:54 58814187000421011.0  
3142 FW0903 00:00:03:54 511322198000511006.9
**
 
3143 DW3651 00:00:03:55 440227200.220.22931011.4
**
 
3144 EW6501 00:00:03:55 491222500.220961063.3
**
 
3145 EW7016 00:00:03:55 711249000101021.8
**
 
3146 DW5826 00:00:03:55 670225600.040971018.0
**
 
3147 DW2681 00:00:03:55 6861321800043994.9
**
 
3148 CW9086 00:00:03:55 5051217000.120.03941018.7
**
 
3149 EW7874 00:00:03:55 5513150000801021.3
**
 
3150 EW7642 00:00:03:55 47598200.020891016.9
**
 
3151 CW4611 00:00:03:55 47720281000551018.7
**
**
3152 EW0923 00:00:03:55 5007304000461014.0
**
 
3153 DW1941 00:00:03:55 7800289000321013.3
**
 
3154 EW8771 00:00:03:55 4428218000921013.3
**
 
3155 CW7872 00:00:03:55 5000188000911013.8
**
 
3156 EW9217 00:00:03:55 70917259000161013.0
**
 
3157 EW9986 00:00:03:55 756127000321011.5
**
 
3158 EW3816 00:00:03:55 77718199000251006.9
**
 
3159 FW0332 00:00:03:55 491117325000731015.6  
3160 EW6750 00:00:03:55 38010.010.030.03921012.6
**
 
3161 DW7314 00:00:03:55 6813341000521014.3
**
 
3162 FW0786 00:00:03:55 421846000651013.4  
3163 EW7270 00:00:03:55 690011300.44501001.2
**
 
3164 CW5801 00:00:03:55 5123249000491015.6
**
 
3165 EW2310 00:00:03:56 574411100.14891020.8
**
 
3166 EW7526 00:00:03:56 8233176000211014.7
**
 
3167 CW3586 00:00:03:56 46713263000481011.4
**
 
3168 CW4086 00:00:03:56 8000259000231013.4
**
 
3169 DW1086 00:00:03:56 472530000.010.01611008.4
**
 
3170 CW3806 00:00:03:56 48216189000421010.3
**
**
3171 EW5804 00:00:03:56 525952000521016.3
**
 
3172 DW5686 00:00:03:56 5725174000391014.4
**
 
3173 EW0761 00:00:03:56 4919282000421015.5
**
 
3174 DW3407 00:00:03:56 6108121000591013.3
**
**
3175 CW6339 00:00:03:56 7559219000361011.3
**
 
3176 CW5402 00:00:03:56 4271731400.190.06671001.2
**
**
3177 CW7171 00:00:03:56 323815400.050.05